<?xml version="1.0" encoding="UTF-8" standalone="no" ?>
<gpx xmlns="http://www.topografix.com/GPX/1/1" xmlns:xsi="http://www.w3.org/2001/XMLSchema-instance" xsi:schemaLocation="http://www.topografix.com/GPX/1/1 http://www.topografix.com/GPX/1/1/gpx.xsd" version="1.1" creator="VisuGPX - https://www.visugpx.com">
  <metadata>
    <name>Balcon de Tré la Tête (parcours partiel)</name>
  </metadata>
  <trk>
    <name><![CDATA[2019-08-03 20:36:32-Course TT]]></name>
    <trkseg>
      <trkpt lat="45.81029" lon="6.72923">
        <ele>1167.18</ele>
        <time>2019-08-03T15:04:29Z</time>
      </trkpt>
      <trkpt lat="45.8103" lon="6.72923">
        <ele>1070.57</ele>
        <time>2019-08-03T15:04:30Z</time>
      </trkpt>
      <trkpt lat="45.81031" lon="6.72924">
        <ele>1070.57</ele>
        <time>2019-08-03T15:04:31Z</time>
      </trkpt>
      <trkpt lat="45.81033" lon="6.72926">
        <ele>1167.66</ele>
        <time>2019-08-03T15:04:34Z</time>
      </trkpt>
      <trkpt lat="45.81034" lon="6.72927">
        <ele>1167.66</ele>
        <time>2019-08-03T15:04:35Z</time>
      </trkpt>
      <trkpt lat="45.81038" lon="6.72929">
        <ele>1168.14</ele>
        <time>2019-08-03T15:04:38Z</time>
      </trkpt>
      <trkpt lat="45.8104" lon="6.72929">
        <ele>1168.14</ele>
        <time>2019-08-03T15:04:39Z</time>
      </trkpt>
      <trkpt lat="45.81062" lon="6.72941">
        <ele>1170.06</ele>
        <time>2019-08-03T15:04:51Z</time>
      </trkpt>
      <trkpt lat="45.8108" lon="6.72954">
        <ele>1172.47</ele>
        <time>2019-08-03T15:05:03Z</time>
      </trkpt>
      <trkpt lat="45.81085" lon="6.72956">
        <ele>1172.95</ele>
        <time>2019-08-03T15:05:06Z</time>
      </trkpt>
      <trkpt lat="45.81105" lon="6.72967">
        <ele>1174.39</ele>
        <time>2019-08-03T15:05:17Z</time>
      </trkpt>
      <trkpt lat="45.81125" lon="6.7298">
        <ele>1176.31</ele>
        <time>2019-08-03T15:05:28Z</time>
      </trkpt>
      <trkpt lat="45.81143" lon="6.72995">
        <ele>1179.19</ele>
        <time>2019-08-03T15:05:39Z</time>
      </trkpt>
      <trkpt lat="45.8116" lon="6.73013">
        <ele>1182.08</ele>
        <time>2019-08-03T15:05:51Z</time>
      </trkpt>
      <trkpt lat="45.81177" lon="6.73029">
        <ele>1184.96</ele>
        <time>2019-08-03T15:06:02Z</time>
      </trkpt>
      <trkpt lat="45.81194" lon="6.73039">
        <ele>1187.37</ele>
        <time>2019-08-03T15:06:14Z</time>
      </trkpt>
      <trkpt lat="45.81213" lon="6.7305">
        <ele>1188.33</ele>
        <time>2019-08-03T15:06:24Z</time>
      </trkpt>
      <trkpt lat="45.81233" lon="6.73059">
        <ele>1189.77</ele>
        <time>2019-08-03T15:06:36Z</time>
      </trkpt>
      <trkpt lat="45.81233" lon="6.73059">
        <ele>1189.77</ele>
        <time>2019-08-03T15:07:08Z</time>
      </trkpt>
      <trkpt lat="45.8123" lon="6.73065">
        <ele>1190.73</ele>
        <time>2019-08-03T15:07:17Z</time>
      </trkpt>
      <trkpt lat="45.8123" lon="6.73066">
        <ele>1191.21</ele>
        <time>2019-08-03T15:07:18Z</time>
      </trkpt>
      <trkpt lat="45.81229" lon="6.73067">
        <ele>1191.21</ele>
        <time>2019-08-03T15:07:19Z</time>
      </trkpt>
      <trkpt lat="45.81228" lon="6.73067">
        <ele>1191.21</ele>
        <time>2019-08-03T15:07:20Z</time>
      </trkpt>
      <trkpt lat="45.81227" lon="6.73067">
        <ele>1191.69</ele>
        <time>2019-08-03T15:07:21Z</time>
      </trkpt>
      <trkpt lat="45.81226" lon="6.73068">
        <ele>1192.17</ele>
        <time>2019-08-03T15:07:22Z</time>
      </trkpt>
      <trkpt lat="45.81225" lon="6.73068">
        <ele>1192.17</ele>
        <time>2019-08-03T15:07:23Z</time>
      </trkpt>
      <trkpt lat="45.81215" lon="6.73067">
        <ele>1195.54</ele>
        <time>2019-08-03T15:07:33Z</time>
      </trkpt>
      <trkpt lat="45.81205" lon="6.73068">
        <ele>1198.9</ele>
        <time>2019-08-03T15:07:42Z</time>
      </trkpt>
      <trkpt lat="45.81194" lon="6.73071">
        <ele>1201.79</ele>
        <time>2019-08-03T15:07:52Z</time>
      </trkpt>
      <trkpt lat="45.8118" lon="6.73072">
        <ele>1205.15</ele>
        <time>2019-08-03T15:08:01Z</time>
      </trkpt>
      <trkpt lat="45.81165" lon="6.7307">
        <ele>1208.03</ele>
        <time>2019-08-03T15:08:10Z</time>
      </trkpt>
      <trkpt lat="45.81152" lon="6.73068">
        <ele>1211.4</ele>
        <time>2019-08-03T15:08:19Z</time>
      </trkpt>
      <trkpt lat="45.81141" lon="6.73066">
        <ele>1214.76</ele>
        <time>2019-08-03T15:08:27Z</time>
      </trkpt>
      <trkpt lat="45.81133" lon="6.73061">
        <ele>1217.17</ele>
        <time>2019-08-03T15:08:38Z</time>
      </trkpt>
      <trkpt lat="45.81129" lon="6.73058">
        <ele>1217.17</ele>
        <time>2019-08-03T15:08:56Z</time>
      </trkpt>
      <trkpt lat="45.81127" lon="6.73059">
        <ele>1217.65</ele>
        <time>2019-08-03T15:09:03Z</time>
      </trkpt>
      <trkpt lat="45.81123" lon="6.73052">
        <ele>1217.65</ele>
        <time>2019-08-03T15:09:42Z</time>
      </trkpt>
      <trkpt lat="45.81119" lon="6.73053">
        <ele>1218.61</ele>
        <time>2019-08-03T15:09:46Z</time>
      </trkpt>
      <trkpt lat="45.81118" lon="6.73053">
        <ele>1219.09</ele>
        <time>2019-08-03T15:09:47Z</time>
      </trkpt>
      <trkpt lat="45.81106" lon="6.73057">
        <ele>1221.97</ele>
        <time>2019-08-03T15:09:56Z</time>
      </trkpt>
      <trkpt lat="45.81089" lon="6.73058">
        <ele>1225.34</ele>
        <time>2019-08-03T15:10:08Z</time>
      </trkpt>
      <trkpt lat="45.81077" lon="6.73066">
        <ele>1228.22</ele>
        <time>2019-08-03T15:10:17Z</time>
      </trkpt>
      <trkpt lat="45.81062" lon="6.73067">
        <ele>1231.59</ele>
        <time>2019-08-03T15:10:28Z</time>
      </trkpt>
      <trkpt lat="45.8105" lon="6.73071">
        <ele>1234.95</ele>
        <time>2019-08-03T15:10:38Z</time>
      </trkpt>
      <trkpt lat="45.81041" lon="6.73073">
        <ele>1236.39</ele>
        <time>2019-08-03T15:10:44Z</time>
      </trkpt>
      <trkpt lat="45.81033" lon="6.73073">
        <ele>1238.32</ele>
        <time>2019-08-03T15:10:50Z</time>
      </trkpt>
      <trkpt lat="45.81032" lon="6.73073">
        <ele>1238.8</ele>
        <time>2019-08-03T15:10:51Z</time>
      </trkpt>
      <trkpt lat="45.81015" lon="6.73076">
        <ele>1242.16</ele>
        <time>2019-08-03T15:11:03Z</time>
      </trkpt>
      <trkpt lat="45.81013" lon="6.73075">
        <ele>1242.64</ele>
        <time>2019-08-03T15:11:05Z</time>
      </trkpt>
      <trkpt lat="45.8101" lon="6.73075">
        <ele>1242.64</ele>
        <time>2019-08-03T15:11:06Z</time>
      </trkpt>
      <trkpt lat="45.81009" lon="6.73076">
        <ele>1243.12</ele>
        <time>2019-08-03T15:11:07Z</time>
      </trkpt>
      <trkpt lat="45.81005" lon="6.73074">
        <ele>1244.56</ele>
        <time>2019-08-03T15:11:10Z</time>
      </trkpt>
      <trkpt lat="45.81" lon="6.73074">
        <ele>1244.56</ele>
        <time>2019-08-03T15:11:11Z</time>
      </trkpt>
      <trkpt lat="45.80997" lon="6.73074">
        <ele>1245.04</ele>
        <time>2019-08-03T15:11:13Z</time>
      </trkpt>
      <trkpt lat="45.80995" lon="6.73074">
        <ele>1245.53</ele>
        <time>2019-08-03T15:11:14Z</time>
      </trkpt>
      <trkpt lat="45.80992" lon="6.73075">
        <ele>1246.01</ele>
        <time>2019-08-03T15:11:15Z</time>
      </trkpt>
      <trkpt lat="45.8099" lon="6.73074">
        <ele>1246.01</ele>
        <time>2019-08-03T15:11:16Z</time>
      </trkpt>
      <trkpt lat="45.80988" lon="6.73073">
        <ele>1246.49</ele>
        <time>2019-08-03T15:11:17Z</time>
      </trkpt>
      <trkpt lat="45.80987" lon="6.73073">
        <ele>1246.49</ele>
        <time>2019-08-03T15:11:18Z</time>
      </trkpt>
      <trkpt lat="45.80971" lon="6.73065">
        <ele>1249.85</ele>
        <time>2019-08-03T15:11:30Z</time>
      </trkpt>
      <trkpt lat="45.80961" lon="6.73061">
        <ele>1251.77</ele>
        <time>2019-08-03T15:11:37Z</time>
      </trkpt>
      <trkpt lat="45.80959" lon="6.7306">
        <ele>1252.25</ele>
        <time>2019-08-03T15:11:38Z</time>
      </trkpt>
      <trkpt lat="45.80947" lon="6.73055">
        <ele>1254.66</ele>
        <time>2019-08-03T15:11:46Z</time>
      </trkpt>
      <trkpt lat="45.80946" lon="6.73054">
        <ele>1255.14</ele>
        <time>2019-08-03T15:11:47Z</time>
      </trkpt>
      <trkpt lat="45.80943" lon="6.73051">
        <ele>1256.58</ele>
        <time>2019-08-03T15:11:53Z</time>
      </trkpt>
      <trkpt lat="45.8094" lon="6.7305">
        <ele>1258.02</ele>
        <time>2019-08-03T15:11:57Z</time>
      </trkpt>
      <trkpt lat="45.80935" lon="6.73048">
        <ele>1259.94</ele>
        <time>2019-08-03T15:12:03Z</time>
      </trkpt>
      <trkpt lat="45.80928" lon="6.7304">
        <ele>1261.87</ele>
        <time>2019-08-03T15:12:14Z</time>
      </trkpt>
      <trkpt lat="45.80935" lon="6.73033">
        <ele>1261.87</ele>
        <time>2019-08-03T15:13:30Z</time>
      </trkpt>
      <trkpt lat="45.80934" lon="6.73032">
        <ele>1262.35</ele>
        <time>2019-08-03T15:14:03Z</time>
      </trkpt>
      <trkpt lat="45.80928" lon="6.73032">
        <ele>1265.23</ele>
        <time>2019-08-03T15:14:14Z</time>
      </trkpt>
      <trkpt lat="45.80923" lon="6.73031">
        <ele>1268.6</ele>
        <time>2019-08-03T15:14:23Z</time>
      </trkpt>
      <trkpt lat="45.80916" lon="6.73034">
        <ele>1271.96</ele>
        <time>2019-08-03T15:14:33Z</time>
      </trkpt>
      <trkpt lat="45.8091" lon="6.73037">
        <ele>1274.85</ele>
        <time>2019-08-03T15:14:42Z</time>
      </trkpt>
      <trkpt lat="45.8091" lon="6.73038">
        <ele>1275.33</ele>
        <time>2019-08-03T15:14:43Z</time>
      </trkpt>
      <trkpt lat="45.80905" lon="6.73042">
        <ele>1278.21</ele>
        <time>2019-08-03T15:14:51Z</time>
      </trkpt>
      <trkpt lat="45.80896" lon="6.73049">
        <ele>1281.57</ele>
        <time>2019-08-03T15:15:01Z</time>
      </trkpt>
      <trkpt lat="45.80894" lon="6.73049">
        <ele>1282.06</ele>
        <time>2019-08-03T15:15:03Z</time>
      </trkpt>
      <trkpt lat="45.80877" lon="6.73054">
        <ele>1285.42</ele>
        <time>2019-08-03T15:15:14Z</time>
      </trkpt>
      <trkpt lat="45.80868" lon="6.7306">
        <ele>1288.78</ele>
        <time>2019-08-03T15:15:23Z</time>
      </trkpt>
      <trkpt lat="45.80866" lon="6.73061">
        <ele>1289.27</ele>
        <time>2019-08-03T15:15:24Z</time>
      </trkpt>
      <trkpt lat="45.80864" lon="6.73061">
        <ele>1289.27</ele>
        <time>2019-08-03T15:15:25Z</time>
      </trkpt>
      <trkpt lat="45.80851" lon="6.73071">
        <ele>1291.67</ele>
        <time>2019-08-03T15:15:34Z</time>
      </trkpt>
      <trkpt lat="45.80848" lon="6.73073">
        <ele>1292.63</ele>
        <time>2019-08-03T15:15:36Z</time>
      </trkpt>
      <trkpt lat="45.80842" lon="6.73073">
        <ele>1294.55</ele>
        <time>2019-08-03T15:15:40Z</time>
      </trkpt>
      <trkpt lat="45.80841" lon="6.73072">
        <ele>1295.03</ele>
        <time>2019-08-03T15:15:41Z</time>
      </trkpt>
      <trkpt lat="45.80837" lon="6.73074">
        <ele>1296.48</ele>
        <time>2019-08-03T15:15:47Z</time>
      </trkpt>
      <trkpt lat="45.80836" lon="6.73075">
        <ele>1296.48</ele>
        <time>2019-08-03T15:15:48Z</time>
      </trkpt>
      <trkpt lat="45.80832" lon="6.73075">
        <ele>1297.92</ele>
        <time>2019-08-03T15:15:53Z</time>
      </trkpt>
      <trkpt lat="45.8083" lon="6.73076">
        <ele>1298.88</ele>
        <time>2019-08-03T15:15:56Z</time>
      </trkpt>
      <trkpt lat="45.80829" lon="6.73076">
        <ele>1298.88</ele>
        <time>2019-08-03T15:15:57Z</time>
      </trkpt>
      <trkpt lat="45.80828" lon="6.73076">
        <ele>1299.84</ele>
        <time>2019-08-03T15:15:59Z</time>
      </trkpt>
      <trkpt lat="45.80828" lon="6.73076">
        <ele>1299.84</ele>
        <time>2019-08-03T15:16:00Z</time>
      </trkpt>
      <trkpt lat="45.80827" lon="6.73076">
        <ele>1299.84</ele>
        <time>2019-08-03T15:16:01Z</time>
      </trkpt>
      <trkpt lat="45.80816" lon="6.73074">
        <ele>1303.2</ele>
        <time>2019-08-03T15:16:15Z</time>
      </trkpt>
      <trkpt lat="45.80815" lon="6.73074">
        <ele>1303.2</ele>
        <time>2019-08-03T15:16:16Z</time>
      </trkpt>
      <trkpt lat="45.80803" lon="6.73077">
        <ele>1306.57</ele>
        <time>2019-08-03T15:16:29Z</time>
      </trkpt>
      <trkpt lat="45.80795" lon="6.73082">
        <ele>1309.45</ele>
        <time>2019-08-03T15:16:41Z</time>
      </trkpt>
      <trkpt lat="45.80786" lon="6.73088">
        <ele>1312.82</ele>
        <time>2019-08-03T15:16:54Z</time>
      </trkpt>
      <trkpt lat="45.80785" lon="6.73087">
        <ele>1312.82</ele>
        <time>2019-08-03T15:16:58Z</time>
      </trkpt>
      <trkpt lat="45.80785" lon="6.73087">
        <ele>1312.82</ele>
        <time>2019-08-03T15:17:04Z</time>
      </trkpt>
      <trkpt lat="45.80786" lon="6.73088">
        <ele>1312.82</ele>
        <time>2019-08-03T15:17:05Z</time>
      </trkpt>
      <trkpt lat="45.80785" lon="6.73085">
        <ele>1312.82</ele>
        <time>2019-08-03T15:18:28Z</time>
      </trkpt>
      <trkpt lat="45.80786" lon="6.73087">
        <ele>1313.78</ele>
        <time>2019-08-03T15:18:34Z</time>
      </trkpt>
      <trkpt lat="45.80796" lon="6.73092">
        <ele>1317.14</ele>
        <time>2019-08-03T15:18:57Z</time>
      </trkpt>
      <trkpt lat="45.808" lon="6.73096">
        <ele>1318.59</ele>
        <time>2019-08-03T15:19:04Z</time>
      </trkpt>
      <trkpt lat="45.80801" lon="6.73096">
        <ele>1319.07</ele>
        <time>2019-08-03T15:19:05Z</time>
      </trkpt>
      <trkpt lat="45.80802" lon="6.73096">
        <ele>1319.07</ele>
        <time>2019-08-03T15:19:06Z</time>
      </trkpt>
      <trkpt lat="45.80803" lon="6.73098">
        <ele>1319.55</ele>
        <time>2019-08-03T15:19:07Z</time>
      </trkpt>
      <trkpt lat="45.80803" lon="6.731">
        <ele>1320.03</ele>
        <time>2019-08-03T15:19:08Z</time>
      </trkpt>
      <trkpt lat="45.80802" lon="6.73102">
        <ele>1320.03</ele>
        <time>2019-08-03T15:19:09Z</time>
      </trkpt>
      <trkpt lat="45.80802" lon="6.73102">
        <ele>1320.51</ele>
        <time>2019-08-03T15:19:10Z</time>
      </trkpt>
      <trkpt lat="45.808" lon="6.73111">
        <ele>1323.87</ele>
        <time>2019-08-03T15:19:20Z</time>
      </trkpt>
      <trkpt lat="45.80792" lon="6.73114">
        <ele>1326.76</ele>
        <time>2019-08-03T15:19:30Z</time>
      </trkpt>
      <trkpt lat="45.80793" lon="6.73116">
        <ele>1328.68</ele>
        <time>2019-08-03T15:19:35Z</time>
      </trkpt>
      <trkpt lat="45.80799" lon="6.73122">
        <ele>1331.56</ele>
        <time>2019-08-03T15:19:45Z</time>
      </trkpt>
      <trkpt lat="45.80804" lon="6.73128">
        <ele>1334.93</ele>
        <time>2019-08-03T15:19:54Z</time>
      </trkpt>
      <trkpt lat="45.80801" lon="6.73132">
        <ele>1338.29</ele>
        <time>2019-08-03T15:20:05Z</time>
      </trkpt>
      <trkpt lat="45.80792" lon="6.73135">
        <ele>1341.18</ele>
        <time>2019-08-03T15:20:15Z</time>
      </trkpt>
      <trkpt lat="45.80789" lon="6.73136">
        <ele>1342.14</ele>
        <time>2019-08-03T15:20:17Z</time>
      </trkpt>
      <trkpt lat="45.80789" lon="6.73138">
        <ele>1342.14</ele>
        <time>2019-08-03T15:20:18Z</time>
      </trkpt>
      <trkpt lat="45.80775" lon="6.73148">
        <ele>1345.5</ele>
        <time>2019-08-03T15:20:29Z</time>
      </trkpt>
      <trkpt lat="45.80763" lon="6.73155">
        <ele>1348.39</ele>
        <time>2019-08-03T15:20:40Z</time>
      </trkpt>
      <trkpt lat="45.80748" lon="6.73162">
        <ele>1351.27</ele>
        <time>2019-08-03T15:20:51Z</time>
      </trkpt>
      <trkpt lat="45.80746" lon="6.73161">
        <ele>1351.75</ele>
        <time>2019-08-03T15:20:52Z</time>
      </trkpt>
      <trkpt lat="45.80745" lon="6.73161">
        <ele>1352.23</ele>
        <time>2019-08-03T15:20:53Z</time>
      </trkpt>
      <trkpt lat="45.80742" lon="6.73162">
        <ele>1352.71</ele>
        <time>2019-08-03T15:20:55Z</time>
      </trkpt>
      <trkpt lat="45.80737" lon="6.73162">
        <ele>1354.15</ele>
        <time>2019-08-03T15:21:01Z</time>
      </trkpt>
      <trkpt lat="45.80735" lon="6.73162">
        <ele>1355.12</ele>
        <time>2019-08-03T15:21:04Z</time>
      </trkpt>
      <trkpt lat="45.80734" lon="6.73162">
        <ele>1356.56</ele>
        <time>2019-08-03T15:21:07Z</time>
      </trkpt>
      <trkpt lat="45.80732" lon="6.73161">
        <ele>1356.56</ele>
        <time>2019-08-03T15:21:08Z</time>
      </trkpt>
      <trkpt lat="45.80725" lon="6.73161">
        <ele>1357.52</ele>
        <time>2019-08-03T15:21:19Z</time>
      </trkpt>
      <trkpt lat="45.80716" lon="6.73148">
        <ele>1357.52</ele>
        <time>2019-08-03T15:22:17Z</time>
      </trkpt>
      <trkpt lat="45.80715" lon="6.73148">
        <ele>1358</ele>
        <time>2019-08-03T15:22:18Z</time>
      </trkpt>
      <trkpt lat="45.80714" lon="6.73147">
        <ele>1358</ele>
        <time>2019-08-03T15:22:19Z</time>
      </trkpt>
      <trkpt lat="45.80708" lon="6.73155">
        <ele>1359.92</ele>
        <time>2019-08-03T15:22:26Z</time>
      </trkpt>
      <trkpt lat="45.80707" lon="6.73155">
        <ele>1360.88</ele>
        <time>2019-08-03T15:22:27Z</time>
      </trkpt>
      <trkpt lat="45.80691" lon="6.73166">
        <ele>1362.33</ele>
        <time>2019-08-03T15:22:35Z</time>
      </trkpt>
      <trkpt lat="45.80689" lon="6.73166">
        <ele>1362.33</ele>
        <time>2019-08-03T15:22:36Z</time>
      </trkpt>
      <trkpt lat="45.80686" lon="6.73166">
        <ele>1361.84</ele>
        <time>2019-08-03T15:22:37Z</time>
      </trkpt>
      <trkpt lat="45.80684" lon="6.73165">
        <ele>1361.84</ele>
        <time>2019-08-03T15:22:38Z</time>
      </trkpt>
      <trkpt lat="45.80683" lon="6.73163">
        <ele>1361.84</ele>
        <time>2019-08-03T15:22:39Z</time>
      </trkpt>
      <trkpt lat="45.80681" lon="6.73161">
        <ele>1361.36</ele>
        <time>2019-08-03T15:22:40Z</time>
      </trkpt>
      <trkpt lat="45.80674" lon="6.73155">
        <ele>1361.36</ele>
        <time>2019-08-03T15:22:45Z</time>
      </trkpt>
      <trkpt lat="45.8066" lon="6.7315">
        <ele>1364.25</ele>
        <time>2019-08-03T15:22:55Z</time>
      </trkpt>
      <trkpt lat="45.8065" lon="6.7315">
        <ele>1365.69</ele>
        <time>2019-08-03T15:22:59Z</time>
      </trkpt>
      <trkpt lat="45.80648" lon="6.7315">
        <ele>1366.17</ele>
        <time>2019-08-03T15:23:00Z</time>
      </trkpt>
      <trkpt lat="45.80646" lon="6.7315">
        <ele>1366.17</ele>
        <time>2019-08-03T15:23:01Z</time>
      </trkpt>
      <trkpt lat="45.80645" lon="6.7315">
        <ele>1366.65</ele>
        <time>2019-08-03T15:23:02Z</time>
      </trkpt>
      <trkpt lat="45.80643" lon="6.73149">
        <ele>1366.65</ele>
        <time>2019-08-03T15:23:03Z</time>
      </trkpt>
      <trkpt lat="45.80642" lon="6.73147">
        <ele>1367.13</ele>
        <time>2019-08-03T15:23:04Z</time>
      </trkpt>
      <trkpt lat="45.80642" lon="6.73145">
        <ele>1367.61</ele>
        <time>2019-08-03T15:23:05Z</time>
      </trkpt>
      <trkpt lat="45.80639" lon="6.73135">
        <ele>1370.02</ele>
        <time>2019-08-03T15:23:15Z</time>
      </trkpt>
      <trkpt lat="45.80638" lon="6.73134">
        <ele>1370.5</ele>
        <time>2019-08-03T15:23:16Z</time>
      </trkpt>
      <trkpt lat="45.80633" lon="6.73132">
        <ele>1371.46</ele>
        <time>2019-08-03T15:23:20Z</time>
      </trkpt>
      <trkpt lat="45.80625" lon="6.73133">
        <ele>1374.82</ele>
        <time>2019-08-03T15:23:29Z</time>
      </trkpt>
      <trkpt lat="45.80617" lon="6.73139">
        <ele>1377.71</ele>
        <time>2019-08-03T15:23:39Z</time>
      </trkpt>
      <trkpt lat="45.80614" lon="6.73141">
        <ele>1378.19</ele>
        <time>2019-08-03T15:23:44Z</time>
      </trkpt>
      <trkpt lat="45.80607" lon="6.73145">
        <ele>1379.63</ele>
        <time>2019-08-03T15:24:04Z</time>
      </trkpt>
      <trkpt lat="45.80596" lon="6.73151">
        <ele>1382.99</ele>
        <time>2019-08-03T15:24:59Z</time>
      </trkpt>
      <trkpt lat="45.80588" lon="6.73155">
        <ele>1385.88</ele>
        <time>2019-08-03T15:25:10Z</time>
      </trkpt>
      <trkpt lat="45.80583" lon="6.73157">
        <ele>1389.24</ele>
        <time>2019-08-03T15:25:19Z</time>
      </trkpt>
      <trkpt lat="45.80573" lon="6.73157">
        <ele>1392.13</ele>
        <time>2019-08-03T15:25:28Z</time>
      </trkpt>
      <trkpt lat="45.80571" lon="6.73155">
        <ele>1392.61</ele>
        <time>2019-08-03T15:25:29Z</time>
      </trkpt>
      <trkpt lat="45.80558" lon="6.73155">
        <ele>1395.49</ele>
        <time>2019-08-03T15:25:38Z</time>
      </trkpt>
      <trkpt lat="45.8055" lon="6.73154">
        <ele>1398.86</ele>
        <time>2019-08-03T15:25:47Z</time>
      </trkpt>
      <trkpt lat="45.80545" lon="6.73154">
        <ele>1399.82</ele>
        <time>2019-08-03T15:25:56Z</time>
      </trkpt>
      <trkpt lat="45.80544" lon="6.73156">
        <ele>1399.34</ele>
        <time>2019-08-03T15:26:22Z</time>
      </trkpt>
      <trkpt lat="45.80544" lon="6.73155">
        <ele>1399.34</ele>
        <time>2019-08-03T15:26:26Z</time>
      </trkpt>
      <trkpt lat="45.80541" lon="6.73157">
        <ele>1399.82</ele>
        <time>2019-08-03T15:26:28Z</time>
      </trkpt>
      <trkpt lat="45.8054" lon="6.73157">
        <ele>1399.82</ele>
        <time>2019-08-03T15:26:29Z</time>
      </trkpt>
      <trkpt lat="45.80537" lon="6.73158">
        <ele>1400.3</ele>
        <time>2019-08-03T15:26:31Z</time>
      </trkpt>
      <trkpt lat="45.80528" lon="6.7316">
        <ele>1403.18</ele>
        <time>2019-08-03T15:26:44Z</time>
      </trkpt>
      <trkpt lat="45.80525" lon="6.73161">
        <ele>1404.14</ele>
        <time>2019-08-03T15:26:47Z</time>
      </trkpt>
      <trkpt lat="45.80522" lon="6.7317">
        <ele>1407.99</ele>
        <time>2019-08-03T15:26:56Z</time>
      </trkpt>
      <trkpt lat="45.80518" lon="6.73174">
        <ele>1410.87</ele>
        <time>2019-08-03T15:27:02Z</time>
      </trkpt>
      <trkpt lat="45.80516" lon="6.73177">
        <ele>1412.31</ele>
        <time>2019-08-03T15:27:05Z</time>
      </trkpt>
      <trkpt lat="45.8051" lon="6.73183">
        <ele>1415.68</ele>
        <time>2019-08-03T15:27:13Z</time>
      </trkpt>
      <trkpt lat="45.80511" lon="6.73187">
        <ele>1418.56</ele>
        <time>2019-08-03T15:27:21Z</time>
      </trkpt>
      <trkpt lat="45.80505" lon="6.73189">
        <ele>1421.45</ele>
        <time>2019-08-03T15:27:30Z</time>
      </trkpt>
      <trkpt lat="45.80498" lon="6.73205">
        <ele>1424.81</ele>
        <time>2019-08-03T15:27:41Z</time>
      </trkpt>
      <trkpt lat="45.80496" lon="6.7321">
        <ele>1424.81</ele>
        <time>2019-08-03T15:27:51Z</time>
      </trkpt>
      <trkpt lat="45.80489" lon="6.73193">
        <ele>1424.33</ele>
        <time>2019-08-03T15:28:57Z</time>
      </trkpt>
      <trkpt lat="45.80488" lon="6.73192">
        <ele>1423.85</ele>
        <time>2019-08-03T15:28:58Z</time>
      </trkpt>
      <trkpt lat="45.80486" lon="6.73192">
        <ele>1423.37</ele>
        <time>2019-08-03T15:28:59Z</time>
      </trkpt>
      <trkpt lat="45.80484" lon="6.73191">
        <ele>1423.37</ele>
        <time>2019-08-03T15:29:00Z</time>
      </trkpt>
      <trkpt lat="45.80483" lon="6.73191">
        <ele>1422.89</ele>
        <time>2019-08-03T15:29:01Z</time>
      </trkpt>
      <trkpt lat="45.80481" lon="6.73191">
        <ele>1422.41</ele>
        <time>2019-08-03T15:29:02Z</time>
      </trkpt>
      <trkpt lat="45.80479" lon="6.73192">
        <ele>1422.41</ele>
        <time>2019-08-03T15:29:03Z</time>
      </trkpt>
      <trkpt lat="45.80478" lon="6.73193">
        <ele>1422.41</ele>
        <time>2019-08-03T15:29:04Z</time>
      </trkpt>
      <trkpt lat="45.80476" lon="6.73194">
        <ele>1421.93</ele>
        <time>2019-08-03T15:29:05Z</time>
      </trkpt>
      <trkpt lat="45.80475" lon="6.73196">
        <ele>1421.93</ele>
        <time>2019-08-03T15:29:06Z</time>
      </trkpt>
      <trkpt lat="45.80472" lon="6.73203">
        <ele>1420</ele>
        <time>2019-08-03T15:29:09Z</time>
      </trkpt>
      <trkpt lat="45.80472" lon="6.73207">
        <ele>1419.52</ele>
        <time>2019-08-03T15:29:10Z</time>
      </trkpt>
      <trkpt lat="45.80467" lon="6.73216">
        <ele>1418.08</ele>
        <time>2019-08-03T15:29:13Z</time>
      </trkpt>
      <trkpt lat="45.80466" lon="6.73217">
        <ele>1417.6</ele>
        <time>2019-08-03T15:29:14Z</time>
      </trkpt>
      <trkpt lat="45.80465" lon="6.73218">
        <ele>1417.6</ele>
        <time>2019-08-03T15:29:21Z</time>
      </trkpt>
      <trkpt lat="45.80465" lon="6.73218">
        <ele>1417.12</ele>
        <time>2019-08-03T15:29:30Z</time>
      </trkpt>
      <trkpt lat="45.80464" lon="6.73218">
        <ele>1417.12</ele>
        <time>2019-08-03T15:29:33Z</time>
      </trkpt>
      <trkpt lat="45.8045" lon="6.73201">
        <ele>1414.24</ele>
        <time>2019-08-03T15:30:08Z</time>
      </trkpt>
      <trkpt lat="45.80441" lon="6.73181">
        <ele>1410.87</ele>
        <time>2019-08-03T15:30:15Z</time>
      </trkpt>
      <trkpt lat="45.80433" lon="6.73168">
        <ele>1408.95</ele>
        <time>2019-08-03T15:30:19Z</time>
      </trkpt>
      <trkpt lat="45.80423" lon="6.7316">
        <ele>1409.43</ele>
        <time>2019-08-03T15:30:25Z</time>
      </trkpt>
      <trkpt lat="45.80421" lon="6.73159">
        <ele>1409.91</ele>
        <time>2019-08-03T15:30:26Z</time>
      </trkpt>
      <trkpt lat="45.80419" lon="6.73158">
        <ele>1409.91</ele>
        <time>2019-08-03T15:30:27Z</time>
      </trkpt>
      <trkpt lat="45.80417" lon="6.73156">
        <ele>1409.91</ele>
        <time>2019-08-03T15:30:28Z</time>
      </trkpt>
      <trkpt lat="45.80415" lon="6.73155">
        <ele>1410.39</ele>
        <time>2019-08-03T15:30:29Z</time>
      </trkpt>
      <trkpt lat="45.80413" lon="6.73154">
        <ele>1410.39</ele>
        <time>2019-08-03T15:30:30Z</time>
      </trkpt>
      <trkpt lat="45.80411" lon="6.73154">
        <ele>1410.87</ele>
        <time>2019-08-03T15:30:31Z</time>
      </trkpt>
      <trkpt lat="45.80409" lon="6.73154">
        <ele>1410.87</ele>
        <time>2019-08-03T15:30:32Z</time>
      </trkpt>
      <trkpt lat="45.80408" lon="6.73153">
        <ele>1411.83</ele>
        <time>2019-08-03T15:30:33Z</time>
      </trkpt>
      <trkpt lat="45.80406" lon="6.73153">
        <ele>1411.83</ele>
        <time>2019-08-03T15:30:34Z</time>
      </trkpt>
      <trkpt lat="45.80405" lon="6.73153">
        <ele>1412.31</ele>
        <time>2019-08-03T15:30:35Z</time>
      </trkpt>
      <trkpt lat="45.80403" lon="6.73152">
        <ele>1412.31</ele>
        <time>2019-08-03T15:30:36Z</time>
      </trkpt>
      <trkpt lat="45.80402" lon="6.73151">
        <ele>1412.79</ele>
        <time>2019-08-03T15:30:37Z</time>
      </trkpt>
      <trkpt lat="45.80401" lon="6.73151">
        <ele>1412.79</ele>
        <time>2019-08-03T15:30:38Z</time>
      </trkpt>
      <trkpt lat="45.80399" lon="6.7315">
        <ele>1413.28</ele>
        <time>2019-08-03T15:30:39Z</time>
      </trkpt>
      <trkpt lat="45.80398" lon="6.73149">
        <ele>1413.76</ele>
        <time>2019-08-03T15:30:40Z</time>
      </trkpt>
      <trkpt lat="45.80397" lon="6.73148">
        <ele>1414.24</ele>
        <time>2019-08-03T15:30:41Z</time>
      </trkpt>
      <trkpt lat="45.80396" lon="6.73147">
        <ele>1414.72</ele>
        <time>2019-08-03T15:30:42Z</time>
      </trkpt>
      <trkpt lat="45.80388" lon="6.73148">
        <ele>1415.68</ele>
        <time>2019-08-03T15:30:50Z</time>
      </trkpt>
      <trkpt lat="45.80387" lon="6.73148">
        <ele>1415.68</ele>
        <time>2019-08-03T15:30:51Z</time>
      </trkpt>
      <trkpt lat="45.80355" lon="6.73153">
        <ele>1416.16</ele>
        <time>2019-08-03T15:31:06Z</time>
      </trkpt>
      <trkpt lat="45.80337" lon="6.73162">
        <ele>1413.76</ele>
        <time>2019-08-03T15:31:13Z</time>
      </trkpt>
      <trkpt lat="45.80335" lon="6.73164">
        <ele>1412.79</ele>
        <time>2019-08-03T15:31:14Z</time>
      </trkpt>
      <trkpt lat="45.80333" lon="6.73166">
        <ele>1412.79</ele>
        <time>2019-08-03T15:31:15Z</time>
      </trkpt>
      <trkpt lat="45.80331" lon="6.73167">
        <ele>1412.31</ele>
        <time>2019-08-03T15:31:16Z</time>
      </trkpt>
      <trkpt lat="45.80329" lon="6.73167">
        <ele>1411.35</ele>
        <time>2019-08-03T15:31:17Z</time>
      </trkpt>
      <trkpt lat="45.80326" lon="6.73165">
        <ele>1410.39</ele>
        <time>2019-08-03T15:31:18Z</time>
      </trkpt>
      <trkpt lat="45.80323" lon="6.73166">
        <ele>1409.91</ele>
        <time>2019-08-03T15:31:19Z</time>
      </trkpt>
      <trkpt lat="45.80322" lon="6.73166">
        <ele>1409.43</ele>
        <time>2019-08-03T15:31:20Z</time>
      </trkpt>
      <trkpt lat="45.80318" lon="6.73164">
        <ele>1409.43</ele>
        <time>2019-08-03T15:31:21Z</time>
      </trkpt>
      <trkpt lat="45.80316" lon="6.73163">
        <ele>1409.43</ele>
        <time>2019-08-03T15:31:22Z</time>
      </trkpt>
      <trkpt lat="45.80313" lon="6.73162">
        <ele>1409.43</ele>
        <time>2019-08-03T15:31:23Z</time>
      </trkpt>
      <trkpt lat="45.80312" lon="6.73161">
        <ele>1409.43</ele>
        <time>2019-08-03T15:31:25Z</time>
      </trkpt>
      <trkpt lat="45.80309" lon="6.73161">
        <ele>1409.91</ele>
        <time>2019-08-03T15:31:26Z</time>
      </trkpt>
      <trkpt lat="45.80308" lon="6.73159">
        <ele>1409.91</ele>
        <time>2019-08-03T15:31:27Z</time>
      </trkpt>
      <trkpt lat="45.80307" lon="6.73157">
        <ele>1410.39</ele>
        <time>2019-08-03T15:31:28Z</time>
      </trkpt>
      <trkpt lat="45.80304" lon="6.73154">
        <ele>1410.39</ele>
        <time>2019-08-03T15:31:29Z</time>
      </trkpt>
      <trkpt lat="45.80303" lon="6.73152">
        <ele>1410.39</ele>
        <time>2019-08-03T15:31:30Z</time>
      </trkpt>
      <trkpt lat="45.80301" lon="6.7315">
        <ele>1410.39</ele>
        <time>2019-08-03T15:31:31Z</time>
      </trkpt>
      <trkpt lat="45.80279" lon="6.73123">
        <ele>1407.99</ele>
        <time>2019-08-03T15:31:41Z</time>
      </trkpt>
      <trkpt lat="45.80257" lon="6.73098">
        <ele>1407.99</ele>
        <time>2019-08-03T15:31:50Z</time>
      </trkpt>
      <trkpt lat="45.80238" lon="6.73082">
        <ele>1405.58</ele>
        <time>2019-08-03T15:32:05Z</time>
      </trkpt>
      <trkpt lat="45.80237" lon="6.73079">
        <ele>1405.58</ele>
        <time>2019-08-03T15:32:15Z</time>
      </trkpt>
      <trkpt lat="45.80228" lon="6.73077">
        <ele>1403.18</ele>
        <time>2019-08-03T15:33:22Z</time>
      </trkpt>
      <trkpt lat="45.80227" lon="6.73077">
        <ele>1402.7</ele>
        <time>2019-08-03T15:33:23Z</time>
      </trkpt>
      <trkpt lat="45.80226" lon="6.73077">
        <ele>1402.22</ele>
        <time>2019-08-03T15:33:24Z</time>
      </trkpt>
      <trkpt lat="45.80224" lon="6.73075">
        <ele>1401.74</ele>
        <time>2019-08-03T15:33:25Z</time>
      </trkpt>
      <trkpt lat="45.80223" lon="6.73073">
        <ele>1401.26</ele>
        <time>2019-08-03T15:33:26Z</time>
      </trkpt>
      <trkpt lat="45.80221" lon="6.7307">
        <ele>1400.3</ele>
        <time>2019-08-03T15:33:27Z</time>
      </trkpt>
      <trkpt lat="45.8022" lon="6.73067">
        <ele>1400.3</ele>
        <time>2019-08-03T15:33:28Z</time>
      </trkpt>
      <trkpt lat="45.80218" lon="6.73064">
        <ele>1399.82</ele>
        <time>2019-08-03T15:33:29Z</time>
      </trkpt>
      <trkpt lat="45.80209" lon="6.73052">
        <ele>1396.45</ele>
        <time>2019-08-03T15:33:34Z</time>
      </trkpt>
      <trkpt lat="45.80191" lon="6.73034">
        <ele>1395.01</ele>
        <time>2019-08-03T15:33:43Z</time>
      </trkpt>
      <trkpt lat="45.80189" lon="6.73034">
        <ele>1395.01</ele>
        <time>2019-08-03T15:33:44Z</time>
      </trkpt>
      <trkpt lat="45.80188" lon="6.73035">
        <ele>1395.01</ele>
        <time>2019-08-03T15:33:45Z</time>
      </trkpt>
      <trkpt lat="45.80186" lon="6.73035">
        <ele>1395.01</ele>
        <time>2019-08-03T15:33:46Z</time>
      </trkpt>
      <trkpt lat="45.80184" lon="6.73033">
        <ele>1395.01</ele>
        <time>2019-08-03T15:33:47Z</time>
      </trkpt>
      <trkpt lat="45.80182" lon="6.73031">
        <ele>1395.01</ele>
        <time>2019-08-03T15:33:48Z</time>
      </trkpt>
      <trkpt lat="45.80175" lon="6.73024">
        <ele>1393.57</ele>
        <time>2019-08-03T15:33:53Z</time>
      </trkpt>
      <trkpt lat="45.80173" lon="6.73023">
        <ele>1393.09</ele>
        <time>2019-08-03T15:33:54Z</time>
      </trkpt>
      <trkpt lat="45.80157" lon="6.73016">
        <ele>1393.09</ele>
        <time>2019-08-03T15:34:01Z</time>
      </trkpt>
      <trkpt lat="45.80155" lon="6.73014">
        <ele>1393.09</ele>
        <time>2019-08-03T15:34:02Z</time>
      </trkpt>
      <trkpt lat="45.80154" lon="6.73013">
        <ele>1393.09</ele>
        <time>2019-08-03T15:34:03Z</time>
      </trkpt>
      <trkpt lat="45.80134" lon="6.72995">
        <ele>1392.61</ele>
        <time>2019-08-03T15:34:14Z</time>
      </trkpt>
      <trkpt lat="45.80132" lon="6.72995">
        <ele>1392.61</ele>
        <time>2019-08-03T15:34:15Z</time>
      </trkpt>
      <trkpt lat="45.8013" lon="6.72994">
        <ele>1393.09</ele>
        <time>2019-08-03T15:34:16Z</time>
      </trkpt>
      <trkpt lat="45.80108" lon="6.72979">
        <ele>1392.61</ele>
        <time>2019-08-03T15:34:28Z</time>
      </trkpt>
      <trkpt lat="45.80104" lon="6.72977">
        <ele>1391.17</ele>
        <time>2019-08-03T15:34:31Z</time>
      </trkpt>
      <trkpt lat="45.80102" lon="6.72975">
        <ele>1390.68</ele>
        <time>2019-08-03T15:34:32Z</time>
      </trkpt>
      <trkpt lat="45.801" lon="6.72975">
        <ele>1389.72</ele>
        <time>2019-08-03T15:34:33Z</time>
      </trkpt>
      <trkpt lat="45.80097" lon="6.72975">
        <ele>1389.24</ele>
        <time>2019-08-03T15:34:34Z</time>
      </trkpt>
      <trkpt lat="45.80095" lon="6.72974">
        <ele>1388.76</ele>
        <time>2019-08-03T15:34:35Z</time>
      </trkpt>
      <trkpt lat="45.80093" lon="6.72974">
        <ele>1388.76</ele>
        <time>2019-08-03T15:34:36Z</time>
      </trkpt>
      <trkpt lat="45.80091" lon="6.72972">
        <ele>1388.76</ele>
        <time>2019-08-03T15:34:37Z</time>
      </trkpt>
      <trkpt lat="45.80088" lon="6.7297">
        <ele>1388.76</ele>
        <time>2019-08-03T15:34:38Z</time>
      </trkpt>
      <trkpt lat="45.80086" lon="6.72968">
        <ele>1388.76</ele>
        <time>2019-08-03T15:34:39Z</time>
      </trkpt>
      <trkpt lat="45.80084" lon="6.72966">
        <ele>1388.28</ele>
        <time>2019-08-03T15:34:40Z</time>
      </trkpt>
      <trkpt lat="45.80073" lon="6.72962">
        <ele>1386.84</ele>
        <time>2019-08-03T15:34:44Z</time>
      </trkpt>
      <trkpt lat="45.80069" lon="6.72963">
        <ele>1386.84</ele>
        <time>2019-08-03T15:34:46Z</time>
      </trkpt>
      <trkpt lat="45.80067" lon="6.72964">
        <ele>1386.84</ele>
        <time>2019-08-03T15:34:47Z</time>
      </trkpt>
      <trkpt lat="45.80064" lon="6.72964">
        <ele>1386.84</ele>
        <time>2019-08-03T15:34:48Z</time>
      </trkpt>
      <trkpt lat="45.80063" lon="6.72964">
        <ele>1386.36</ele>
        <time>2019-08-03T15:34:49Z</time>
      </trkpt>
      <trkpt lat="45.80061" lon="6.72963">
        <ele>1386.36</ele>
        <time>2019-08-03T15:34:50Z</time>
      </trkpt>
      <trkpt lat="45.80059" lon="6.72962">
        <ele>1385.88</ele>
        <time>2019-08-03T15:34:51Z</time>
      </trkpt>
      <trkpt lat="45.80056" lon="6.7296">
        <ele>1385.4</ele>
        <time>2019-08-03T15:34:53Z</time>
      </trkpt>
      <trkpt lat="45.80054" lon="6.72959">
        <ele>1384.92</ele>
        <time>2019-08-03T15:34:54Z</time>
      </trkpt>
      <trkpt lat="45.80052" lon="6.72957">
        <ele>1384.44</ele>
        <time>2019-08-03T15:34:55Z</time>
      </trkpt>
      <trkpt lat="45.8005" lon="6.72957">
        <ele>1384.44</ele>
        <time>2019-08-03T15:34:56Z</time>
      </trkpt>
      <trkpt lat="45.80048" lon="6.72957">
        <ele>1384.44</ele>
        <time>2019-08-03T15:34:57Z</time>
      </trkpt>
      <trkpt lat="45.80042" lon="6.72953">
        <ele>1382.03</ele>
        <time>2019-08-03T15:35:01Z</time>
      </trkpt>
      <trkpt lat="45.8004" lon="6.72953">
        <ele>1382.51</ele>
        <time>2019-08-03T15:35:02Z</time>
      </trkpt>
      <trkpt lat="45.80037" lon="6.72953">
        <ele>1382.99</ele>
        <time>2019-08-03T15:35:03Z</time>
      </trkpt>
      <trkpt lat="45.80027" lon="6.72951">
        <ele>1384.92</ele>
        <time>2019-08-03T15:35:08Z</time>
      </trkpt>
      <trkpt lat="45.80026" lon="6.72951">
        <ele>1385.4</ele>
        <time>2019-08-03T15:35:09Z</time>
      </trkpt>
      <trkpt lat="45.80024" lon="6.72951">
        <ele>1385.4</ele>
        <time>2019-08-03T15:35:10Z</time>
      </trkpt>
      <trkpt lat="45.80023" lon="6.7295">
        <ele>1385.4</ele>
        <time>2019-08-03T15:35:11Z</time>
      </trkpt>
      <trkpt lat="45.80021" lon="6.7295">
        <ele>1385.88</ele>
        <time>2019-08-03T15:35:12Z</time>
      </trkpt>
      <trkpt lat="45.8002" lon="6.72949">
        <ele>1385.88</ele>
        <time>2019-08-03T15:35:13Z</time>
      </trkpt>
      <trkpt lat="45.80005" lon="6.72941">
        <ele>1385.4</ele>
        <time>2019-08-03T15:35:22Z</time>
      </trkpt>
      <trkpt lat="45.79987" lon="6.72928">
        <ele>1383.47</ele>
        <time>2019-08-03T15:35:33Z</time>
      </trkpt>
      <trkpt lat="45.79985" lon="6.72928">
        <ele>1383.96</ele>
        <time>2019-08-03T15:35:34Z</time>
      </trkpt>
      <trkpt lat="45.79982" lon="6.72926">
        <ele>1384.44</ele>
        <time>2019-08-03T15:35:35Z</time>
      </trkpt>
      <trkpt lat="45.79981" lon="6.72926">
        <ele>1384.44</ele>
        <time>2019-08-03T15:35:36Z</time>
      </trkpt>
      <trkpt lat="45.79979" lon="6.72925">
        <ele>1384.92</ele>
        <time>2019-08-03T15:35:37Z</time>
      </trkpt>
      <trkpt lat="45.79977" lon="6.72923">
        <ele>1384.92</ele>
        <time>2019-08-03T15:35:38Z</time>
      </trkpt>
      <trkpt lat="45.79975" lon="6.72922">
        <ele>1385.4</ele>
        <time>2019-08-03T15:35:39Z</time>
      </trkpt>
      <trkpt lat="45.79973" lon="6.7292">
        <ele>1385.4</ele>
        <time>2019-08-03T15:35:40Z</time>
      </trkpt>
      <trkpt lat="45.79971" lon="6.72918">
        <ele>1385.4</ele>
        <time>2019-08-03T15:35:41Z</time>
      </trkpt>
      <trkpt lat="45.79969" lon="6.72917">
        <ele>1385.4</ele>
        <time>2019-08-03T15:35:42Z</time>
      </trkpt>
      <trkpt lat="45.79965" lon="6.72915">
        <ele>1384.44</ele>
        <time>2019-08-03T15:35:45Z</time>
      </trkpt>
      <trkpt lat="45.79963" lon="6.72917">
        <ele>1383.47</ele>
        <time>2019-08-03T15:35:48Z</time>
      </trkpt>
      <trkpt lat="45.79961" lon="6.72917">
        <ele>1382.99</ele>
        <time>2019-08-03T15:35:49Z</time>
      </trkpt>
      <trkpt lat="45.79958" lon="6.72915">
        <ele>1382.03</ele>
        <time>2019-08-03T15:35:50Z</time>
      </trkpt>
      <trkpt lat="45.79956" lon="6.72914">
        <ele>1382.03</ele>
        <time>2019-08-03T15:35:51Z</time>
      </trkpt>
      <trkpt lat="45.79954" lon="6.72913">
        <ele>1381.55</ele>
        <time>2019-08-03T15:35:52Z</time>
      </trkpt>
      <trkpt lat="45.79952" lon="6.72911">
        <ele>1381.55</ele>
        <time>2019-08-03T15:35:53Z</time>
      </trkpt>
      <trkpt lat="45.7995" lon="6.72909">
        <ele>1381.07</ele>
        <time>2019-08-03T15:35:54Z</time>
      </trkpt>
      <trkpt lat="45.79948" lon="6.72906">
        <ele>1381.07</ele>
        <time>2019-08-03T15:35:55Z</time>
      </trkpt>
      <trkpt lat="45.79945" lon="6.72905">
        <ele>1380.59</ele>
        <time>2019-08-03T15:35:56Z</time>
      </trkpt>
      <trkpt lat="45.79943" lon="6.72904">
        <ele>1380.11</ele>
        <time>2019-08-03T15:35:57Z</time>
      </trkpt>
      <trkpt lat="45.79941" lon="6.72901">
        <ele>1380.11</ele>
        <time>2019-08-03T15:35:58Z</time>
      </trkpt>
      <trkpt lat="45.79938" lon="6.72899">
        <ele>1380.11</ele>
        <time>2019-08-03T15:35:59Z</time>
      </trkpt>
      <trkpt lat="45.79935" lon="6.72897">
        <ele>1379.63</ele>
        <time>2019-08-03T15:36:00Z</time>
      </trkpt>
      <trkpt lat="45.79933" lon="6.72896">
        <ele>1379.63</ele>
        <time>2019-08-03T15:36:01Z</time>
      </trkpt>
      <trkpt lat="45.79931" lon="6.72896">
        <ele>1379.63</ele>
        <time>2019-08-03T15:36:02Z</time>
      </trkpt>
      <trkpt lat="45.79929" lon="6.72893">
        <ele>1379.15</ele>
        <time>2019-08-03T15:36:03Z</time>
      </trkpt>
      <trkpt lat="45.79927" lon="6.72891">
        <ele>1379.15</ele>
        <time>2019-08-03T15:36:04Z</time>
      </trkpt>
      <trkpt lat="45.79922" lon="6.72885">
        <ele>1378.19</ele>
        <time>2019-08-03T15:36:07Z</time>
      </trkpt>
      <trkpt lat="45.79921" lon="6.72884">
        <ele>1377.71</ele>
        <time>2019-08-03T15:36:08Z</time>
      </trkpt>
      <trkpt lat="45.79918" lon="6.72882">
        <ele>1377.23</ele>
        <time>2019-08-03T15:36:09Z</time>
      </trkpt>
      <trkpt lat="45.79907" lon="6.72873">
        <ele>1373.38</ele>
        <time>2019-08-03T15:36:14Z</time>
      </trkpt>
      <trkpt lat="45.79895" lon="6.72872">
        <ele>1372.42</ele>
        <time>2019-08-03T15:36:19Z</time>
      </trkpt>
      <trkpt lat="45.79892" lon="6.7287">
        <ele>1371.94</ele>
        <time>2019-08-03T15:36:20Z</time>
      </trkpt>
      <trkpt lat="45.79889" lon="6.72869">
        <ele>1371.46</ele>
        <time>2019-08-03T15:36:21Z</time>
      </trkpt>
      <trkpt lat="45.79887" lon="6.72868">
        <ele>1371.46</ele>
        <time>2019-08-03T15:36:22Z</time>
      </trkpt>
      <trkpt lat="45.79885" lon="6.72868">
        <ele>1371.46</ele>
        <time>2019-08-03T15:36:23Z</time>
      </trkpt>
      <trkpt lat="45.79882" lon="6.72868">
        <ele>1371.46</ele>
        <time>2019-08-03T15:36:24Z</time>
      </trkpt>
      <trkpt lat="45.79869" lon="6.72865">
        <ele>1372.42</ele>
        <time>2019-08-03T15:36:32Z</time>
      </trkpt>
      <trkpt lat="45.79865" lon="6.72865">
        <ele>1372.42</ele>
        <time>2019-08-03T15:36:34Z</time>
      </trkpt>
      <trkpt lat="45.79861" lon="6.72863">
        <ele>1372.42</ele>
        <time>2019-08-03T15:36:36Z</time>
      </trkpt>
      <trkpt lat="45.79858" lon="6.7286">
        <ele>1372.42</ele>
        <time>2019-08-03T15:36:37Z</time>
      </trkpt>
      <trkpt lat="45.79854" lon="6.72859">
        <ele>1371.94</ele>
        <time>2019-08-03T15:36:38Z</time>
      </trkpt>
      <trkpt lat="45.79851" lon="6.72857">
        <ele>1371.94</ele>
        <time>2019-08-03T15:36:39Z</time>
      </trkpt>
      <trkpt lat="45.79848" lon="6.72855">
        <ele>1371.46</ele>
        <time>2019-08-03T15:36:40Z</time>
      </trkpt>
      <trkpt lat="45.79846" lon="6.72853">
        <ele>1370.98</ele>
        <time>2019-08-03T15:36:41Z</time>
      </trkpt>
      <trkpt lat="45.79824" lon="6.72835">
        <ele>1370.98</ele>
        <time>2019-08-03T15:36:54Z</time>
      </trkpt>
      <trkpt lat="45.79806" lon="6.72829">
        <ele>1373.38</ele>
        <time>2019-08-03T15:37:40Z</time>
      </trkpt>
      <trkpt lat="45.79806" lon="6.72833">
        <ele>1372.9</ele>
        <time>2019-08-03T15:38:31Z</time>
      </trkpt>
      <trkpt lat="45.79803" lon="6.72831">
        <ele>1372.9</ele>
        <time>2019-08-03T15:38:44Z</time>
      </trkpt>
      <trkpt lat="45.79801" lon="6.7283">
        <ele>1372.9</ele>
        <time>2019-08-03T15:38:50Z</time>
      </trkpt>
      <trkpt lat="45.798" lon="6.72829">
        <ele>1372.9</ele>
        <time>2019-08-03T15:38:51Z</time>
      </trkpt>
      <trkpt lat="45.79807" lon="6.72828">
        <ele>1373.38</ele>
        <time>2019-08-03T15:39:33Z</time>
      </trkpt>
      <trkpt lat="45.79804" lon="6.72825">
        <ele>1372.9</ele>
        <time>2019-08-03T15:39:44Z</time>
      </trkpt>
      <trkpt lat="45.79803" lon="6.72826">
        <ele>1372.9</ele>
        <time>2019-08-03T15:39:46Z</time>
      </trkpt>
      <trkpt lat="45.79813" lon="6.72842">
        <ele>1372.9</ele>
        <time>2019-08-03T15:40:02Z</time>
      </trkpt>
      <trkpt lat="45.79816" lon="6.72848">
        <ele>1373.38</ele>
        <time>2019-08-03T15:40:06Z</time>
      </trkpt>
      <trkpt lat="45.79801" lon="6.72837">
        <ele>1374.82</ele>
        <time>2019-08-03T15:40:19Z</time>
      </trkpt>
      <trkpt lat="45.79786" lon="6.72835">
        <ele>1375.78</ele>
        <time>2019-08-03T15:40:35Z</time>
      </trkpt>
      <trkpt lat="45.79785" lon="6.72836">
        <ele>1375.78</ele>
        <time>2019-08-03T15:40:36Z</time>
      </trkpt>
      <trkpt lat="45.79771" lon="6.72839">
        <ele>1375.3</ele>
        <time>2019-08-03T15:40:50Z</time>
      </trkpt>
      <trkpt lat="45.79746" lon="6.72846">
        <ele>1376.26</ele>
        <time>2019-08-03T15:41:10Z</time>
      </trkpt>
      <trkpt lat="45.7973" lon="6.72843">
        <ele>1379.15</ele>
        <time>2019-08-03T15:41:20Z</time>
      </trkpt>
      <trkpt lat="45.79727" lon="6.72839">
        <ele>1380.11</ele>
        <time>2019-08-03T15:41:23Z</time>
      </trkpt>
      <trkpt lat="45.79726" lon="6.72837">
        <ele>1380.59</ele>
        <time>2019-08-03T15:41:24Z</time>
      </trkpt>
      <trkpt lat="45.79724" lon="6.72835">
        <ele>1381.55</ele>
        <time>2019-08-03T15:41:26Z</time>
      </trkpt>
      <trkpt lat="45.79719" lon="6.72831">
        <ele>1382.99</ele>
        <time>2019-08-03T15:41:31Z</time>
      </trkpt>
      <trkpt lat="45.79719" lon="6.7283">
        <ele>1382.99</ele>
        <time>2019-08-03T15:41:32Z</time>
      </trkpt>
      <trkpt lat="45.79705" lon="6.72817">
        <ele>1386.36</ele>
        <time>2019-08-03T15:41:41Z</time>
      </trkpt>
      <trkpt lat="45.79704" lon="6.72817">
        <ele>1386.84</ele>
        <time>2019-08-03T15:41:42Z</time>
      </trkpt>
      <trkpt lat="45.79699" lon="6.72812">
        <ele>1387.8</ele>
        <time>2019-08-03T15:41:46Z</time>
      </trkpt>
      <trkpt lat="45.79698" lon="6.72811">
        <ele>1388.28</ele>
        <time>2019-08-03T15:41:47Z</time>
      </trkpt>
      <trkpt lat="45.79695" lon="6.72804">
        <ele>1389.24</ele>
        <time>2019-08-03T15:41:51Z</time>
      </trkpt>
      <trkpt lat="45.79691" lon="6.72799">
        <ele>1391.17</ele>
        <time>2019-08-03T15:41:58Z</time>
      </trkpt>
      <trkpt lat="45.79689" lon="6.72796">
        <ele>1391.17</ele>
        <time>2019-08-03T15:41:59Z</time>
      </trkpt>
      <trkpt lat="45.79688" lon="6.72795">
        <ele>1391.17</ele>
        <time>2019-08-03T15:42:00Z</time>
      </trkpt>
      <trkpt lat="45.7967" lon="6.72779">
        <ele>1393.09</ele>
        <time>2019-08-03T15:42:15Z</time>
      </trkpt>
      <trkpt lat="45.79669" lon="6.72777">
        <ele>1393.09</ele>
        <time>2019-08-03T15:42:16Z</time>
      </trkpt>
      <trkpt lat="45.79668" lon="6.72776">
        <ele>1393.57</ele>
        <time>2019-08-03T15:42:17Z</time>
      </trkpt>
      <trkpt lat="45.79667" lon="6.72774">
        <ele>1393.57</ele>
        <time>2019-08-03T15:42:18Z</time>
      </trkpt>
      <trkpt lat="45.79666" lon="6.72773">
        <ele>1393.57</ele>
        <time>2019-08-03T15:42:19Z</time>
      </trkpt>
      <trkpt lat="45.7966" lon="6.72768">
        <ele>1394.53</ele>
        <time>2019-08-03T15:42:23Z</time>
      </trkpt>
      <trkpt lat="45.7966" lon="6.72766">
        <ele>1395.01</ele>
        <time>2019-08-03T15:42:24Z</time>
      </trkpt>
      <trkpt lat="45.79659" lon="6.72765">
        <ele>1395.01</ele>
        <time>2019-08-03T15:42:25Z</time>
      </trkpt>
      <trkpt lat="45.79634" lon="6.72736">
        <ele>1396.45</ele>
        <time>2019-08-03T15:42:40Z</time>
      </trkpt>
      <trkpt lat="45.79627" lon="6.72727">
        <ele>1398.37</ele>
        <time>2019-08-03T15:42:44Z</time>
      </trkpt>
      <trkpt lat="45.79626" lon="6.72725">
        <ele>1398.37</ele>
        <time>2019-08-03T15:42:45Z</time>
      </trkpt>
      <trkpt lat="45.79625" lon="6.72723">
        <ele>1399.34</ele>
        <time>2019-08-03T15:42:46Z</time>
      </trkpt>
      <trkpt lat="45.79624" lon="6.72721">
        <ele>1399.82</ele>
        <time>2019-08-03T15:42:47Z</time>
      </trkpt>
      <trkpt lat="45.79616" lon="6.72708">
        <ele>1402.7</ele>
        <time>2019-08-03T15:42:55Z</time>
      </trkpt>
      <trkpt lat="45.79609" lon="6.72688">
        <ele>1403.18</ele>
        <time>2019-08-03T15:43:02Z</time>
      </trkpt>
      <trkpt lat="45.79609" lon="6.72685">
        <ele>1403.18</ele>
        <time>2019-08-03T15:43:03Z</time>
      </trkpt>
      <trkpt lat="45.79604" lon="6.72676">
        <ele>1406.07</ele>
        <time>2019-08-03T15:43:11Z</time>
      </trkpt>
      <trkpt lat="45.79592" lon="6.72658">
        <ele>1409.43</ele>
        <time>2019-08-03T15:43:25Z</time>
      </trkpt>
      <trkpt lat="45.79585" lon="6.72648">
        <ele>1410.39</ele>
        <time>2019-08-03T15:43:31Z</time>
      </trkpt>
      <trkpt lat="45.79574" lon="6.72636">
        <ele>1412.79</ele>
        <time>2019-08-03T15:43:41Z</time>
      </trkpt>
      <trkpt lat="45.79573" lon="6.72632">
        <ele>1412.79</ele>
        <time>2019-08-03T15:43:42Z</time>
      </trkpt>
      <trkpt lat="45.79571" lon="6.72628">
        <ele>1412.79</ele>
        <time>2019-08-03T15:43:43Z</time>
      </trkpt>
      <trkpt lat="45.7957" lon="6.72625">
        <ele>1413.28</ele>
        <time>2019-08-03T15:43:44Z</time>
      </trkpt>
      <trkpt lat="45.79568" lon="6.72623">
        <ele>1413.28</ele>
        <time>2019-08-03T15:43:45Z</time>
      </trkpt>
      <trkpt lat="45.79567" lon="6.72621">
        <ele>1413.76</ele>
        <time>2019-08-03T15:43:46Z</time>
      </trkpt>
      <trkpt lat="45.79567" lon="6.72618">
        <ele>1414.24</ele>
        <time>2019-08-03T15:43:47Z</time>
      </trkpt>
      <trkpt lat="45.79563" lon="6.72604">
        <ele>1417.6</ele>
        <time>2019-08-03T15:43:57Z</time>
      </trkpt>
      <trkpt lat="45.79561" lon="6.72602">
        <ele>1418.08</ele>
        <time>2019-08-03T15:43:59Z</time>
      </trkpt>
      <trkpt lat="45.7956" lon="6.726">
        <ele>1418.08</ele>
        <time>2019-08-03T15:44:00Z</time>
      </trkpt>
      <trkpt lat="45.7955" lon="6.72579">
        <ele>1420.97</ele>
        <time>2019-08-03T15:44:14Z</time>
      </trkpt>
      <trkpt lat="45.79549" lon="6.72577">
        <ele>1421.45</ele>
        <time>2019-08-03T15:44:16Z</time>
      </trkpt>
      <trkpt lat="45.79547" lon="6.72575">
        <ele>1421.45</ele>
        <time>2019-08-03T15:44:17Z</time>
      </trkpt>
      <trkpt lat="45.79537" lon="6.72556">
        <ele>1420.97</ele>
        <time>2019-08-03T15:44:38Z</time>
      </trkpt>
      <trkpt lat="45.79537" lon="6.72554">
        <ele>1421.45</ele>
        <time>2019-08-03T15:44:39Z</time>
      </trkpt>
      <trkpt lat="45.79537" lon="6.72553">
        <ele>1421.45</ele>
        <time>2019-08-03T15:44:40Z</time>
      </trkpt>
      <trkpt lat="45.79538" lon="6.72551">
        <ele>1420.97</ele>
        <time>2019-08-03T15:44:41Z</time>
      </trkpt>
      <trkpt lat="45.79538" lon="6.72549">
        <ele>1420.49</ele>
        <time>2019-08-03T15:44:42Z</time>
      </trkpt>
      <trkpt lat="45.79536" lon="6.72545">
        <ele>1420.49</ele>
        <time>2019-08-03T15:44:46Z</time>
      </trkpt>
      <trkpt lat="45.79535" lon="6.72544">
        <ele>1420.49</ele>
        <time>2019-08-03T15:44:47Z</time>
      </trkpt>
      <trkpt lat="45.79535" lon="6.72542">
        <ele>1420.49</ele>
        <time>2019-08-03T15:44:48Z</time>
      </trkpt>
      <trkpt lat="45.79534" lon="6.72541">
        <ele>1420.49</ele>
        <time>2019-08-03T15:44:49Z</time>
      </trkpt>
      <trkpt lat="45.79533" lon="6.72539">
        <ele>1420.97</ele>
        <time>2019-08-03T15:44:50Z</time>
      </trkpt>
      <trkpt lat="45.79532" lon="6.72537">
        <ele>1420.97</ele>
        <time>2019-08-03T15:44:51Z</time>
      </trkpt>
      <trkpt lat="45.79532" lon="6.72533">
        <ele>1420.97</ele>
        <time>2019-08-03T15:44:52Z</time>
      </trkpt>
      <trkpt lat="45.79531" lon="6.72531">
        <ele>1420.97</ele>
        <time>2019-08-03T15:44:53Z</time>
      </trkpt>
      <trkpt lat="45.79516" lon="6.72502">
        <ele>1422.89</ele>
        <time>2019-08-03T15:45:05Z</time>
      </trkpt>
      <trkpt lat="45.79513" lon="6.72496">
        <ele>1422.89</ele>
        <time>2019-08-03T15:45:07Z</time>
      </trkpt>
      <trkpt lat="45.79512" lon="6.72494">
        <ele>1423.37</ele>
        <time>2019-08-03T15:45:08Z</time>
      </trkpt>
      <trkpt lat="45.79511" lon="6.72492">
        <ele>1422.89</ele>
        <time>2019-08-03T15:45:09Z</time>
      </trkpt>
      <trkpt lat="45.79507" lon="6.72484">
        <ele>1422.89</ele>
        <time>2019-08-03T15:45:13Z</time>
      </trkpt>
      <trkpt lat="45.79506" lon="6.72482">
        <ele>1422.89</ele>
        <time>2019-08-03T15:45:14Z</time>
      </trkpt>
      <trkpt lat="45.79506" lon="6.72479">
        <ele>1422.89</ele>
        <time>2019-08-03T15:45:15Z</time>
      </trkpt>
      <trkpt lat="45.79506" lon="6.72476">
        <ele>1422.89</ele>
        <time>2019-08-03T15:45:16Z</time>
      </trkpt>
      <trkpt lat="45.79505" lon="6.72473">
        <ele>1422.89</ele>
        <time>2019-08-03T15:45:17Z</time>
      </trkpt>
      <trkpt lat="45.79505" lon="6.72471">
        <ele>1422.41</ele>
        <time>2019-08-03T15:45:18Z</time>
      </trkpt>
      <trkpt lat="45.79501" lon="6.7246">
        <ele>1422.41</ele>
        <time>2019-08-03T15:45:22Z</time>
      </trkpt>
      <trkpt lat="45.79487" lon="6.72436">
        <ele>1423.85</ele>
        <time>2019-08-03T15:45:32Z</time>
      </trkpt>
      <trkpt lat="45.79478" lon="6.72419">
        <ele>1425.77</ele>
        <time>2019-08-03T15:45:40Z</time>
      </trkpt>
      <trkpt lat="45.79476" lon="6.72416">
        <ele>1426.25</ele>
        <time>2019-08-03T15:45:43Z</time>
      </trkpt>
      <trkpt lat="45.79475" lon="6.72414">
        <ele>1426.25</ele>
        <time>2019-08-03T15:45:45Z</time>
      </trkpt>
      <trkpt lat="45.79475" lon="6.72413">
        <ele>1425.77</ele>
        <time>2019-08-03T15:45:46Z</time>
      </trkpt>
      <trkpt lat="45.79475" lon="6.72411">
        <ele>1425.77</ele>
        <time>2019-08-03T15:45:47Z</time>
      </trkpt>
      <trkpt lat="45.79472" lon="6.72396">
        <ele>1423.85</ele>
        <time>2019-08-03T15:45:53Z</time>
      </trkpt>
      <trkpt lat="45.7947" lon="6.72394">
        <ele>1423.85</ele>
        <time>2019-08-03T15:45:54Z</time>
      </trkpt>
      <trkpt lat="45.79469" lon="6.72391">
        <ele>1423.85</ele>
        <time>2019-08-03T15:45:55Z</time>
      </trkpt>
      <trkpt lat="45.79467" lon="6.7239">
        <ele>1424.33</ele>
        <time>2019-08-03T15:45:56Z</time>
      </trkpt>
      <trkpt lat="45.79466" lon="6.72389">
        <ele>1424.81</ele>
        <time>2019-08-03T15:45:57Z</time>
      </trkpt>
      <trkpt lat="45.79465" lon="6.72389">
        <ele>1424.81</ele>
        <time>2019-08-03T15:45:58Z</time>
      </trkpt>
      <trkpt lat="45.79462" lon="6.72387">
        <ele>1425.77</ele>
        <time>2019-08-03T15:46:01Z</time>
      </trkpt>
      <trkpt lat="45.79462" lon="6.72386">
        <ele>1426.25</ele>
        <time>2019-08-03T15:46:02Z</time>
      </trkpt>
      <trkpt lat="45.7946" lon="6.72385">
        <ele>1426.73</ele>
        <time>2019-08-03T15:46:03Z</time>
      </trkpt>
      <trkpt lat="45.79455" lon="6.72382">
        <ele>1428.18</ele>
        <time>2019-08-03T15:46:08Z</time>
      </trkpt>
      <trkpt lat="45.79454" lon="6.72382">
        <ele>1428.18</ele>
        <time>2019-08-03T15:46:09Z</time>
      </trkpt>
      <trkpt lat="45.79452" lon="6.72381">
        <ele>1428.66</ele>
        <time>2019-08-03T15:46:10Z</time>
      </trkpt>
      <trkpt lat="45.79451" lon="6.7238">
        <ele>1429.14</ele>
        <time>2019-08-03T15:46:11Z</time>
      </trkpt>
      <trkpt lat="45.79445" lon="6.72371">
        <ele>1432.02</ele>
        <time>2019-08-03T15:46:24Z</time>
      </trkpt>
      <trkpt lat="45.79436" lon="6.7237">
        <ele>1435.39</ele>
        <time>2019-08-03T15:46:37Z</time>
      </trkpt>
      <trkpt lat="45.79431" lon="6.72366">
        <ele>1437.31</ele>
        <time>2019-08-03T15:46:46Z</time>
      </trkpt>
      <trkpt lat="45.79424" lon="6.72363">
        <ele>1440.19</ele>
        <time>2019-08-03T15:47:00Z</time>
      </trkpt>
      <trkpt lat="45.79423" lon="6.72363">
        <ele>1441.63</ele>
        <time>2019-08-03T15:47:06Z</time>
      </trkpt>
      <trkpt lat="45.79413" lon="6.72361">
        <ele>1445</ele>
        <time>2019-08-03T15:47:20Z</time>
      </trkpt>
      <trkpt lat="45.79413" lon="6.7236">
        <ele>1445.96</ele>
        <time>2019-08-03T15:47:23Z</time>
      </trkpt>
      <trkpt lat="45.79404" lon="6.72341">
        <ele>1448.84</ele>
        <time>2019-08-03T15:47:38Z</time>
      </trkpt>
      <trkpt lat="45.79397" lon="6.7233">
        <ele>1451.25</ele>
        <time>2019-08-03T15:47:50Z</time>
      </trkpt>
      <trkpt lat="45.79397" lon="6.72329">
        <ele>1451.25</ele>
        <time>2019-08-03T15:47:51Z</time>
      </trkpt>
      <trkpt lat="45.79397" lon="6.72327">
        <ele>1451.73</ele>
        <time>2019-08-03T15:47:52Z</time>
      </trkpt>
      <trkpt lat="45.79403" lon="6.7232">
        <ele>1450.29</ele>
        <time>2019-08-03T15:48:43Z</time>
      </trkpt>
      <trkpt lat="45.79396" lon="6.72324">
        <ele>1453.65</ele>
        <time>2019-08-03T15:49:35Z</time>
      </trkpt>
      <trkpt lat="45.79393" lon="6.72321">
        <ele>1454.61</ele>
        <time>2019-08-03T15:49:38Z</time>
      </trkpt>
      <trkpt lat="45.79382" lon="6.72315">
        <ele>1457.5</ele>
        <time>2019-08-03T15:49:49Z</time>
      </trkpt>
      <trkpt lat="45.79372" lon="6.72308">
        <ele>1460.38</ele>
        <time>2019-08-03T15:50:00Z</time>
      </trkpt>
      <trkpt lat="45.79367" lon="6.72307">
        <ele>1463.74</ele>
        <time>2019-08-03T15:50:11Z</time>
      </trkpt>
      <trkpt lat="45.79358" lon="6.72305">
        <ele>1466.63</ele>
        <time>2019-08-03T15:50:23Z</time>
      </trkpt>
      <trkpt lat="45.79356" lon="6.72305">
        <ele>1467.11</ele>
        <time>2019-08-03T15:50:24Z</time>
      </trkpt>
      <trkpt lat="45.79344" lon="6.72293">
        <ele>1469.99</ele>
        <time>2019-08-03T15:50:36Z</time>
      </trkpt>
      <trkpt lat="45.79323" lon="6.7228">
        <ele>1470.47</ele>
        <time>2019-08-03T15:51:06Z</time>
      </trkpt>
      <trkpt lat="45.79305" lon="6.72263">
        <ele>1469.03</ele>
        <time>2019-08-03T15:51:30Z</time>
      </trkpt>
      <trkpt lat="45.79286" lon="6.7226">
        <ele>1465.67</ele>
        <time>2019-08-03T15:51:38Z</time>
      </trkpt>
      <trkpt lat="45.79273" lon="6.72249">
        <ele>1462.78</ele>
        <time>2019-08-03T15:51:43Z</time>
      </trkpt>
      <trkpt lat="45.79271" lon="6.72249">
        <ele>1462.3</ele>
        <time>2019-08-03T15:51:44Z</time>
      </trkpt>
      <trkpt lat="45.7927" lon="6.72248">
        <ele>1461.82</ele>
        <time>2019-08-03T15:51:45Z</time>
      </trkpt>
      <trkpt lat="45.79262" lon="6.72248">
        <ele>1460.86</ele>
        <time>2019-08-03T15:51:58Z</time>
      </trkpt>
      <trkpt lat="45.7926" lon="6.72249">
        <ele>1460.38</ele>
        <time>2019-08-03T15:51:59Z</time>
      </trkpt>
      <trkpt lat="45.79246" lon="6.72252">
        <ele>1457.5</ele>
        <time>2019-08-03T15:52:05Z</time>
      </trkpt>
      <trkpt lat="45.79227" lon="6.72248">
        <ele>1454.13</ele>
        <time>2019-08-03T15:52:12Z</time>
      </trkpt>
      <trkpt lat="45.79223" lon="6.72248">
        <ele>1453.17</ele>
        <time>2019-08-03T15:52:14Z</time>
      </trkpt>
      <trkpt lat="45.79221" lon="6.72248">
        <ele>1453.17</ele>
        <time>2019-08-03T15:52:15Z</time>
      </trkpt>
      <trkpt lat="45.79218" lon="6.72248">
        <ele>1452.69</ele>
        <time>2019-08-03T15:52:16Z</time>
      </trkpt>
      <trkpt lat="45.79216" lon="6.72248">
        <ele>1452.21</ele>
        <time>2019-08-03T15:52:17Z</time>
      </trkpt>
      <trkpt lat="45.79214" lon="6.72248">
        <ele>1452.21</ele>
        <time>2019-08-03T15:52:18Z</time>
      </trkpt>
      <trkpt lat="45.79205" lon="6.72248">
        <ele>1449.81</ele>
        <time>2019-08-03T15:52:21Z</time>
      </trkpt>
      <trkpt lat="45.79201" lon="6.72247">
        <ele>1449.32</ele>
        <time>2019-08-03T15:52:22Z</time>
      </trkpt>
      <trkpt lat="45.79197" lon="6.72244">
        <ele>1448.36</ele>
        <time>2019-08-03T15:52:23Z</time>
      </trkpt>
      <trkpt lat="45.79194" lon="6.72242">
        <ele>1447.88</ele>
        <time>2019-08-03T15:52:24Z</time>
      </trkpt>
      <trkpt lat="45.79191" lon="6.72241">
        <ele>1447.4</ele>
        <time>2019-08-03T15:52:25Z</time>
      </trkpt>
      <trkpt lat="45.79187" lon="6.72241">
        <ele>1446.92</ele>
        <time>2019-08-03T15:52:26Z</time>
      </trkpt>
      <trkpt lat="45.79184" lon="6.72241">
        <ele>1446.44</ele>
        <time>2019-08-03T15:52:27Z</time>
      </trkpt>
      <trkpt lat="45.79181" lon="6.72241">
        <ele>1445.96</ele>
        <time>2019-08-03T15:52:28Z</time>
      </trkpt>
      <trkpt lat="45.79179" lon="6.72241">
        <ele>1445.48</ele>
        <time>2019-08-03T15:52:29Z</time>
      </trkpt>
      <trkpt lat="45.79176" lon="6.72241">
        <ele>1445</ele>
        <time>2019-08-03T15:52:30Z</time>
      </trkpt>
      <trkpt lat="45.79173" lon="6.72241">
        <ele>1444.04</ele>
        <time>2019-08-03T15:52:31Z</time>
      </trkpt>
      <trkpt lat="45.79159" lon="6.72242">
        <ele>1441.15</ele>
        <time>2019-08-03T15:52:37Z</time>
      </trkpt>
      <trkpt lat="45.79149" lon="6.72248">
        <ele>1438.75</ele>
        <time>2019-08-03T15:52:42Z</time>
      </trkpt>
      <trkpt lat="45.79148" lon="6.72249">
        <ele>1438.27</ele>
        <time>2019-08-03T15:52:43Z</time>
      </trkpt>
      <trkpt lat="45.79139" lon="6.72254">
        <ele>1437.31</ele>
        <time>2019-08-03T15:52:55Z</time>
      </trkpt>
      <trkpt lat="45.79134" lon="6.72256">
        <ele>1436.83</ele>
        <time>2019-08-03T15:53:01Z</time>
      </trkpt>
      <trkpt lat="45.79133" lon="6.72255">
        <ele>1436.83</ele>
        <time>2019-08-03T15:53:02Z</time>
      </trkpt>
      <trkpt lat="45.79132" lon="6.72256">
        <ele>1436.83</ele>
        <time>2019-08-03T15:53:03Z</time>
      </trkpt>
      <trkpt lat="45.7913" lon="6.72255">
        <ele>1436.83</ele>
        <time>2019-08-03T15:53:04Z</time>
      </trkpt>
      <trkpt lat="45.79129" lon="6.72255">
        <ele>1436.83</ele>
        <time>2019-08-03T15:53:05Z</time>
      </trkpt>
      <trkpt lat="45.79127" lon="6.72255">
        <ele>1436.35</ele>
        <time>2019-08-03T15:53:06Z</time>
      </trkpt>
      <trkpt lat="45.79108" lon="6.72253">
        <ele>1434.42</ele>
        <time>2019-08-03T15:53:22Z</time>
      </trkpt>
      <trkpt lat="45.79099" lon="6.72248">
        <ele>1432.98</ele>
        <time>2019-08-03T15:53:30Z</time>
      </trkpt>
      <trkpt lat="45.79097" lon="6.72247">
        <ele>1432.98</ele>
        <time>2019-08-03T15:53:32Z</time>
      </trkpt>
      <trkpt lat="45.79096" lon="6.72247">
        <ele>1432.98</ele>
        <time>2019-08-03T15:53:33Z</time>
      </trkpt>
      <trkpt lat="45.79095" lon="6.72247">
        <ele>1432.98</ele>
        <time>2019-08-03T15:53:34Z</time>
      </trkpt>
      <trkpt lat="45.79094" lon="6.72248">
        <ele>1432.98</ele>
        <time>2019-08-03T15:53:35Z</time>
      </trkpt>
      <trkpt lat="45.79083" lon="6.72249">
        <ele>1429.62</ele>
        <time>2019-08-03T15:53:43Z</time>
      </trkpt>
      <trkpt lat="45.79076" lon="6.72246">
        <ele>1428.18</ele>
        <time>2019-08-03T15:53:47Z</time>
      </trkpt>
      <trkpt lat="45.79074" lon="6.72246">
        <ele>1427.7</ele>
        <time>2019-08-03T15:53:48Z</time>
      </trkpt>
      <trkpt lat="45.79072" lon="6.72246">
        <ele>1428.18</ele>
        <time>2019-08-03T15:53:49Z</time>
      </trkpt>
      <trkpt lat="45.7907" lon="6.72246">
        <ele>1428.18</ele>
        <time>2019-08-03T15:53:50Z</time>
      </trkpt>
      <trkpt lat="45.79069" lon="6.72246">
        <ele>1428.18</ele>
        <time>2019-08-03T15:53:51Z</time>
      </trkpt>
      <trkpt lat="45.79067" lon="6.72246">
        <ele>1428.66</ele>
        <time>2019-08-03T15:53:52Z</time>
      </trkpt>
      <trkpt lat="45.79065" lon="6.72245">
        <ele>1428.66</ele>
        <time>2019-08-03T15:53:53Z</time>
      </trkpt>
      <trkpt lat="45.79063" lon="6.72243">
        <ele>1428.66</ele>
        <time>2019-08-03T15:53:54Z</time>
      </trkpt>
      <trkpt lat="45.79051" lon="6.72234">
        <ele>1428.66</ele>
        <time>2019-08-03T15:54:00Z</time>
      </trkpt>
      <trkpt lat="45.79041" lon="6.72238">
        <ele>1428.18</ele>
        <time>2019-08-03T15:54:12Z</time>
      </trkpt>
      <trkpt lat="45.79039" lon="6.72237">
        <ele>1428.18</ele>
        <time>2019-08-03T15:54:13Z</time>
      </trkpt>
      <trkpt lat="45.79031" lon="6.72234">
        <ele>1428.66</ele>
        <time>2019-08-03T15:54:16Z</time>
      </trkpt>
      <trkpt lat="45.79012" lon="6.72208">
        <ele>1426.73</ele>
        <time>2019-08-03T15:54:25Z</time>
      </trkpt>
      <trkpt lat="45.78995" lon="6.72188">
        <ele>1424.81</ele>
        <time>2019-08-03T15:54:34Z</time>
      </trkpt>
      <trkpt lat="45.78987" lon="6.7217">
        <ele>1423.85</ele>
        <time>2019-08-03T15:54:42Z</time>
      </trkpt>
      <trkpt lat="45.78985" lon="6.72168">
        <ele>1423.85</ele>
        <time>2019-08-03T15:54:43Z</time>
      </trkpt>
      <trkpt lat="45.78984" lon="6.72166">
        <ele>1423.37</ele>
        <time>2019-08-03T15:54:44Z</time>
      </trkpt>
      <trkpt lat="45.78982" lon="6.72165">
        <ele>1423.37</ele>
        <time>2019-08-03T15:54:45Z</time>
      </trkpt>
      <trkpt lat="45.7898" lon="6.72163">
        <ele>1422.89</ele>
        <time>2019-08-03T15:54:46Z</time>
      </trkpt>
      <trkpt lat="45.78978" lon="6.72161">
        <ele>1422.41</ele>
        <time>2019-08-03T15:54:47Z</time>
      </trkpt>
      <trkpt lat="45.78975" lon="6.72158">
        <ele>1422.41</ele>
        <time>2019-08-03T15:54:48Z</time>
      </trkpt>
      <trkpt lat="45.78973" lon="6.72156">
        <ele>1422.41</ele>
        <time>2019-08-03T15:54:49Z</time>
      </trkpt>
      <trkpt lat="45.78958" lon="6.72135">
        <ele>1420.97</ele>
        <time>2019-08-03T15:54:57Z</time>
      </trkpt>
      <trkpt lat="45.78941" lon="6.72114">
        <ele>1417.12</ele>
        <time>2019-08-03T15:55:06Z</time>
      </trkpt>
      <trkpt lat="45.78929" lon="6.72105">
        <ele>1414.72</ele>
        <time>2019-08-03T15:55:10Z</time>
      </trkpt>
      <trkpt lat="45.78906" lon="6.72092">
        <ele>1413.28</ele>
        <time>2019-08-03T15:55:18Z</time>
      </trkpt>
      <trkpt lat="45.78896" lon="6.72091">
        <ele>1412.31</ele>
        <time>2019-08-03T15:55:22Z</time>
      </trkpt>
      <trkpt lat="45.78894" lon="6.72092">
        <ele>1412.31</ele>
        <time>2019-08-03T15:55:23Z</time>
      </trkpt>
      <trkpt lat="45.7889" lon="6.72097">
        <ele>1412.79</ele>
        <time>2019-08-03T15:55:25Z</time>
      </trkpt>
      <trkpt lat="45.7889" lon="6.72099">
        <ele>1413.28</ele>
        <time>2019-08-03T15:55:26Z</time>
      </trkpt>
      <trkpt lat="45.78889" lon="6.72101">
        <ele>1413.76</ele>
        <time>2019-08-03T15:55:27Z</time>
      </trkpt>
      <trkpt lat="45.78887" lon="6.72103">
        <ele>1413.76</ele>
        <time>2019-08-03T15:55:28Z</time>
      </trkpt>
      <trkpt lat="45.78886" lon="6.72106">
        <ele>1414.24</ele>
        <time>2019-08-03T15:55:29Z</time>
      </trkpt>
      <trkpt lat="45.78885" lon="6.72108">
        <ele>1414.24</ele>
        <time>2019-08-03T15:55:30Z</time>
      </trkpt>
      <trkpt lat="45.78884" lon="6.72111">
        <ele>1414.72</ele>
        <time>2019-08-03T15:55:31Z</time>
      </trkpt>
      <trkpt lat="45.78882" lon="6.72113">
        <ele>1415.2</ele>
        <time>2019-08-03T15:55:33Z</time>
      </trkpt>
      <trkpt lat="45.78878" lon="6.72116">
        <ele>1416.64</ele>
        <time>2019-08-03T15:55:37Z</time>
      </trkpt>
      <trkpt lat="45.78877" lon="6.72118">
        <ele>1416.64</ele>
        <time>2019-08-03T15:55:38Z</time>
      </trkpt>
      <trkpt lat="45.78875" lon="6.72119">
        <ele>1417.12</ele>
        <time>2019-08-03T15:55:39Z</time>
      </trkpt>
      <trkpt lat="45.78873" lon="6.72121">
        <ele>1417.12</ele>
        <time>2019-08-03T15:55:40Z</time>
      </trkpt>
      <trkpt lat="45.78871" lon="6.72121">
        <ele>1417.6</ele>
        <time>2019-08-03T15:55:41Z</time>
      </trkpt>
      <trkpt lat="45.78869" lon="6.72121">
        <ele>1417.6</ele>
        <time>2019-08-03T15:55:42Z</time>
      </trkpt>
      <trkpt lat="45.78866" lon="6.7212">
        <ele>1418.56</ele>
        <time>2019-08-03T15:55:44Z</time>
      </trkpt>
      <trkpt lat="45.78864" lon="6.72119">
        <ele>1418.56</ele>
        <time>2019-08-03T15:55:45Z</time>
      </trkpt>
      <trkpt lat="45.78863" lon="6.72118">
        <ele>1418.56</ele>
        <time>2019-08-03T15:55:46Z</time>
      </trkpt>
      <trkpt lat="45.78861" lon="6.72118">
        <ele>1419.04</ele>
        <time>2019-08-03T15:55:47Z</time>
      </trkpt>
      <trkpt lat="45.78859" lon="6.72118">
        <ele>1419.04</ele>
        <time>2019-08-03T15:55:48Z</time>
      </trkpt>
      <trkpt lat="45.78858" lon="6.72118">
        <ele>1419.04</ele>
        <time>2019-08-03T15:55:49Z</time>
      </trkpt>
      <trkpt lat="45.78856" lon="6.72119">
        <ele>1419.52</ele>
        <time>2019-08-03T15:55:50Z</time>
      </trkpt>
      <trkpt lat="45.78855" lon="6.72121">
        <ele>1419.52</ele>
        <time>2019-08-03T15:55:51Z</time>
      </trkpt>
      <trkpt lat="45.78853" lon="6.72123">
        <ele>1419.52</ele>
        <time>2019-08-03T15:55:52Z</time>
      </trkpt>
      <trkpt lat="45.78852" lon="6.72124">
        <ele>1419.52</ele>
        <time>2019-08-03T15:55:53Z</time>
      </trkpt>
      <trkpt lat="45.7885" lon="6.72127">
        <ele>1419.52</ele>
        <time>2019-08-03T15:55:54Z</time>
      </trkpt>
      <trkpt lat="45.78848" lon="6.72128">
        <ele>1419.52</ele>
        <time>2019-08-03T15:55:55Z</time>
      </trkpt>
      <trkpt lat="45.78847" lon="6.72129">
        <ele>1420</ele>
        <time>2019-08-03T15:55:56Z</time>
      </trkpt>
      <trkpt lat="45.78845" lon="6.7213">
        <ele>1420</ele>
        <time>2019-08-03T15:55:57Z</time>
      </trkpt>
      <trkpt lat="45.78829" lon="6.72138">
        <ele>1422.89</ele>
        <time>2019-08-03T15:56:07Z</time>
      </trkpt>
      <trkpt lat="45.78827" lon="6.7214">
        <ele>1422.89</ele>
        <time>2019-08-03T15:56:08Z</time>
      </trkpt>
      <trkpt lat="45.78825" lon="6.72141">
        <ele>1423.37</ele>
        <time>2019-08-03T15:56:09Z</time>
      </trkpt>
      <trkpt lat="45.78823" lon="6.72141">
        <ele>1423.37</ele>
        <time>2019-08-03T15:56:10Z</time>
      </trkpt>
      <trkpt lat="45.78821" lon="6.72143">
        <ele>1423.37</ele>
        <time>2019-08-03T15:56:11Z</time>
      </trkpt>
      <trkpt lat="45.7882" lon="6.72144">
        <ele>1423.37</ele>
        <time>2019-08-03T15:56:12Z</time>
      </trkpt>
      <trkpt lat="45.78819" lon="6.72145">
        <ele>1423.37</ele>
        <time>2019-08-03T15:56:13Z</time>
      </trkpt>
      <trkpt lat="45.78816" lon="6.72149">
        <ele>1423.85</ele>
        <time>2019-08-03T15:56:16Z</time>
      </trkpt>
      <trkpt lat="45.78814" lon="6.72152">
        <ele>1424.33</ele>
        <time>2019-08-03T15:56:18Z</time>
      </trkpt>
      <trkpt lat="45.78812" lon="6.72152">
        <ele>1424.33</ele>
        <time>2019-08-03T15:56:19Z</time>
      </trkpt>
      <trkpt lat="45.78811" lon="6.72152">
        <ele>1424.81</ele>
        <time>2019-08-03T15:56:20Z</time>
      </trkpt>
      <trkpt lat="45.78809" lon="6.72153">
        <ele>1424.81</ele>
        <time>2019-08-03T15:56:21Z</time>
      </trkpt>
      <trkpt lat="45.78807" lon="6.72153">
        <ele>1424.81</ele>
        <time>2019-08-03T15:56:22Z</time>
      </trkpt>
      <trkpt lat="45.78806" lon="6.72152">
        <ele>1424.81</ele>
        <time>2019-08-03T15:56:23Z</time>
      </trkpt>
      <trkpt lat="45.78803" lon="6.72152">
        <ele>1424.81</ele>
        <time>2019-08-03T15:56:24Z</time>
      </trkpt>
      <trkpt lat="45.78802" lon="6.72152">
        <ele>1424.81</ele>
        <time>2019-08-03T15:56:25Z</time>
      </trkpt>
      <trkpt lat="45.788" lon="6.72152">
        <ele>1424.81</ele>
        <time>2019-08-03T15:56:26Z</time>
      </trkpt>
      <trkpt lat="45.78798" lon="6.72152">
        <ele>1424.81</ele>
        <time>2019-08-03T15:56:27Z</time>
      </trkpt>
      <trkpt lat="45.78795" lon="6.72154">
        <ele>1425.29</ele>
        <time>2019-08-03T15:56:28Z</time>
      </trkpt>
      <trkpt lat="45.78792" lon="6.72156">
        <ele>1425.29</ele>
        <time>2019-08-03T15:56:29Z</time>
      </trkpt>
      <trkpt lat="45.7879" lon="6.72157">
        <ele>1425.29</ele>
        <time>2019-08-03T15:56:30Z</time>
      </trkpt>
      <trkpt lat="45.78788" lon="6.72157">
        <ele>1425.29</ele>
        <time>2019-08-03T15:56:31Z</time>
      </trkpt>
      <trkpt lat="45.78787" lon="6.72156">
        <ele>1425.29</ele>
        <time>2019-08-03T15:56:32Z</time>
      </trkpt>
      <trkpt lat="45.78784" lon="6.72156">
        <ele>1425.29</ele>
        <time>2019-08-03T15:56:33Z</time>
      </trkpt>
      <trkpt lat="45.78782" lon="6.72156">
        <ele>1425.29</ele>
        <time>2019-08-03T15:56:34Z</time>
      </trkpt>
      <trkpt lat="45.78771" lon="6.72152">
        <ele>1425.29</ele>
        <time>2019-08-03T15:56:39Z</time>
      </trkpt>
      <trkpt lat="45.78769" lon="6.72151">
        <ele>1425.29</ele>
        <time>2019-08-03T15:56:40Z</time>
      </trkpt>
      <trkpt lat="45.78767" lon="6.7215">
        <ele>1425.29</ele>
        <time>2019-08-03T15:56:41Z</time>
      </trkpt>
      <trkpt lat="45.78761" lon="6.72145">
        <ele>1425.77</ele>
        <time>2019-08-03T15:56:44Z</time>
      </trkpt>
      <trkpt lat="45.78735" lon="6.72128">
        <ele>1429.14</ele>
        <time>2019-08-03T15:56:58Z</time>
      </trkpt>
      <trkpt lat="45.78733" lon="6.72126">
        <ele>1429.62</ele>
        <time>2019-08-03T15:56:59Z</time>
      </trkpt>
      <trkpt lat="45.78732" lon="6.72124">
        <ele>1429.62</ele>
        <time>2019-08-03T15:57:00Z</time>
      </trkpt>
      <trkpt lat="45.7873" lon="6.72123">
        <ele>1429.62</ele>
        <time>2019-08-03T15:57:01Z</time>
      </trkpt>
      <trkpt lat="45.78729" lon="6.72122">
        <ele>1430.1</ele>
        <time>2019-08-03T15:57:02Z</time>
      </trkpt>
      <trkpt lat="45.78728" lon="6.7212">
        <ele>1430.1</ele>
        <time>2019-08-03T15:57:03Z</time>
      </trkpt>
      <trkpt lat="45.78726" lon="6.72119">
        <ele>1430.58</ele>
        <time>2019-08-03T15:57:04Z</time>
      </trkpt>
      <trkpt lat="45.78724" lon="6.72118">
        <ele>1430.58</ele>
        <time>2019-08-03T15:57:05Z</time>
      </trkpt>
      <trkpt lat="45.78723" lon="6.72119">
        <ele>1430.58</ele>
        <time>2019-08-03T15:57:06Z</time>
      </trkpt>
      <trkpt lat="45.78721" lon="6.72118">
        <ele>1430.58</ele>
        <time>2019-08-03T15:57:07Z</time>
      </trkpt>
      <trkpt lat="45.78719" lon="6.72117">
        <ele>1431.06</ele>
        <time>2019-08-03T15:57:08Z</time>
      </trkpt>
      <trkpt lat="45.78717" lon="6.72116">
        <ele>1431.06</ele>
        <time>2019-08-03T15:57:09Z</time>
      </trkpt>
      <trkpt lat="45.78696" lon="6.72107">
        <ele>1431.54</ele>
        <time>2019-08-03T15:57:20Z</time>
      </trkpt>
      <trkpt lat="45.78691" lon="6.72103">
        <ele>1431.54</ele>
        <time>2019-08-03T15:57:23Z</time>
      </trkpt>
      <trkpt lat="45.7869" lon="6.72101">
        <ele>1431.54</ele>
        <time>2019-08-03T15:57:24Z</time>
      </trkpt>
      <trkpt lat="45.78687" lon="6.72096">
        <ele>1432.02</ele>
        <time>2019-08-03T15:57:26Z</time>
      </trkpt>
      <trkpt lat="45.78686" lon="6.72094">
        <ele>1432.02</ele>
        <time>2019-08-03T15:57:27Z</time>
      </trkpt>
      <trkpt lat="45.78684" lon="6.7209">
        <ele>1432.02</ele>
        <time>2019-08-03T15:57:28Z</time>
      </trkpt>
      <trkpt lat="45.78682" lon="6.72087">
        <ele>1432.02</ele>
        <time>2019-08-03T15:57:29Z</time>
      </trkpt>
      <trkpt lat="45.7868" lon="6.72084">
        <ele>1432.5</ele>
        <time>2019-08-03T15:57:30Z</time>
      </trkpt>
      <trkpt lat="45.78678" lon="6.72081">
        <ele>1432.5</ele>
        <time>2019-08-03T15:57:31Z</time>
      </trkpt>
      <trkpt lat="45.78659" lon="6.72063">
        <ele>1434.42</ele>
        <time>2019-08-03T15:57:40Z</time>
      </trkpt>
      <trkpt lat="45.78652" lon="6.7206">
        <ele>1433.94</ele>
        <time>2019-08-03T15:57:43Z</time>
      </trkpt>
      <trkpt lat="45.78628" lon="6.72056">
        <ele>1432.5</ele>
        <time>2019-08-03T15:58:02Z</time>
      </trkpt>
      <trkpt lat="45.78627" lon="6.72056">
        <ele>1432.5</ele>
        <time>2019-08-03T15:58:03Z</time>
      </trkpt>
      <trkpt lat="45.78626" lon="6.72057">
        <ele>1432.5</ele>
        <time>2019-08-03T15:58:04Z</time>
      </trkpt>
      <trkpt lat="45.78613" lon="6.72053">
        <ele>1432.02</ele>
        <time>2019-08-03T15:58:26Z</time>
      </trkpt>
      <trkpt lat="45.78611" lon="6.72052">
        <ele>1431.54</ele>
        <time>2019-08-03T15:58:35Z</time>
      </trkpt>
      <trkpt lat="45.78609" lon="6.72057">
        <ele>1432.02</ele>
        <time>2019-08-03T16:00:11Z</time>
      </trkpt>
      <trkpt lat="45.78602" lon="6.72054">
        <ele>1432.02</ele>
        <time>2019-08-03T16:00:22Z</time>
      </trkpt>
      <trkpt lat="45.7858" lon="6.72044">
        <ele>1428.66</ele>
        <time>2019-08-03T16:00:35Z</time>
      </trkpt>
      <trkpt lat="45.78566" lon="6.72043">
        <ele>1428.66</ele>
        <time>2019-08-03T16:00:50Z</time>
      </trkpt>
      <trkpt lat="45.78564" lon="6.72043">
        <ele>1428.18</ele>
        <time>2019-08-03T16:00:52Z</time>
      </trkpt>
      <trkpt lat="45.78562" lon="6.72041">
        <ele>1428.18</ele>
        <time>2019-08-03T16:00:53Z</time>
      </trkpt>
      <trkpt lat="45.78561" lon="6.7204">
        <ele>1428.18</ele>
        <time>2019-08-03T16:00:54Z</time>
      </trkpt>
      <trkpt lat="45.78559" lon="6.72039">
        <ele>1428.18</ele>
        <time>2019-08-03T16:00:55Z</time>
      </trkpt>
      <trkpt lat="45.78558" lon="6.72039">
        <ele>1428.18</ele>
        <time>2019-08-03T16:00:56Z</time>
      </trkpt>
      <trkpt lat="45.78555" lon="6.7204">
        <ele>1428.18</ele>
        <time>2019-08-03T16:00:58Z</time>
      </trkpt>
      <trkpt lat="45.78554" lon="6.7204">
        <ele>1428.18</ele>
        <time>2019-08-03T16:00:59Z</time>
      </trkpt>
      <trkpt lat="45.78552" lon="6.7204">
        <ele>1428.18</ele>
        <time>2019-08-03T16:01:00Z</time>
      </trkpt>
      <trkpt lat="45.78551" lon="6.72039">
        <ele>1428.18</ele>
        <time>2019-08-03T16:01:01Z</time>
      </trkpt>
      <trkpt lat="45.7855" lon="6.72039">
        <ele>1428.18</ele>
        <time>2019-08-03T16:01:02Z</time>
      </trkpt>
      <trkpt lat="45.78548" lon="6.72039">
        <ele>1428.18</ele>
        <time>2019-08-03T16:01:03Z</time>
      </trkpt>
      <trkpt lat="45.78547" lon="6.72039">
        <ele>1428.18</ele>
        <time>2019-08-03T16:01:04Z</time>
      </trkpt>
      <trkpt lat="45.78545" lon="6.72038">
        <ele>1428.18</ele>
        <time>2019-08-03T16:01:05Z</time>
      </trkpt>
      <trkpt lat="45.78544" lon="6.72038">
        <ele>1428.18</ele>
        <time>2019-08-03T16:01:06Z</time>
      </trkpt>
      <trkpt lat="45.78542" lon="6.72039">
        <ele>1428.66</ele>
        <time>2019-08-03T16:01:09Z</time>
      </trkpt>
      <trkpt lat="45.78541" lon="6.72039">
        <ele>1429.14</ele>
        <time>2019-08-03T16:01:10Z</time>
      </trkpt>
      <trkpt lat="45.78539" lon="6.72038">
        <ele>1429.14</ele>
        <time>2019-08-03T16:01:11Z</time>
      </trkpt>
      <trkpt lat="45.78538" lon="6.72037">
        <ele>1429.14</ele>
        <time>2019-08-03T16:01:12Z</time>
      </trkpt>
      <trkpt lat="45.78537" lon="6.72037">
        <ele>1429.14</ele>
        <time>2019-08-03T16:01:13Z</time>
      </trkpt>
      <trkpt lat="45.78535" lon="6.72037">
        <ele>1429.14</ele>
        <time>2019-08-03T16:01:14Z</time>
      </trkpt>
      <trkpt lat="45.78531" lon="6.72037">
        <ele>1429.14</ele>
        <time>2019-08-03T16:01:18Z</time>
      </trkpt>
      <trkpt lat="45.78529" lon="6.72037">
        <ele>1429.14</ele>
        <time>2019-08-03T16:01:19Z</time>
      </trkpt>
      <trkpt lat="45.78528" lon="6.72037">
        <ele>1429.14</ele>
        <time>2019-08-03T16:01:20Z</time>
      </trkpt>
      <trkpt lat="45.78527" lon="6.72036">
        <ele>1429.14</ele>
        <time>2019-08-03T16:01:21Z</time>
      </trkpt>
      <trkpt lat="45.78526" lon="6.72034">
        <ele>1429.14</ele>
        <time>2019-08-03T16:01:22Z</time>
      </trkpt>
      <trkpt lat="45.78524" lon="6.72033">
        <ele>1428.66</ele>
        <time>2019-08-03T16:01:23Z</time>
      </trkpt>
      <trkpt lat="45.7852" lon="6.72029">
        <ele>1428.18</ele>
        <time>2019-08-03T16:01:27Z</time>
      </trkpt>
      <trkpt lat="45.78517" lon="6.72027">
        <ele>1427.7</ele>
        <time>2019-08-03T16:01:31Z</time>
      </trkpt>
      <trkpt lat="45.78513" lon="6.72022">
        <ele>1427.7</ele>
        <time>2019-08-03T16:01:36Z</time>
      </trkpt>
      <trkpt lat="45.78502" lon="6.72004">
        <ele>1427.21</ele>
        <time>2019-08-03T16:02:33Z</time>
      </trkpt>
      <trkpt lat="45.78505" lon="6.72005">
        <ele>1426.73</ele>
        <time>2019-08-03T16:02:50Z</time>
      </trkpt>
      <trkpt lat="45.78504" lon="6.72007">
        <ele>1426.73</ele>
        <time>2019-08-03T16:02:55Z</time>
      </trkpt>
      <trkpt lat="45.78502" lon="6.72001">
        <ele>1427.21</ele>
        <time>2019-08-03T16:03:50Z</time>
      </trkpt>
      <trkpt lat="45.78502" lon="6.72005">
        <ele>1427.21</ele>
        <time>2019-08-03T16:04:06Z</time>
      </trkpt>
      <trkpt lat="45.78502" lon="6.72005">
        <ele>1427.21</ele>
        <time>2019-08-03T16:04:09Z</time>
      </trkpt>
      <trkpt lat="45.78502" lon="6.72007">
        <ele>1427.7</ele>
        <time>2019-08-03T16:04:10Z</time>
      </trkpt>
      <trkpt lat="45.78496" lon="6.72003">
        <ele>1428.18</ele>
        <time>2019-08-03T16:04:20Z</time>
      </trkpt>
      <trkpt lat="45.78496" lon="6.72002">
        <ele>1428.18</ele>
        <time>2019-08-03T16:04:21Z</time>
      </trkpt>
      <trkpt lat="45.78471" lon="6.71989">
        <ele>1428.18</ele>
        <time>2019-08-03T16:04:33Z</time>
      </trkpt>
      <trkpt lat="45.78462" lon="6.71983">
        <ele>1426.73</ele>
        <time>2019-08-03T16:04:36Z</time>
      </trkpt>
      <trkpt lat="45.78445" lon="6.71967">
        <ele>1427.21</ele>
        <time>2019-08-03T16:04:45Z</time>
      </trkpt>
      <trkpt lat="45.78428" lon="6.71949">
        <ele>1425.29</ele>
        <time>2019-08-03T16:04:54Z</time>
      </trkpt>
      <trkpt lat="45.78411" lon="6.71932">
        <ele>1423.37</ele>
        <time>2019-08-03T16:05:02Z</time>
      </trkpt>
      <trkpt lat="45.7841" lon="6.71931">
        <ele>1422.89</ele>
        <time>2019-08-03T16:05:03Z</time>
      </trkpt>
      <trkpt lat="45.78409" lon="6.71929">
        <ele>1422.89</ele>
        <time>2019-08-03T16:05:04Z</time>
      </trkpt>
      <trkpt lat="45.78407" lon="6.71927">
        <ele>1422.41</ele>
        <time>2019-08-03T16:05:05Z</time>
      </trkpt>
      <trkpt lat="45.78393" lon="6.71908">
        <ele>1419.04</ele>
        <time>2019-08-03T16:05:13Z</time>
      </trkpt>
      <trkpt lat="45.78389" lon="6.71903">
        <ele>1418.08</ele>
        <time>2019-08-03T16:05:15Z</time>
      </trkpt>
      <trkpt lat="45.78373" lon="6.71896">
        <ele>1417.12</ele>
        <time>2019-08-03T16:05:37Z</time>
      </trkpt>
      <trkpt lat="45.78371" lon="6.71896">
        <ele>1416.64</ele>
        <time>2019-08-03T16:05:40Z</time>
      </trkpt>
      <trkpt lat="45.78368" lon="6.71889">
        <ele>1416.64</ele>
        <time>2019-08-03T16:05:51Z</time>
      </trkpt>
      <trkpt lat="45.78361" lon="6.71882">
        <ele>1414.72</ele>
        <time>2019-08-03T16:06:05Z</time>
      </trkpt>
      <trkpt lat="45.7836" lon="6.71881">
        <ele>1414.72</ele>
        <time>2019-08-03T16:06:06Z</time>
      </trkpt>
      <trkpt lat="45.78342" lon="6.71871">
        <ele>1411.83</ele>
        <time>2019-08-03T16:06:25Z</time>
      </trkpt>
      <trkpt lat="45.78334" lon="6.71861">
        <ele>1409.91</ele>
        <time>2019-08-03T16:06:32Z</time>
      </trkpt>
      <trkpt lat="45.78334" lon="6.7186">
        <ele>1409.91</ele>
        <time>2019-08-03T16:06:33Z</time>
      </trkpt>
      <trkpt lat="45.78333" lon="6.7186">
        <ele>1409.43</ele>
        <time>2019-08-03T16:06:34Z</time>
      </trkpt>
      <trkpt lat="45.78331" lon="6.71859">
        <ele>1409.43</ele>
        <time>2019-08-03T16:06:35Z</time>
      </trkpt>
      <trkpt lat="45.7833" lon="6.71858">
        <ele>1409.43</ele>
        <time>2019-08-03T16:06:36Z</time>
      </trkpt>
      <trkpt lat="45.78329" lon="6.71857">
        <ele>1408.95</ele>
        <time>2019-08-03T16:06:37Z</time>
      </trkpt>
      <trkpt lat="45.78328" lon="6.71856">
        <ele>1408.95</ele>
        <time>2019-08-03T16:06:38Z</time>
      </trkpt>
      <trkpt lat="45.78327" lon="6.71855">
        <ele>1408.47</ele>
        <time>2019-08-03T16:06:39Z</time>
      </trkpt>
      <trkpt lat="45.78305" lon="6.71843">
        <ele>1407.51</ele>
        <time>2019-08-03T16:06:54Z</time>
      </trkpt>
      <trkpt lat="45.78291" lon="6.71831">
        <ele>1406.07</ele>
        <time>2019-08-03T16:07:04Z</time>
      </trkpt>
      <trkpt lat="45.7829" lon="6.71831">
        <ele>1405.58</ele>
        <time>2019-08-03T16:07:05Z</time>
      </trkpt>
      <trkpt lat="45.78287" lon="6.71829">
        <ele>1405.1</ele>
        <time>2019-08-03T16:07:08Z</time>
      </trkpt>
      <trkpt lat="45.78286" lon="6.71828">
        <ele>1405.1</ele>
        <time>2019-08-03T16:07:09Z</time>
      </trkpt>
      <trkpt lat="45.78285" lon="6.71826">
        <ele>1404.62</ele>
        <time>2019-08-03T16:07:10Z</time>
      </trkpt>
      <trkpt lat="45.78276" lon="6.71816">
        <ele>1401.74</ele>
        <time>2019-08-03T16:07:14Z</time>
      </trkpt>
      <trkpt lat="45.78275" lon="6.71813">
        <ele>1401.26</ele>
        <time>2019-08-03T16:07:15Z</time>
      </trkpt>
      <trkpt lat="45.78274" lon="6.71809">
        <ele>1400.78</ele>
        <time>2019-08-03T16:07:16Z</time>
      </trkpt>
      <trkpt lat="45.78272" lon="6.71805">
        <ele>1400.3</ele>
        <time>2019-08-03T16:07:17Z</time>
      </trkpt>
      <trkpt lat="45.78271" lon="6.718">
        <ele>1399.34</ele>
        <time>2019-08-03T16:07:18Z</time>
      </trkpt>
      <trkpt lat="45.78266" lon="6.71768">
        <ele>1396.45</ele>
        <time>2019-08-03T16:07:25Z</time>
      </trkpt>
      <trkpt lat="45.78268" lon="6.71735">
        <ele>1395.97</ele>
        <time>2019-08-03T16:07:33Z</time>
      </trkpt>
      <trkpt lat="45.78263" lon="6.71707">
        <ele>1395.01</ele>
        <time>2019-08-03T16:07:42Z</time>
      </trkpt>
      <trkpt lat="45.78249" lon="6.71683">
        <ele>1394.53</ele>
        <time>2019-08-03T16:07:49Z</time>
      </trkpt>
      <trkpt lat="45.78234" lon="6.71661">
        <ele>1394.05</ele>
        <time>2019-08-03T16:07:57Z</time>
      </trkpt>
      <trkpt lat="45.7822" lon="6.7164">
        <ele>1394.53</ele>
        <time>2019-08-03T16:08:04Z</time>
      </trkpt>
      <trkpt lat="45.78216" lon="6.71639">
        <ele>1394.05</ele>
        <time>2019-08-03T16:08:06Z</time>
      </trkpt>
      <trkpt lat="45.78196" lon="6.71627">
        <ele>1392.13</ele>
        <time>2019-08-03T16:08:15Z</time>
      </trkpt>
      <trkpt lat="45.7818" lon="6.71614">
        <ele>1390.2</ele>
        <time>2019-08-03T16:08:23Z</time>
      </trkpt>
      <trkpt lat="45.78178" lon="6.71614">
        <ele>1390.2</ele>
        <time>2019-08-03T16:08:24Z</time>
      </trkpt>
      <trkpt lat="45.78176" lon="6.71614">
        <ele>1389.72</ele>
        <time>2019-08-03T16:08:25Z</time>
      </trkpt>
      <trkpt lat="45.78173" lon="6.71613">
        <ele>1388.76</ele>
        <time>2019-08-03T16:08:26Z</time>
      </trkpt>
      <trkpt lat="45.78171" lon="6.71612">
        <ele>1388.76</ele>
        <time>2019-08-03T16:08:27Z</time>
      </trkpt>
      <trkpt lat="45.78169" lon="6.7161">
        <ele>1387.8</ele>
        <time>2019-08-03T16:08:28Z</time>
      </trkpt>
      <trkpt lat="45.78167" lon="6.71609">
        <ele>1387.32</ele>
        <time>2019-08-03T16:08:29Z</time>
      </trkpt>
      <trkpt lat="45.78165" lon="6.71608">
        <ele>1386.84</ele>
        <time>2019-08-03T16:08:30Z</time>
      </trkpt>
      <trkpt lat="45.78163" lon="6.71607">
        <ele>1386.36</ele>
        <time>2019-08-03T16:08:31Z</time>
      </trkpt>
      <trkpt lat="45.7816" lon="6.71606">
        <ele>1385.88</ele>
        <time>2019-08-03T16:08:33Z</time>
      </trkpt>
      <trkpt lat="45.7816" lon="6.71604">
        <ele>1386.36</ele>
        <time>2019-08-03T16:08:34Z</time>
      </trkpt>
      <trkpt lat="45.78154" lon="6.71602">
        <ele>1386.36</ele>
        <time>2019-08-03T16:08:43Z</time>
      </trkpt>
      <trkpt lat="45.78152" lon="6.71597">
        <ele>1386.84</ele>
        <time>2019-08-03T16:09:38Z</time>
      </trkpt>
      <trkpt lat="45.7815" lon="6.71595">
        <ele>1386.84</ele>
        <time>2019-08-03T16:09:43Z</time>
      </trkpt>
      <trkpt lat="45.78148" lon="6.71587">
        <ele>1385.4</ele>
        <time>2019-08-03T16:09:56Z</time>
      </trkpt>
      <trkpt lat="45.78148" lon="6.71586">
        <ele>1385.4</ele>
        <time>2019-08-03T16:09:57Z</time>
      </trkpt>
      <trkpt lat="45.78148" lon="6.71585">
        <ele>1385.4</ele>
        <time>2019-08-03T16:09:58Z</time>
      </trkpt>
      <trkpt lat="45.78159" lon="6.71564">
        <ele>1384.44</ele>
        <time>2019-08-03T16:10:15Z</time>
      </trkpt>
      <trkpt lat="45.78161" lon="6.71563">
        <ele>1384.44</ele>
        <time>2019-08-03T16:10:16Z</time>
      </trkpt>
      <trkpt lat="45.78162" lon="6.71563">
        <ele>1384.44</ele>
        <time>2019-08-03T16:10:17Z</time>
      </trkpt>
      <trkpt lat="45.78162" lon="6.71562">
        <ele>1384.44</ele>
        <time>2019-08-03T16:10:18Z</time>
      </trkpt>
      <trkpt lat="45.78172" lon="6.71546">
        <ele>1382.99</ele>
        <time>2019-08-03T16:10:31Z</time>
      </trkpt>
      <trkpt lat="45.78171" lon="6.71542">
        <ele>1382.03</ele>
        <time>2019-08-03T16:10:35Z</time>
      </trkpt>
      <trkpt lat="45.7817" lon="6.71542">
        <ele>1381.55</ele>
        <time>2019-08-03T16:10:36Z</time>
      </trkpt>
      <trkpt lat="45.78169" lon="6.71541">
        <ele>1381.55</ele>
        <time>2019-08-03T16:10:37Z</time>
      </trkpt>
      <trkpt lat="45.78168" lon="6.71541">
        <ele>1381.07</ele>
        <time>2019-08-03T16:10:38Z</time>
      </trkpt>
      <trkpt lat="45.78167" lon="6.71541">
        <ele>1381.07</ele>
        <time>2019-08-03T16:10:39Z</time>
      </trkpt>
      <trkpt lat="45.78165" lon="6.71541">
        <ele>1381.07</ele>
        <time>2019-08-03T16:10:40Z</time>
      </trkpt>
      <trkpt lat="45.78165" lon="6.71542">
        <ele>1381.07</ele>
        <time>2019-08-03T16:10:41Z</time>
      </trkpt>
      <trkpt lat="45.78164" lon="6.71543">
        <ele>1381.07</ele>
        <time>2019-08-03T16:10:42Z</time>
      </trkpt>
      <trkpt lat="45.78162" lon="6.71544">
        <ele>1381.07</ele>
        <time>2019-08-03T16:10:43Z</time>
      </trkpt>
      <trkpt lat="45.78156" lon="6.71547">
        <ele>1381.55</ele>
        <time>2019-08-03T16:10:48Z</time>
      </trkpt>
      <trkpt lat="45.7815" lon="6.71546">
        <ele>1382.51</ele>
        <time>2019-08-03T16:10:54Z</time>
      </trkpt>
      <trkpt lat="45.78148" lon="6.71545">
        <ele>1382.51</ele>
        <time>2019-08-03T16:10:55Z</time>
      </trkpt>
      <trkpt lat="45.78147" lon="6.71544">
        <ele>1382.51</ele>
        <time>2019-08-03T16:10:56Z</time>
      </trkpt>
      <trkpt lat="45.78152" lon="6.71545">
        <ele>1382.03</ele>
        <time>2019-08-03T16:11:20Z</time>
      </trkpt>
      <trkpt lat="45.7815" lon="6.71549">
        <ele>1382.03</ele>
        <time>2019-08-03T16:12:09Z</time>
      </trkpt>
      <trkpt lat="45.78148" lon="6.71545">
        <ele>1382.51</ele>
        <time>2019-08-03T16:12:18Z</time>
      </trkpt>
      <trkpt lat="45.78147" lon="6.71542">
        <ele>1382.51</ele>
        <time>2019-08-03T16:12:26Z</time>
      </trkpt>
      <trkpt lat="45.78141" lon="6.71539">
        <ele>1382.99</ele>
        <time>2019-08-03T16:12:39Z</time>
      </trkpt>
      <trkpt lat="45.78134" lon="6.71536">
        <ele>1383.47</ele>
        <time>2019-08-03T16:12:45Z</time>
      </trkpt>
      <trkpt lat="45.78119" lon="6.7153">
        <ele>1386.84</ele>
        <time>2019-08-03T16:12:56Z</time>
      </trkpt>
      <trkpt lat="45.78118" lon="6.71529">
        <ele>1386.84</ele>
        <time>2019-08-03T16:12:57Z</time>
      </trkpt>
      <trkpt lat="45.78105" lon="6.71517">
        <ele>1390.2</ele>
        <time>2019-08-03T16:13:07Z</time>
      </trkpt>
      <trkpt lat="45.78104" lon="6.71517">
        <ele>1390.68</ele>
        <time>2019-08-03T16:13:08Z</time>
      </trkpt>
      <trkpt lat="45.78103" lon="6.71517">
        <ele>1391.17</ele>
        <time>2019-08-03T16:13:09Z</time>
      </trkpt>
      <trkpt lat="45.78101" lon="6.71517">
        <ele>1391.17</ele>
        <time>2019-08-03T16:13:10Z</time>
      </trkpt>
      <trkpt lat="45.781" lon="6.71517">
        <ele>1391.17</ele>
        <time>2019-08-03T16:13:11Z</time>
      </trkpt>
      <trkpt lat="45.78098" lon="6.71516">
        <ele>1391.65</ele>
        <time>2019-08-03T16:13:12Z</time>
      </trkpt>
      <trkpt lat="45.78096" lon="6.71516">
        <ele>1392.13</ele>
        <time>2019-08-03T16:13:13Z</time>
      </trkpt>
      <trkpt lat="45.78075" lon="6.71511">
        <ele>1395.01</ele>
        <time>2019-08-03T16:13:27Z</time>
      </trkpt>
      <trkpt lat="45.7806" lon="6.71504">
        <ele>1398.37</ele>
        <time>2019-08-03T16:13:38Z</time>
      </trkpt>
      <trkpt lat="45.78056" lon="6.71504">
        <ele>1398.86</ele>
        <time>2019-08-03T16:13:41Z</time>
      </trkpt>
      <trkpt lat="45.78054" lon="6.7151">
        <ele>1400.3</ele>
        <time>2019-08-03T16:13:54Z</time>
      </trkpt>
      <trkpt lat="45.78054" lon="6.71511">
        <ele>1400.3</ele>
        <time>2019-08-03T16:13:55Z</time>
      </trkpt>
      <trkpt lat="45.7805" lon="6.71518">
        <ele>1402.22</ele>
        <time>2019-08-03T16:14:59Z</time>
      </trkpt>
      <trkpt lat="45.78049" lon="6.71524">
        <ele>1402.7</ele>
        <time>2019-08-03T16:15:06Z</time>
      </trkpt>
      <trkpt lat="45.78048" lon="6.71525">
        <ele>1402.7</ele>
        <time>2019-08-03T16:15:07Z</time>
      </trkpt>
      <trkpt lat="45.78047" lon="6.71526">
        <ele>1402.7</ele>
        <time>2019-08-03T16:15:08Z</time>
      </trkpt>
      <trkpt lat="45.78046" lon="6.71527">
        <ele>1402.7</ele>
        <time>2019-08-03T16:15:09Z</time>
      </trkpt>
      <trkpt lat="45.78044" lon="6.71528">
        <ele>1402.7</ele>
        <time>2019-08-03T16:15:10Z</time>
      </trkpt>
      <trkpt lat="45.7803" lon="6.71543">
        <ele>1406.07</ele>
        <time>2019-08-03T16:15:28Z</time>
      </trkpt>
      <trkpt lat="45.7802" lon="6.71567">
        <ele>1407.03</ele>
        <time>2019-08-03T16:15:43Z</time>
      </trkpt>
      <trkpt lat="45.78006" lon="6.71587">
        <ele>1407.99</ele>
        <time>2019-08-03T16:15:57Z</time>
      </trkpt>
      <trkpt lat="45.77992" lon="6.71606">
        <ele>1407.51</ele>
        <time>2019-08-03T16:16:09Z</time>
      </trkpt>
      <trkpt lat="45.77974" lon="6.71622">
        <ele>1407.51</ele>
        <time>2019-08-03T16:16:20Z</time>
      </trkpt>
      <trkpt lat="45.77956" lon="6.71636">
        <ele>1407.99</ele>
        <time>2019-08-03T16:16:30Z</time>
      </trkpt>
      <trkpt lat="45.77935" lon="6.71646">
        <ele>1408.47</ele>
        <time>2019-08-03T16:16:40Z</time>
      </trkpt>
      <trkpt lat="45.77915" lon="6.71654">
        <ele>1407.99</ele>
        <time>2019-08-03T16:16:49Z</time>
      </trkpt>
      <trkpt lat="45.77912" lon="6.71654">
        <ele>1407.99</ele>
        <time>2019-08-03T16:16:50Z</time>
      </trkpt>
      <trkpt lat="45.7791" lon="6.71653">
        <ele>1407.99</ele>
        <time>2019-08-03T16:16:51Z</time>
      </trkpt>
      <trkpt lat="45.77908" lon="6.71652">
        <ele>1407.99</ele>
        <time>2019-08-03T16:16:52Z</time>
      </trkpt>
      <trkpt lat="45.77906" lon="6.71651">
        <ele>1407.99</ele>
        <time>2019-08-03T16:16:53Z</time>
      </trkpt>
      <trkpt lat="45.77904" lon="6.7165">
        <ele>1407.99</ele>
        <time>2019-08-03T16:16:54Z</time>
      </trkpt>
      <trkpt lat="45.77886" lon="6.71649">
        <ele>1408.95</ele>
        <time>2019-08-03T16:17:02Z</time>
      </trkpt>
      <trkpt lat="45.77885" lon="6.71653">
        <ele>1409.43</ele>
        <time>2019-08-03T16:17:03Z</time>
      </trkpt>
      <trkpt lat="45.77884" lon="6.71657">
        <ele>1409.43</ele>
        <time>2019-08-03T16:17:04Z</time>
      </trkpt>
      <trkpt lat="45.77883" lon="6.71663">
        <ele>1409.43</ele>
        <time>2019-08-03T16:17:05Z</time>
      </trkpt>
      <trkpt lat="45.77881" lon="6.71668">
        <ele>1409.91</ele>
        <time>2019-08-03T16:17:06Z</time>
      </trkpt>
      <trkpt lat="45.7788" lon="6.71693">
        <ele>1410.39</ele>
        <time>2019-08-03T16:17:15Z</time>
      </trkpt>
      <trkpt lat="45.77881" lon="6.717">
        <ele>1410.39</ele>
        <time>2019-08-03T16:18:04Z</time>
      </trkpt>
      <trkpt lat="45.77885" lon="6.71707">
        <ele>1412.31</ele>
        <time>2019-08-03T16:18:11Z</time>
      </trkpt>
      <trkpt lat="45.77889" lon="6.71715">
        <ele>1414.24</ele>
        <time>2019-08-03T16:18:17Z</time>
      </trkpt>
      <trkpt lat="45.77891" lon="6.71719">
        <ele>1414.72</ele>
        <time>2019-08-03T16:18:18Z</time>
      </trkpt>
      <trkpt lat="45.77893" lon="6.71722">
        <ele>1415.2</ele>
        <time>2019-08-03T16:18:19Z</time>
      </trkpt>
      <trkpt lat="45.77896" lon="6.71755">
        <ele>1417.6</ele>
        <time>2019-08-03T16:18:33Z</time>
      </trkpt>
      <trkpt lat="45.77899" lon="6.71776">
        <ele>1420.97</ele>
        <time>2019-08-03T16:18:42Z</time>
      </trkpt>
      <trkpt lat="45.77899" lon="6.7178">
        <ele>1421.45</ele>
        <time>2019-08-03T16:18:44Z</time>
      </trkpt>
      <trkpt lat="45.779" lon="6.71782">
        <ele>1422.41</ele>
        <time>2019-08-03T16:18:45Z</time>
      </trkpt>
      <trkpt lat="45.779" lon="6.71784">
        <ele>1422.41</ele>
        <time>2019-08-03T16:18:46Z</time>
      </trkpt>
      <trkpt lat="45.779" lon="6.71787">
        <ele>1422.89</ele>
        <time>2019-08-03T16:18:47Z</time>
      </trkpt>
      <trkpt lat="45.77901" lon="6.71791">
        <ele>1423.37</ele>
        <time>2019-08-03T16:18:48Z</time>
      </trkpt>
      <trkpt lat="45.77902" lon="6.71793">
        <ele>1423.37</ele>
        <time>2019-08-03T16:18:49Z</time>
      </trkpt>
      <trkpt lat="45.77903" lon="6.71796">
        <ele>1423.85</ele>
        <time>2019-08-03T16:18:50Z</time>
      </trkpt>
      <trkpt lat="45.77906" lon="6.71808">
        <ele>1425.77</ele>
        <time>2019-08-03T16:18:55Z</time>
      </trkpt>
      <trkpt lat="45.77906" lon="6.7181">
        <ele>1425.77</ele>
        <time>2019-08-03T16:18:56Z</time>
      </trkpt>
      <trkpt lat="45.77906" lon="6.71811">
        <ele>1426.25</ele>
        <time>2019-08-03T16:18:57Z</time>
      </trkpt>
      <trkpt lat="45.77906" lon="6.71826">
        <ele>1428.66</ele>
        <time>2019-08-03T16:19:04Z</time>
      </trkpt>
      <trkpt lat="45.7791" lon="6.71832">
        <ele>1430.58</ele>
        <time>2019-08-03T16:19:09Z</time>
      </trkpt>
      <trkpt lat="45.77911" lon="6.71833">
        <ele>1430.58</ele>
        <time>2019-08-03T16:19:10Z</time>
      </trkpt>
      <trkpt lat="45.77912" lon="6.71834">
        <ele>1431.06</ele>
        <time>2019-08-03T16:19:11Z</time>
      </trkpt>
      <trkpt lat="45.77913" lon="6.71836">
        <ele>1431.06</ele>
        <time>2019-08-03T16:19:12Z</time>
      </trkpt>
      <trkpt lat="45.77914" lon="6.71837">
        <ele>1431.54</ele>
        <time>2019-08-03T16:19:13Z</time>
      </trkpt>
      <trkpt lat="45.77915" lon="6.71838">
        <ele>1432.02</ele>
        <time>2019-08-03T16:19:14Z</time>
      </trkpt>
      <trkpt lat="45.77916" lon="6.7184">
        <ele>1432.02</ele>
        <time>2019-08-03T16:19:15Z</time>
      </trkpt>
      <trkpt lat="45.77919" lon="6.71845">
        <ele>1432.98</ele>
        <time>2019-08-03T16:19:18Z</time>
      </trkpt>
      <trkpt lat="45.7792" lon="6.71846">
        <ele>1432.98</ele>
        <time>2019-08-03T16:19:19Z</time>
      </trkpt>
      <trkpt lat="45.77926" lon="6.71853">
        <ele>1434.91</ele>
        <time>2019-08-03T16:19:25Z</time>
      </trkpt>
      <trkpt lat="45.77927" lon="6.71855">
        <ele>1435.39</ele>
        <time>2019-08-03T16:19:26Z</time>
      </trkpt>
      <trkpt lat="45.7793" lon="6.71859">
        <ele>1435.87</ele>
        <time>2019-08-03T16:19:30Z</time>
      </trkpt>
      <trkpt lat="45.7793" lon="6.7186">
        <ele>1435.87</ele>
        <time>2019-08-03T16:19:31Z</time>
      </trkpt>
      <trkpt lat="45.77934" lon="6.71865">
        <ele>1436.83</ele>
        <time>2019-08-03T16:19:39Z</time>
      </trkpt>
      <trkpt lat="45.77935" lon="6.71867">
        <ele>1436.83</ele>
        <time>2019-08-03T16:19:40Z</time>
      </trkpt>
      <trkpt lat="45.77937" lon="6.71869">
        <ele>1436.83</ele>
        <time>2019-08-03T16:19:41Z</time>
      </trkpt>
      <trkpt lat="45.77954" lon="6.71884">
        <ele>1439.23</ele>
        <time>2019-08-03T16:19:53Z</time>
      </trkpt>
      <trkpt lat="45.77957" lon="6.71895">
        <ele>1440.67</ele>
        <time>2019-08-03T16:20:12Z</time>
      </trkpt>
      <trkpt lat="45.7796" lon="6.71903">
        <ele>1441.15</ele>
        <time>2019-08-03T16:20:57Z</time>
      </trkpt>
      <trkpt lat="45.77961" lon="6.71903">
        <ele>1441.15</ele>
        <time>2019-08-03T16:20:58Z</time>
      </trkpt>
      <trkpt lat="45.77972" lon="6.71908">
        <ele>1442.11</ele>
        <time>2019-08-03T16:21:07Z</time>
      </trkpt>
      <trkpt lat="45.77975" lon="6.71908">
        <ele>1442.6</ele>
        <time>2019-08-03T16:21:11Z</time>
      </trkpt>
      <trkpt lat="45.77991" lon="6.71914">
        <ele>1444.52</ele>
        <time>2019-08-03T16:21:36Z</time>
      </trkpt>
      <trkpt lat="45.77997" lon="6.71944">
        <ele>1446.92</ele>
        <time>2019-08-03T16:21:53Z</time>
      </trkpt>
      <trkpt lat="45.77997" lon="6.71946">
        <ele>1447.4</ele>
        <time>2019-08-03T16:21:54Z</time>
      </trkpt>
      <trkpt lat="45.77997" lon="6.71948">
        <ele>1447.4</ele>
        <time>2019-08-03T16:21:55Z</time>
      </trkpt>
      <trkpt lat="45.77996" lon="6.71951">
        <ele>1447.88</ele>
        <time>2019-08-03T16:21:58Z</time>
      </trkpt>
      <trkpt lat="45.77995" lon="6.71953">
        <ele>1447.88</ele>
        <time>2019-08-03T16:21:59Z</time>
      </trkpt>
      <trkpt lat="45.77984" lon="6.71971">
        <ele>1450.77</ele>
        <time>2019-08-03T16:22:12Z</time>
      </trkpt>
      <trkpt lat="45.7797" lon="6.71984">
        <ele>1454.13</ele>
        <time>2019-08-03T16:22:27Z</time>
      </trkpt>
      <trkpt lat="45.77958" lon="6.71987">
        <ele>1457.5</ele>
        <time>2019-08-03T16:22:39Z</time>
      </trkpt>
      <trkpt lat="45.77944" lon="6.71992">
        <ele>1460.38</ele>
        <time>2019-08-03T16:22:55Z</time>
      </trkpt>
      <trkpt lat="45.77943" lon="6.71993">
        <ele>1460.86</ele>
        <time>2019-08-03T16:22:56Z</time>
      </trkpt>
      <trkpt lat="45.77935" lon="6.72009">
        <ele>1463.74</ele>
        <time>2019-08-03T16:23:11Z</time>
      </trkpt>
      <trkpt lat="45.77933" lon="6.72024">
        <ele>1465.19</ele>
        <time>2019-08-03T16:23:21Z</time>
      </trkpt>
      <trkpt lat="45.77932" lon="6.72026">
        <ele>1465.19</ele>
        <time>2019-08-03T16:23:22Z</time>
      </trkpt>
      <trkpt lat="45.77924" lon="6.7205">
        <ele>1466.63</ele>
        <time>2019-08-03T16:23:38Z</time>
      </trkpt>
      <trkpt lat="45.77923" lon="6.72052">
        <ele>1466.63</ele>
        <time>2019-08-03T16:23:39Z</time>
      </trkpt>
      <trkpt lat="45.77923" lon="6.72054">
        <ele>1466.63</ele>
        <time>2019-08-03T16:23:40Z</time>
      </trkpt>
      <trkpt lat="45.77922" lon="6.72056">
        <ele>1466.63</ele>
        <time>2019-08-03T16:23:41Z</time>
      </trkpt>
      <trkpt lat="45.77922" lon="6.72058">
        <ele>1466.63</ele>
        <time>2019-08-03T16:23:42Z</time>
      </trkpt>
      <trkpt lat="45.7792" lon="6.72059">
        <ele>1466.63</ele>
        <time>2019-08-03T16:23:43Z</time>
      </trkpt>
      <trkpt lat="45.77919" lon="6.72061">
        <ele>1466.63</ele>
        <time>2019-08-03T16:23:44Z</time>
      </trkpt>
      <trkpt lat="45.77918" lon="6.72062">
        <ele>1466.63</ele>
        <time>2019-08-03T16:23:45Z</time>
      </trkpt>
      <trkpt lat="45.77917" lon="6.72064">
        <ele>1466.63</ele>
        <time>2019-08-03T16:23:46Z</time>
      </trkpt>
      <trkpt lat="45.77917" lon="6.72065">
        <ele>1466.63</ele>
        <time>2019-08-03T16:23:47Z</time>
      </trkpt>
      <trkpt lat="45.77917" lon="6.72067">
        <ele>1466.15</ele>
        <time>2019-08-03T16:23:48Z</time>
      </trkpt>
      <trkpt lat="45.77917" lon="6.72068">
        <ele>1466.15</ele>
        <time>2019-08-03T16:23:49Z</time>
      </trkpt>
      <trkpt lat="45.77917" lon="6.72069">
        <ele>1466.15</ele>
        <time>2019-08-03T16:23:50Z</time>
      </trkpt>
      <trkpt lat="45.77918" lon="6.7207">
        <ele>1465.67</ele>
        <time>2019-08-03T16:23:51Z</time>
      </trkpt>
      <trkpt lat="45.7792" lon="6.72072">
        <ele>1465.19</ele>
        <time>2019-08-03T16:23:52Z</time>
      </trkpt>
      <trkpt lat="45.77931" lon="6.72099">
        <ele>1465.67</ele>
        <time>2019-08-03T16:24:03Z</time>
      </trkpt>
      <trkpt lat="45.77935" lon="6.72108">
        <ele>1466.15</ele>
        <time>2019-08-03T16:24:07Z</time>
      </trkpt>
      <trkpt lat="45.7794" lon="6.72139">
        <ele>1467.59</ele>
        <time>2019-08-03T16:24:18Z</time>
      </trkpt>
      <trkpt lat="45.77947" lon="6.7217">
        <ele>1467.11</ele>
        <time>2019-08-03T16:24:30Z</time>
      </trkpt>
      <trkpt lat="45.77964" lon="6.72198">
        <ele>1464.23</ele>
        <time>2019-08-03T16:24:40Z</time>
      </trkpt>
      <trkpt lat="45.77965" lon="6.72202">
        <ele>1463.74</ele>
        <time>2019-08-03T16:24:41Z</time>
      </trkpt>
      <trkpt lat="45.77966" lon="6.72206">
        <ele>1463.26</ele>
        <time>2019-08-03T16:24:42Z</time>
      </trkpt>
      <trkpt lat="45.77967" lon="6.72208">
        <ele>1462.78</ele>
        <time>2019-08-03T16:24:43Z</time>
      </trkpt>
      <trkpt lat="45.77968" lon="6.7221">
        <ele>1462.78</ele>
        <time>2019-08-03T16:24:44Z</time>
      </trkpt>
      <trkpt lat="45.7797" lon="6.72212">
        <ele>1462.3</ele>
        <time>2019-08-03T16:24:45Z</time>
      </trkpt>
      <trkpt lat="45.77973" lon="6.72213">
        <ele>1462.3</ele>
        <time>2019-08-03T16:24:46Z</time>
      </trkpt>
      <trkpt lat="45.77975" lon="6.72214">
        <ele>1462.3</ele>
        <time>2019-08-03T16:24:47Z</time>
      </trkpt>
      <trkpt lat="45.77978" lon="6.72216">
        <ele>1462.3</ele>
        <time>2019-08-03T16:24:48Z</time>
      </trkpt>
      <trkpt lat="45.77981" lon="6.72217">
        <ele>1462.3</ele>
        <time>2019-08-03T16:24:49Z</time>
      </trkpt>
      <trkpt lat="45.77982" lon="6.72218">
        <ele>1462.3</ele>
        <time>2019-08-03T16:24:50Z</time>
      </trkpt>
      <trkpt lat="45.77983" lon="6.7222">
        <ele>1462.3</ele>
        <time>2019-08-03T16:24:51Z</time>
      </trkpt>
      <trkpt lat="45.77983" lon="6.72223">
        <ele>1461.82</ele>
        <time>2019-08-03T16:24:52Z</time>
      </trkpt>
      <trkpt lat="45.77984" lon="6.72225">
        <ele>1461.82</ele>
        <time>2019-08-03T16:24:53Z</time>
      </trkpt>
      <trkpt lat="45.77985" lon="6.72227">
        <ele>1461.34</ele>
        <time>2019-08-03T16:24:54Z</time>
      </trkpt>
      <trkpt lat="45.77986" lon="6.72228">
        <ele>1461.34</ele>
        <time>2019-08-03T16:24:55Z</time>
      </trkpt>
      <trkpt lat="45.77993" lon="6.72232">
        <ele>1461.34</ele>
        <time>2019-08-03T16:25:02Z</time>
      </trkpt>
      <trkpt lat="45.77995" lon="6.72232">
        <ele>1461.34</ele>
        <time>2019-08-03T16:25:04Z</time>
      </trkpt>
      <trkpt lat="45.78008" lon="6.72228">
        <ele>1460.86</ele>
        <time>2019-08-03T16:25:50Z</time>
      </trkpt>
      <trkpt lat="45.78013" lon="6.72231">
        <ele>1460.38</ele>
        <time>2019-08-03T16:26:44Z</time>
      </trkpt>
      <trkpt lat="45.78025" lon="6.72243">
        <ele>1461.82</ele>
        <time>2019-08-03T16:27:26Z</time>
      </trkpt>
      <trkpt lat="45.78028" lon="6.72263">
        <ele>1465.19</ele>
        <time>2019-08-03T16:27:55Z</time>
      </trkpt>
      <trkpt lat="45.78032" lon="6.72269">
        <ele>1468.07</ele>
        <time>2019-08-03T16:28:05Z</time>
      </trkpt>
      <trkpt lat="45.78032" lon="6.72274">
        <ele>1469.03</ele>
        <time>2019-08-03T16:28:09Z</time>
      </trkpt>
      <trkpt lat="45.78032" lon="6.72275">
        <ele>1469.51</ele>
        <time>2019-08-03T16:28:10Z</time>
      </trkpt>
      <trkpt lat="45.78035" lon="6.72291">
        <ele>1472.4</ele>
        <time>2019-08-03T16:28:25Z</time>
      </trkpt>
      <trkpt lat="45.78041" lon="6.7229">
        <ele>1475.76</ele>
        <time>2019-08-03T16:28:40Z</time>
      </trkpt>
      <trkpt lat="45.78044" lon="6.72294">
        <ele>1476.72</ele>
        <time>2019-08-03T16:28:44Z</time>
      </trkpt>
      <trkpt lat="45.78045" lon="6.72295">
        <ele>1477.2</ele>
        <time>2019-08-03T16:28:45Z</time>
      </trkpt>
      <trkpt lat="45.78044" lon="6.72296">
        <ele>1477.2</ele>
        <time>2019-08-03T16:28:46Z</time>
      </trkpt>
      <trkpt lat="45.78048" lon="6.72313">
        <ele>1480.57</ele>
        <time>2019-08-03T16:29:00Z</time>
      </trkpt>
      <trkpt lat="45.78051" lon="6.72325">
        <ele>1483.45</ele>
        <time>2019-08-03T16:29:13Z</time>
      </trkpt>
      <trkpt lat="45.78054" lon="6.72339">
        <ele>1486.82</ele>
        <time>2019-08-03T16:29:27Z</time>
      </trkpt>
      <trkpt lat="45.78061" lon="6.72351">
        <ele>1489.7</ele>
        <time>2019-08-03T16:29:42Z</time>
      </trkpt>
      <trkpt lat="45.78067" lon="6.72358">
        <ele>1492.58</ele>
        <time>2019-08-03T16:29:58Z</time>
      </trkpt>
      <trkpt lat="45.78075" lon="6.72368">
        <ele>1495.95</ele>
        <time>2019-08-03T16:30:14Z</time>
      </trkpt>
      <trkpt lat="45.78081" lon="6.72373">
        <ele>1498.83</ele>
        <time>2019-08-03T16:30:32Z</time>
      </trkpt>
      <trkpt lat="45.7808" lon="6.72371">
        <ele>1500.27</ele>
        <time>2019-08-03T16:30:40Z</time>
      </trkpt>
      <trkpt lat="45.78081" lon="6.72373">
        <ele>1501.72</ele>
        <time>2019-08-03T16:30:47Z</time>
      </trkpt>
      <trkpt lat="45.78091" lon="6.72382">
        <ele>1504.6</ele>
        <time>2019-08-03T16:31:03Z</time>
      </trkpt>
      <trkpt lat="45.78097" lon="6.72393">
        <ele>1507.97</ele>
        <time>2019-08-03T16:31:18Z</time>
      </trkpt>
      <trkpt lat="45.78101" lon="6.72383">
        <ele>1510.85</ele>
        <time>2019-08-03T16:31:33Z</time>
      </trkpt>
      <trkpt lat="45.78103" lon="6.72384">
        <ele>1510.85</ele>
        <time>2019-08-03T16:31:34Z</time>
      </trkpt>
      <trkpt lat="45.78112" lon="6.72387">
        <ele>1511.33</ele>
        <time>2019-08-03T16:31:52Z</time>
      </trkpt>
      <trkpt lat="45.78113" lon="6.72387">
        <ele>1511.33</ele>
        <time>2019-08-03T16:31:53Z</time>
      </trkpt>
      <trkpt lat="45.78128" lon="6.7239">
        <ele>1514.21</ele>
        <time>2019-08-03T16:32:13Z</time>
      </trkpt>
      <trkpt lat="45.7813" lon="6.7239">
        <ele>1514.21</ele>
        <time>2019-08-03T16:32:16Z</time>
      </trkpt>
      <trkpt lat="45.78131" lon="6.72391">
        <ele>1514.21</ele>
        <time>2019-08-03T16:32:17Z</time>
      </trkpt>
      <trkpt lat="45.78139" lon="6.72387">
        <ele>1517.58</ele>
        <time>2019-08-03T16:32:33Z</time>
      </trkpt>
      <trkpt lat="45.78151" lon="6.72391">
        <ele>1518.54</ele>
        <time>2019-08-03T16:33:00Z</time>
      </trkpt>
      <trkpt lat="45.78152" lon="6.7239">
        <ele>1518.54</ele>
        <time>2019-08-03T16:33:01Z</time>
      </trkpt>
      <trkpt lat="45.7816" lon="6.7239">
        <ele>1521.9</ele>
        <time>2019-08-03T16:33:16Z</time>
      </trkpt>
      <trkpt lat="45.78163" lon="6.72394">
        <ele>1525.27</ele>
        <time>2019-08-03T16:33:28Z</time>
      </trkpt>
      <trkpt lat="45.78168" lon="6.72401">
        <ele>1528.15</ele>
        <time>2019-08-03T16:33:39Z</time>
      </trkpt>
      <trkpt lat="45.7817" lon="6.72401">
        <ele>1528.63</ele>
        <time>2019-08-03T16:33:42Z</time>
      </trkpt>
      <trkpt lat="45.78177" lon="6.72404">
        <ele>1532</ele>
        <time>2019-08-03T16:33:56Z</time>
      </trkpt>
      <trkpt lat="45.78183" lon="6.7241">
        <ele>1534.88</ele>
        <time>2019-08-03T16:34:10Z</time>
      </trkpt>
      <trkpt lat="45.78183" lon="6.7241">
        <ele>1536.32</ele>
        <time>2019-08-03T16:34:19Z</time>
      </trkpt>
      <trkpt lat="45.78182" lon="6.72407">
        <ele>1536.8</ele>
        <time>2019-08-03T16:34:24Z</time>
      </trkpt>
      <trkpt lat="45.78191" lon="6.72426">
        <ele>1539.69</ele>
        <time>2019-08-03T16:34:55Z</time>
      </trkpt>
      <trkpt lat="45.78197" lon="6.72433">
        <ele>1541.61</ele>
        <time>2019-08-03T16:35:04Z</time>
      </trkpt>
      <trkpt lat="45.78197" lon="6.72434">
        <ele>1541.61</ele>
        <time>2019-08-03T16:35:05Z</time>
      </trkpt>
      <trkpt lat="45.78198" lon="6.72435">
        <ele>1541.61</ele>
        <time>2019-08-03T16:35:06Z</time>
      </trkpt>
      <trkpt lat="45.78209" lon="6.72447">
        <ele>1544.5</ele>
        <time>2019-08-03T16:35:28Z</time>
      </trkpt>
      <trkpt lat="45.7822" lon="6.72453">
        <ele>1547.86</ele>
        <time>2019-08-03T16:35:47Z</time>
      </trkpt>
      <trkpt lat="45.7824" lon="6.72469">
        <ele>1548.34</ele>
        <time>2019-08-03T16:36:07Z</time>
      </trkpt>
      <trkpt lat="45.78242" lon="6.72472">
        <ele>1548.82</ele>
        <time>2019-08-03T16:36:09Z</time>
      </trkpt>
      <trkpt lat="45.78242" lon="6.72472">
        <ele>1548.82</ele>
        <time>2019-08-03T16:36:10Z</time>
      </trkpt>
      <trkpt lat="45.78243" lon="6.72472">
        <ele>1548.82</ele>
        <time>2019-08-03T16:36:11Z</time>
      </trkpt>
      <trkpt lat="45.78244" lon="6.72473">
        <ele>1548.82</ele>
        <time>2019-08-03T16:36:12Z</time>
      </trkpt>
      <trkpt lat="45.78245" lon="6.72474">
        <ele>1548.82</ele>
        <time>2019-08-03T16:36:13Z</time>
      </trkpt>
      <trkpt lat="45.78246" lon="6.72475">
        <ele>1548.82</ele>
        <time>2019-08-03T16:36:14Z</time>
      </trkpt>
      <trkpt lat="45.78248" lon="6.72476">
        <ele>1549.3</ele>
        <time>2019-08-03T16:36:15Z</time>
      </trkpt>
      <trkpt lat="45.78248" lon="6.72478">
        <ele>1549.3</ele>
        <time>2019-08-03T16:36:16Z</time>
      </trkpt>
      <trkpt lat="45.7825" lon="6.72479">
        <ele>1549.78</ele>
        <time>2019-08-03T16:36:17Z</time>
      </trkpt>
      <trkpt lat="45.78251" lon="6.72479">
        <ele>1549.78</ele>
        <time>2019-08-03T16:36:18Z</time>
      </trkpt>
      <trkpt lat="45.78252" lon="6.72479">
        <ele>1549.78</ele>
        <time>2019-08-03T16:36:19Z</time>
      </trkpt>
      <trkpt lat="45.78271" lon="6.72489">
        <ele>1553.15</ele>
        <time>2019-08-03T16:36:32Z</time>
      </trkpt>
      <trkpt lat="45.78273" lon="6.7249">
        <ele>1553.63</ele>
        <time>2019-08-03T16:36:33Z</time>
      </trkpt>
      <trkpt lat="45.78278" lon="6.72496">
        <ele>1556.51</ele>
        <time>2019-08-03T16:36:41Z</time>
      </trkpt>
      <trkpt lat="45.78287" lon="6.72508">
        <ele>1559.88</ele>
        <time>2019-08-03T16:36:53Z</time>
      </trkpt>
      <trkpt lat="45.78285" lon="6.7251">
        <ele>1560.84</ele>
        <time>2019-08-03T16:36:56Z</time>
      </trkpt>
      <trkpt lat="45.78284" lon="6.72511">
        <ele>1560.84</ele>
        <time>2019-08-03T16:36:57Z</time>
      </trkpt>
      <trkpt lat="45.78281" lon="6.72511">
        <ele>1562.76</ele>
        <time>2019-08-03T16:37:04Z</time>
      </trkpt>
      <trkpt lat="45.78281" lon="6.72512">
        <ele>1563.24</ele>
        <time>2019-08-03T16:37:05Z</time>
      </trkpt>
      <trkpt lat="45.78279" lon="6.72515">
        <ele>1564.2</ele>
        <time>2019-08-03T16:37:08Z</time>
      </trkpt>
      <trkpt lat="45.78279" lon="6.72517">
        <ele>1564.2</ele>
        <time>2019-08-03T16:37:09Z</time>
      </trkpt>
      <trkpt lat="45.78279" lon="6.72518">
        <ele>1564.68</ele>
        <time>2019-08-03T16:37:10Z</time>
      </trkpt>
      <trkpt lat="45.7828" lon="6.7252">
        <ele>1565.16</ele>
        <time>2019-08-03T16:37:11Z</time>
      </trkpt>
      <trkpt lat="45.7828" lon="6.72522">
        <ele>1565.16</ele>
        <time>2019-08-03T16:37:12Z</time>
      </trkpt>
      <trkpt lat="45.78281" lon="6.72525">
        <ele>1565.16</ele>
        <time>2019-08-03T16:37:13Z</time>
      </trkpt>
      <trkpt lat="45.78281" lon="6.72527">
        <ele>1565.64</ele>
        <time>2019-08-03T16:37:14Z</time>
      </trkpt>
      <trkpt lat="45.78283" lon="6.72531">
        <ele>1566.12</ele>
        <time>2019-08-03T16:37:17Z</time>
      </trkpt>
      <trkpt lat="45.78285" lon="6.72531">
        <ele>1566.12</ele>
        <time>2019-08-03T16:37:18Z</time>
      </trkpt>
      <trkpt lat="45.78286" lon="6.72531">
        <ele>1566.12</ele>
        <time>2019-08-03T16:37:19Z</time>
      </trkpt>
      <trkpt lat="45.78287" lon="6.7253">
        <ele>1566.61</ele>
        <time>2019-08-03T16:37:20Z</time>
      </trkpt>
      <trkpt lat="45.78289" lon="6.72531">
        <ele>1566.61</ele>
        <time>2019-08-03T16:37:21Z</time>
      </trkpt>
      <trkpt lat="45.78291" lon="6.72531">
        <ele>1566.61</ele>
        <time>2019-08-03T16:37:22Z</time>
      </trkpt>
      <trkpt lat="45.78293" lon="6.72532">
        <ele>1567.09</ele>
        <time>2019-08-03T16:37:24Z</time>
      </trkpt>
      <trkpt lat="45.78302" lon="6.72538">
        <ele>1569.01</ele>
        <time>2019-08-03T16:37:32Z</time>
      </trkpt>
      <trkpt lat="45.78303" lon="6.72539">
        <ele>1569.49</ele>
        <time>2019-08-03T16:37:33Z</time>
      </trkpt>
      <trkpt lat="45.7831" lon="6.72546">
        <ele>1570.45</ele>
        <time>2019-08-03T16:37:40Z</time>
      </trkpt>
      <trkpt lat="45.78311" lon="6.72547">
        <ele>1570.45</ele>
        <time>2019-08-03T16:37:41Z</time>
      </trkpt>
      <trkpt lat="45.78312" lon="6.72548">
        <ele>1570.93</ele>
        <time>2019-08-03T16:37:42Z</time>
      </trkpt>
      <trkpt lat="45.78318" lon="6.72552">
        <ele>1572.85</ele>
        <time>2019-08-03T16:37:49Z</time>
      </trkpt>
      <trkpt lat="45.78319" lon="6.72552">
        <ele>1573.33</ele>
        <time>2019-08-03T16:37:50Z</time>
      </trkpt>
      <trkpt lat="45.78321" lon="6.72552">
        <ele>1573.82</ele>
        <time>2019-08-03T16:37:51Z</time>
      </trkpt>
      <trkpt lat="45.78322" lon="6.72553">
        <ele>1574.3</ele>
        <time>2019-08-03T16:37:52Z</time>
      </trkpt>
      <trkpt lat="45.78325" lon="6.72555">
        <ele>1574.3</ele>
        <time>2019-08-03T16:37:54Z</time>
      </trkpt>
      <trkpt lat="45.78326" lon="6.72556">
        <ele>1574.3</ele>
        <time>2019-08-03T16:37:55Z</time>
      </trkpt>
      <trkpt lat="45.78327" lon="6.72557">
        <ele>1574.78</ele>
        <time>2019-08-03T16:37:56Z</time>
      </trkpt>
      <trkpt lat="45.78332" lon="6.72559">
        <ele>1576.22</ele>
        <time>2019-08-03T16:38:00Z</time>
      </trkpt>
      <trkpt lat="45.78334" lon="6.72558">
        <ele>1576.22</ele>
        <time>2019-08-03T16:38:01Z</time>
      </trkpt>
      <trkpt lat="45.78334" lon="6.72556">
        <ele>1576.7</ele>
        <time>2019-08-03T16:38:02Z</time>
      </trkpt>
      <trkpt lat="45.78335" lon="6.72555">
        <ele>1576.7</ele>
        <time>2019-08-03T16:38:03Z</time>
      </trkpt>
      <trkpt lat="45.78337" lon="6.72555">
        <ele>1577.18</ele>
        <time>2019-08-03T16:38:04Z</time>
      </trkpt>
      <trkpt lat="45.78337" lon="6.72554">
        <ele>1577.66</ele>
        <time>2019-08-03T16:38:05Z</time>
      </trkpt>
      <trkpt lat="45.78341" lon="6.72559">
        <ele>1579.1</ele>
        <time>2019-08-03T16:38:10Z</time>
      </trkpt>
      <trkpt lat="45.78345" lon="6.72561">
        <ele>1581.03</ele>
        <time>2019-08-03T16:38:15Z</time>
      </trkpt>
      <trkpt lat="45.78346" lon="6.72557">
        <ele>1581.99</ele>
        <time>2019-08-03T16:38:18Z</time>
      </trkpt>
      <trkpt lat="45.78347" lon="6.72557">
        <ele>1581.99</ele>
        <time>2019-08-03T16:38:19Z</time>
      </trkpt>
      <trkpt lat="45.78348" lon="6.72553">
        <ele>1583.43</ele>
        <time>2019-08-03T16:38:22Z</time>
      </trkpt>
      <trkpt lat="45.78356" lon="6.72558">
        <ele>1586.31</ele>
        <time>2019-08-03T16:38:34Z</time>
      </trkpt>
      <trkpt lat="45.78364" lon="6.72558">
        <ele>1589.2</ele>
        <time>2019-08-03T16:38:48Z</time>
      </trkpt>
      <trkpt lat="45.78367" lon="6.72556">
        <ele>1592.56</ele>
        <time>2019-08-03T16:39:01Z</time>
      </trkpt>
      <trkpt lat="45.78371" lon="6.72552">
        <ele>1594.48</ele>
        <time>2019-08-03T16:39:09Z</time>
      </trkpt>
      <trkpt lat="45.78372" lon="6.72552">
        <ele>1594.48</ele>
        <time>2019-08-03T16:39:10Z</time>
      </trkpt>
      <trkpt lat="45.7838" lon="6.72558">
        <ele>1597.85</ele>
        <time>2019-08-03T16:39:25Z</time>
      </trkpt>
      <trkpt lat="45.78385" lon="6.72557">
        <ele>1601.21</ele>
        <time>2019-08-03T16:39:39Z</time>
      </trkpt>
      <trkpt lat="45.78388" lon="6.72561">
        <ele>1604.1</ele>
        <time>2019-08-03T16:39:54Z</time>
      </trkpt>
      <trkpt lat="45.78393" lon="6.72555">
        <ele>1606.98</ele>
        <time>2019-08-03T16:40:09Z</time>
      </trkpt>
      <trkpt lat="45.78399" lon="6.72555">
        <ele>1609.86</ele>
        <time>2019-08-03T16:40:23Z</time>
      </trkpt>
      <trkpt lat="45.78404" lon="6.7256">
        <ele>1613.23</ele>
        <time>2019-08-03T16:40:37Z</time>
      </trkpt>
      <trkpt lat="45.78411" lon="6.72561">
        <ele>1616.59</ele>
        <time>2019-08-03T16:40:53Z</time>
      </trkpt>
      <trkpt lat="45.78417" lon="6.72554">
        <ele>1618.52</ele>
        <time>2019-08-03T16:41:29Z</time>
      </trkpt>
      <trkpt lat="45.78416" lon="6.72553">
        <ele>1618.52</ele>
        <time>2019-08-03T16:41:48Z</time>
      </trkpt>
      <trkpt lat="45.78416" lon="6.72554">
        <ele>1618.04</ele>
        <time>2019-08-03T16:42:01Z</time>
      </trkpt>
      <trkpt lat="45.78418" lon="6.72555">
        <ele>1618.52</ele>
        <time>2019-08-03T16:42:17Z</time>
      </trkpt>
      <trkpt lat="45.78418" lon="6.72556">
        <ele>1618.52</ele>
        <time>2019-08-03T16:42:37Z</time>
      </trkpt>
      <trkpt lat="45.78417" lon="6.72557">
        <ele>1618.04</ele>
        <time>2019-08-03T16:42:57Z</time>
      </trkpt>
      <trkpt lat="45.78417" lon="6.72557">
        <ele>1616.59</ele>
        <time>2019-08-03T16:43:17Z</time>
      </trkpt>
      <trkpt lat="45.78417" lon="6.72558">
        <ele>1619</ele>
        <time>2019-08-03T16:45:15Z</time>
      </trkpt>
      <trkpt lat="45.78418" lon="6.72556">
        <ele>1619</ele>
        <time>2019-08-03T16:46:41Z</time>
      </trkpt>
      <trkpt lat="45.78418" lon="6.72556">
        <ele>1618.04</ele>
        <time>2019-08-03T16:47:03Z</time>
      </trkpt>
      <trkpt lat="45.78419" lon="6.72555">
        <ele>1619</ele>
        <time>2019-08-03T16:47:26Z</time>
      </trkpt>
      <trkpt lat="45.78418" lon="6.72555">
        <ele>1619</ele>
        <time>2019-08-03T16:47:49Z</time>
      </trkpt>
      <trkpt lat="45.78418" lon="6.72555">
        <ele>1619</ele>
        <time>2019-08-03T16:48:08Z</time>
      </trkpt>
      <trkpt lat="45.78417" lon="6.72555">
        <ele>1619</ele>
        <time>2019-08-03T16:48:34Z</time>
      </trkpt>
      <trkpt lat="45.78415" lon="6.7256">
        <ele>1619</ele>
        <time>2019-08-03T16:49:40Z</time>
      </trkpt>
      <trkpt lat="45.78416" lon="6.72565">
        <ele>1619</ele>
        <time>2019-08-03T16:49:48Z</time>
      </trkpt>
      <trkpt lat="45.78416" lon="6.72576">
        <ele>1622.36</ele>
        <time>2019-08-03T16:50:02Z</time>
      </trkpt>
      <trkpt lat="45.78412" lon="6.72585">
        <ele>1625.25</ele>
        <time>2019-08-03T16:50:17Z</time>
      </trkpt>
      <trkpt lat="45.7842" lon="6.72589">
        <ele>1628.61</ele>
        <time>2019-08-03T16:50:33Z</time>
      </trkpt>
      <trkpt lat="45.78424" lon="6.72593">
        <ele>1631.49</ele>
        <time>2019-08-03T16:50:48Z</time>
      </trkpt>
      <trkpt lat="45.78425" lon="6.72594">
        <ele>1631.98</ele>
        <time>2019-08-03T16:50:51Z</time>
      </trkpt>
      <trkpt lat="45.78417" lon="6.726">
        <ele>1634.86</ele>
        <time>2019-08-03T16:51:05Z</time>
      </trkpt>
      <trkpt lat="45.78413" lon="6.72604">
        <ele>1635.82</ele>
        <time>2019-08-03T16:51:11Z</time>
      </trkpt>
      <trkpt lat="45.78411" lon="6.72619">
        <ele>1639.19</ele>
        <time>2019-08-03T16:51:28Z</time>
      </trkpt>
      <trkpt lat="45.78411" lon="6.72623">
        <ele>1639.67</ele>
        <time>2019-08-03T16:51:31Z</time>
      </trkpt>
      <trkpt lat="45.78411" lon="6.72624">
        <ele>1639.67</ele>
        <time>2019-08-03T16:51:32Z</time>
      </trkpt>
      <trkpt lat="45.78417" lon="6.7264">
        <ele>1643.03</ele>
        <time>2019-08-03T16:51:49Z</time>
      </trkpt>
      <trkpt lat="45.78422" lon="6.72654">
        <ele>1646.4</ele>
        <time>2019-08-03T16:52:03Z</time>
      </trkpt>
      <trkpt lat="45.78425" lon="6.72664">
        <ele>1649.28</ele>
        <time>2019-08-03T16:52:19Z</time>
      </trkpt>
      <trkpt lat="45.78418" lon="6.72675">
        <ele>1652.16</ele>
        <time>2019-08-03T16:52:35Z</time>
      </trkpt>
      <trkpt lat="45.78417" lon="6.72685">
        <ele>1655.53</ele>
        <time>2019-08-03T16:52:51Z</time>
      </trkpt>
      <trkpt lat="45.78415" lon="6.72697">
        <ele>1658.41</ele>
        <time>2019-08-03T16:53:08Z</time>
      </trkpt>
      <trkpt lat="45.78413" lon="6.72706">
        <ele>1661.78</ele>
        <time>2019-08-03T16:53:23Z</time>
      </trkpt>
      <trkpt lat="45.78415" lon="6.7272">
        <ele>1664.66</ele>
        <time>2019-08-03T16:53:41Z</time>
      </trkpt>
      <trkpt lat="45.78412" lon="6.72734">
        <ele>1668.02</ele>
        <time>2019-08-03T16:53:58Z</time>
      </trkpt>
      <trkpt lat="45.78416" lon="6.72742">
        <ele>1670.43</ele>
        <time>2019-08-03T16:54:13Z</time>
      </trkpt>
      <trkpt lat="45.78418" lon="6.72743">
        <ele>1671.87</ele>
        <time>2019-08-03T16:54:19Z</time>
      </trkpt>
      <trkpt lat="45.7842" lon="6.72752">
        <ele>1674.75</ele>
        <time>2019-08-03T16:54:33Z</time>
      </trkpt>
      <trkpt lat="45.78423" lon="6.72759">
        <ele>1678.12</ele>
        <time>2019-08-03T16:54:48Z</time>
      </trkpt>
      <trkpt lat="45.78431" lon="6.72762">
        <ele>1680.52</ele>
        <time>2019-08-03T16:55:01Z</time>
      </trkpt>
      <trkpt lat="45.78431" lon="6.72763">
        <ele>1680.52</ele>
        <time>2019-08-03T16:55:02Z</time>
      </trkpt>
      <trkpt lat="45.78433" lon="6.72766">
        <ele>1681.48</ele>
        <time>2019-08-03T16:55:05Z</time>
      </trkpt>
      <trkpt lat="45.78429" lon="6.72775">
        <ele>1684.37</ele>
        <time>2019-08-03T16:55:19Z</time>
      </trkpt>
      <trkpt lat="45.78431" lon="6.72782">
        <ele>1687.25</ele>
        <time>2019-08-03T16:55:35Z</time>
      </trkpt>
      <trkpt lat="45.78438" lon="6.72779">
        <ele>1690.62</ele>
        <time>2019-08-03T16:55:52Z</time>
      </trkpt>
      <trkpt lat="45.78442" lon="6.72779">
        <ele>1692.06</ele>
        <time>2019-08-03T16:55:58Z</time>
      </trkpt>
      <trkpt lat="45.78449" lon="6.72783">
        <ele>1694.94</ele>
        <time>2019-08-03T16:56:10Z</time>
      </trkpt>
      <trkpt lat="45.7845" lon="6.72785">
        <ele>1695.42</ele>
        <time>2019-08-03T16:56:13Z</time>
      </trkpt>
      <trkpt lat="45.7845" lon="6.72794">
        <ele>1698.79</ele>
        <time>2019-08-03T16:56:29Z</time>
      </trkpt>
      <trkpt lat="45.78455" lon="6.72791">
        <ele>1701.67</ele>
        <time>2019-08-03T16:56:44Z</time>
      </trkpt>
      <trkpt lat="45.7846" lon="6.7279">
        <ele>1705.04</ele>
        <time>2019-08-03T16:57:01Z</time>
      </trkpt>
      <trkpt lat="45.78465" lon="6.72798">
        <ele>1707.92</ele>
        <time>2019-08-03T16:57:16Z</time>
      </trkpt>
      <trkpt lat="45.7847" lon="6.72798">
        <ele>1710.8</ele>
        <time>2019-08-03T16:57:30Z</time>
      </trkpt>
      <trkpt lat="45.7847" lon="6.72805">
        <ele>1713.69</ele>
        <time>2019-08-03T16:57:43Z</time>
      </trkpt>
      <trkpt lat="45.78477" lon="6.72806">
        <ele>1716.57</ele>
        <time>2019-08-03T16:57:59Z</time>
      </trkpt>
      <trkpt lat="45.7848" lon="6.72814">
        <ele>1719.94</ele>
        <time>2019-08-03T16:58:14Z</time>
      </trkpt>
      <trkpt lat="45.78481" lon="6.72814">
        <ele>1721.38</ele>
        <time>2019-08-03T16:58:21Z</time>
      </trkpt>
      <trkpt lat="45.78488" lon="6.72816">
        <ele>1724.26</ele>
        <time>2019-08-03T16:58:36Z</time>
      </trkpt>
      <trkpt lat="45.78492" lon="6.72824">
        <ele>1727.63</ele>
        <time>2019-08-03T16:58:52Z</time>
      </trkpt>
      <trkpt lat="45.78495" lon="6.72827">
        <ele>1728.59</ele>
        <time>2019-08-03T16:58:57Z</time>
      </trkpt>
      <trkpt lat="45.78499" lon="6.72829">
        <ele>1731.95</ele>
        <time>2019-08-03T16:59:13Z</time>
      </trkpt>
      <trkpt lat="45.78499" lon="6.72827">
        <ele>1732.43</ele>
        <time>2019-08-03T16:59:15Z</time>
      </trkpt>
      <trkpt lat="45.78507" lon="6.72826">
        <ele>1735.32</ele>
        <time>2019-08-03T16:59:31Z</time>
      </trkpt>
      <trkpt lat="45.7851" lon="6.72816">
        <ele>1738.68</ele>
        <time>2019-08-03T16:59:50Z</time>
      </trkpt>
      <trkpt lat="45.78518" lon="6.72821">
        <ele>1741.57</ele>
        <time>2019-08-03T17:00:07Z</time>
      </trkpt>
      <trkpt lat="45.78525" lon="6.72819">
        <ele>1744.93</ele>
        <time>2019-08-03T17:00:21Z</time>
      </trkpt>
      <trkpt lat="45.78527" lon="6.72819">
        <ele>1745.41</ele>
        <time>2019-08-03T17:00:24Z</time>
      </trkpt>
      <trkpt lat="45.78535" lon="6.72817">
        <ele>1748.29</ele>
        <time>2019-08-03T17:00:40Z</time>
      </trkpt>
      <trkpt lat="45.78541" lon="6.72823">
        <ele>1751.18</ele>
        <time>2019-08-03T17:00:57Z</time>
      </trkpt>
      <trkpt lat="45.78547" lon="6.72827">
        <ele>1754.54</ele>
        <time>2019-08-03T17:01:12Z</time>
      </trkpt>
      <trkpt lat="45.78552" lon="6.72824">
        <ele>1757.43</ele>
        <time>2019-08-03T17:01:28Z</time>
      </trkpt>
      <trkpt lat="45.78561" lon="6.72831">
        <ele>1760.31</ele>
        <time>2019-08-03T17:01:47Z</time>
      </trkpt>
      <trkpt lat="45.78562" lon="6.72837">
        <ele>1762.71</ele>
        <time>2019-08-03T17:02:00Z</time>
      </trkpt>
      <trkpt lat="45.78566" lon="6.72849">
        <ele>1765.6</ele>
        <time>2019-08-03T17:02:19Z</time>
      </trkpt>
      <trkpt lat="45.78573" lon="6.72851">
        <ele>1768.48</ele>
        <time>2019-08-03T17:02:36Z</time>
      </trkpt>
      <trkpt lat="45.78576" lon="6.7285">
        <ele>1771.85</ele>
        <time>2019-08-03T17:03:20Z</time>
      </trkpt>
      <trkpt lat="45.78586" lon="6.72857">
        <ele>1775.21</ele>
        <time>2019-08-03T17:03:39Z</time>
      </trkpt>
      <trkpt lat="45.78591" lon="6.72866">
        <ele>1778.1</ele>
        <time>2019-08-03T17:03:56Z</time>
      </trkpt>
      <trkpt lat="45.78602" lon="6.72863">
        <ele>1780.98</ele>
        <time>2019-08-03T17:04:12Z</time>
      </trkpt>
      <trkpt lat="45.78604" lon="6.72868">
        <ele>1784.34</ele>
        <time>2019-08-03T17:04:28Z</time>
      </trkpt>
      <trkpt lat="45.78609" lon="6.72876">
        <ele>1787.71</ele>
        <time>2019-08-03T17:04:43Z</time>
      </trkpt>
      <trkpt lat="45.78618" lon="6.72885">
        <ele>1790.59</ele>
        <time>2019-08-03T17:05:01Z</time>
      </trkpt>
      <trkpt lat="45.78627" lon="6.72893">
        <ele>1793.48</ele>
        <time>2019-08-03T17:05:19Z</time>
      </trkpt>
      <trkpt lat="45.78632" lon="6.72894">
        <ele>1794.92</ele>
        <time>2019-08-03T17:05:25Z</time>
      </trkpt>
      <trkpt lat="45.78633" lon="6.72894">
        <ele>1794.92</ele>
        <time>2019-08-03T17:05:26Z</time>
      </trkpt>
      <trkpt lat="45.78634" lon="6.72894">
        <ele>1795.4</ele>
        <time>2019-08-03T17:05:27Z</time>
      </trkpt>
      <trkpt lat="45.78641" lon="6.72905">
        <ele>1798.28</ele>
        <time>2019-08-03T17:05:43Z</time>
      </trkpt>
      <trkpt lat="45.78644" lon="6.72918">
        <ele>1801.17</ele>
        <time>2019-08-03T17:06:02Z</time>
      </trkpt>
      <trkpt lat="45.78643" lon="6.72926">
        <ele>1801.65</ele>
        <time>2019-08-03T17:06:07Z</time>
      </trkpt>
      <trkpt lat="45.78645" lon="6.72961">
        <ele>1804.53</ele>
        <time>2019-08-03T17:06:40Z</time>
      </trkpt>
      <trkpt lat="45.7865" lon="6.72976">
        <ele>1807.42</ele>
        <time>2019-08-03T17:07:03Z</time>
      </trkpt>
      <trkpt lat="45.78656" lon="6.72989">
        <ele>1810.78</ele>
        <time>2019-08-03T17:07:23Z</time>
      </trkpt>
      <trkpt lat="45.78663" lon="6.72997">
        <ele>1813.66</ele>
        <time>2019-08-03T17:07:40Z</time>
      </trkpt>
      <trkpt lat="45.78669" lon="6.73">
        <ele>1817.03</ele>
        <time>2019-08-03T17:07:58Z</time>
      </trkpt>
      <trkpt lat="45.78676" lon="6.72995">
        <ele>1819.91</ele>
        <time>2019-08-03T17:08:16Z</time>
      </trkpt>
      <trkpt lat="45.78682" lon="6.72997">
        <ele>1822.8</ele>
        <time>2019-08-03T17:08:35Z</time>
      </trkpt>
      <trkpt lat="45.78683" lon="6.72999">
        <ele>1823.76</ele>
        <time>2019-08-03T17:08:38Z</time>
      </trkpt>
      <trkpt lat="45.78686" lon="6.73008">
        <ele>1826.16</ele>
        <time>2019-08-03T17:08:53Z</time>
      </trkpt>
      <trkpt lat="45.78694" lon="6.73016">
        <ele>1829.05</ele>
        <time>2019-08-03T17:09:12Z</time>
      </trkpt>
      <trkpt lat="45.78702" lon="6.73017">
        <ele>1832.41</ele>
        <time>2019-08-03T17:09:29Z</time>
      </trkpt>
      <trkpt lat="45.7871" lon="6.73019">
        <ele>1835.29</ele>
        <time>2019-08-03T17:09:45Z</time>
      </trkpt>
      <trkpt lat="45.78719" lon="6.73021">
        <ele>1838.18</ele>
        <time>2019-08-03T17:09:59Z</time>
      </trkpt>
      <trkpt lat="45.78731" lon="6.73028">
        <ele>1841.06</ele>
        <time>2019-08-03T17:10:16Z</time>
      </trkpt>
      <trkpt lat="45.78738" lon="6.73027">
        <ele>1844.43</ele>
        <time>2019-08-03T17:10:30Z</time>
      </trkpt>
      <trkpt lat="45.78746" lon="6.73027">
        <ele>1847.31</ele>
        <time>2019-08-03T17:10:47Z</time>
      </trkpt>
      <trkpt lat="45.78756" lon="6.73029">
        <ele>1849.71</ele>
        <time>2019-08-03T17:11:00Z</time>
      </trkpt>
      <trkpt lat="45.78765" lon="6.73034">
        <ele>1853.08</ele>
        <time>2019-08-03T17:11:16Z</time>
      </trkpt>
      <trkpt lat="45.78774" lon="6.73035">
        <ele>1855.96</ele>
        <time>2019-08-03T17:11:33Z</time>
      </trkpt>
      <trkpt lat="45.78777" lon="6.73028">
        <ele>1859.33</ele>
        <time>2019-08-03T17:11:47Z</time>
      </trkpt>
      <trkpt lat="45.78783" lon="6.73024">
        <ele>1861.25</ele>
        <time>2019-08-03T17:11:59Z</time>
      </trkpt>
      <trkpt lat="45.78784" lon="6.73024">
        <ele>1861.73</ele>
        <time>2019-08-03T17:12:00Z</time>
      </trkpt>
      <trkpt lat="45.78785" lon="6.73025">
        <ele>1861.73</ele>
        <time>2019-08-03T17:12:01Z</time>
      </trkpt>
      <trkpt lat="45.78801" lon="6.73035">
        <ele>1863.65</ele>
        <time>2019-08-03T17:12:25Z</time>
      </trkpt>
      <trkpt lat="45.78816" lon="6.73052">
        <ele>1867.02</ele>
        <time>2019-08-03T17:12:54Z</time>
      </trkpt>
      <trkpt lat="45.78825" lon="6.73066">
        <ele>1869.9</ele>
        <time>2019-08-03T17:13:14Z</time>
      </trkpt>
      <trkpt lat="45.78836" lon="6.73078">
        <ele>1872.79</ele>
        <time>2019-08-03T17:13:35Z</time>
      </trkpt>
      <trkpt lat="45.78848" lon="6.7309">
        <ele>1876.15</ele>
        <time>2019-08-03T17:13:57Z</time>
      </trkpt>
      <trkpt lat="45.7885" lon="6.73093">
        <ele>1879.03</ele>
        <time>2019-08-03T17:14:15Z</time>
      </trkpt>
      <trkpt lat="45.78853" lon="6.73096">
        <ele>1880.48</ele>
        <time>2019-08-03T17:14:25Z</time>
      </trkpt>
      <trkpt lat="45.78866" lon="6.73097">
        <ele>1883.84</ele>
        <time>2019-08-03T17:14:48Z</time>
      </trkpt>
      <trkpt lat="45.7888" lon="6.73091">
        <ele>1886.72</ele>
        <time>2019-08-03T17:15:07Z</time>
      </trkpt>
      <trkpt lat="45.78894" lon="6.73102">
        <ele>1890.09</ele>
        <time>2019-08-03T17:15:28Z</time>
      </trkpt>
      <trkpt lat="45.78901" lon="6.73113">
        <ele>1890.57</ele>
        <time>2019-08-03T17:15:41Z</time>
      </trkpt>
      <trkpt lat="45.78913" lon="6.73125">
        <ele>1893.45</ele>
        <time>2019-08-03T17:16:00Z</time>
      </trkpt>
      <trkpt lat="45.78918" lon="6.73137">
        <ele>1895.86</ele>
        <time>2019-08-03T17:16:20Z</time>
      </trkpt>
      <trkpt lat="45.78916" lon="6.73136">
        <ele>1895.38</ele>
        <time>2019-08-03T17:18:13Z</time>
      </trkpt>
      <trkpt lat="45.78926" lon="6.73146">
        <ele>1895.38</ele>
        <time>2019-08-03T17:20:09Z</time>
      </trkpt>
      <trkpt lat="45.78927" lon="6.73147">
        <ele>1895.86</ele>
        <time>2019-08-03T17:20:10Z</time>
      </trkpt>
      <trkpt lat="45.78928" lon="6.73148">
        <ele>1895.86</ele>
        <time>2019-08-03T17:20:11Z</time>
      </trkpt>
      <trkpt lat="45.78929" lon="6.73149">
        <ele>1895.38</ele>
        <time>2019-08-03T17:20:12Z</time>
      </trkpt>
      <trkpt lat="45.7893" lon="6.7315">
        <ele>1895.38</ele>
        <time>2019-08-03T17:20:13Z</time>
      </trkpt>
      <trkpt lat="45.78944" lon="6.73168">
        <ele>1894.42</ele>
        <time>2019-08-03T17:20:26Z</time>
      </trkpt>
      <trkpt lat="45.7896" lon="6.73185">
        <ele>1894.9</ele>
        <time>2019-08-03T17:20:36Z</time>
      </trkpt>
      <trkpt lat="45.78975" lon="6.73207">
        <ele>1892.97</ele>
        <time>2019-08-03T17:20:43Z</time>
      </trkpt>
      <trkpt lat="45.78991" lon="6.73227">
        <ele>1892.97</ele>
        <time>2019-08-03T17:20:52Z</time>
      </trkpt>
      <trkpt lat="45.79002" lon="6.73243">
        <ele>1892.49</ele>
        <time>2019-08-03T17:20:59Z</time>
      </trkpt>
      <trkpt lat="45.79004" lon="6.73245">
        <ele>1892.49</ele>
        <time>2019-08-03T17:21:00Z</time>
      </trkpt>
      <trkpt lat="45.79007" lon="6.73247">
        <ele>1892.49</ele>
        <time>2019-08-03T17:21:01Z</time>
      </trkpt>
      <trkpt lat="45.79009" lon="6.73249">
        <ele>1892.01</ele>
        <time>2019-08-03T17:21:02Z</time>
      </trkpt>
      <trkpt lat="45.79011" lon="6.73251">
        <ele>1892.49</ele>
        <time>2019-08-03T17:21:03Z</time>
      </trkpt>
      <trkpt lat="45.79029" lon="6.73266">
        <ele>1895.38</ele>
        <time>2019-08-03T17:21:16Z</time>
      </trkpt>
      <trkpt lat="45.79041" lon="6.73295">
        <ele>1898.26</ele>
        <time>2019-08-03T17:21:27Z</time>
      </trkpt>
      <trkpt lat="45.79042" lon="6.73297">
        <ele>1898.26</ele>
        <time>2019-08-03T17:21:28Z</time>
      </trkpt>
      <trkpt lat="45.79043" lon="6.73298">
        <ele>1898.74</ele>
        <time>2019-08-03T17:21:29Z</time>
      </trkpt>
      <trkpt lat="45.79045" lon="6.73299">
        <ele>1899.22</ele>
        <time>2019-08-03T17:21:30Z</time>
      </trkpt>
      <trkpt lat="45.79047" lon="6.733">
        <ele>1899.22</ele>
        <time>2019-08-03T17:21:31Z</time>
      </trkpt>
      <trkpt lat="45.79053" lon="6.73305">
        <ele>1901.63</ele>
        <time>2019-08-03T17:21:36Z</time>
      </trkpt>
      <trkpt lat="45.79053" lon="6.73306">
        <ele>1901.63</ele>
        <time>2019-08-03T17:21:37Z</time>
      </trkpt>
      <trkpt lat="45.79054" lon="6.73307">
        <ele>1902.11</ele>
        <time>2019-08-03T17:21:38Z</time>
      </trkpt>
      <trkpt lat="45.79055" lon="6.7331">
        <ele>1902.59</ele>
        <time>2019-08-03T17:21:40Z</time>
      </trkpt>
      <trkpt lat="45.79055" lon="6.73311">
        <ele>1902.59</ele>
        <time>2019-08-03T17:21:41Z</time>
      </trkpt>
      <trkpt lat="45.79057" lon="6.73313">
        <ele>1902.59</ele>
        <time>2019-08-03T17:21:43Z</time>
      </trkpt>
      <trkpt lat="45.79058" lon="6.73314">
        <ele>1903.07</ele>
        <time>2019-08-03T17:21:44Z</time>
      </trkpt>
      <trkpt lat="45.79059" lon="6.73315">
        <ele>1903.07</ele>
        <time>2019-08-03T17:21:45Z</time>
      </trkpt>
      <trkpt lat="45.7906" lon="6.73315">
        <ele>1903.55</ele>
        <time>2019-08-03T17:21:46Z</time>
      </trkpt>
      <trkpt lat="45.7906" lon="6.73315">
        <ele>1904.03</ele>
        <time>2019-08-03T17:21:47Z</time>
      </trkpt>
      <trkpt lat="45.79061" lon="6.73316">
        <ele>1904.03</ele>
        <time>2019-08-03T17:21:48Z</time>
      </trkpt>
      <trkpt lat="45.79065" lon="6.73325">
        <ele>1905.47</ele>
        <time>2019-08-03T17:21:59Z</time>
      </trkpt>
      <trkpt lat="45.79069" lon="6.73329">
        <ele>1905.95</ele>
        <time>2019-08-03T17:22:31Z</time>
      </trkpt>
      <trkpt lat="45.79069" lon="6.73332">
        <ele>1905.95</ele>
        <time>2019-08-03T17:22:32Z</time>
      </trkpt>
      <trkpt lat="45.7907" lon="6.73334">
        <ele>1905.95</ele>
        <time>2019-08-03T17:22:33Z</time>
      </trkpt>
      <trkpt lat="45.79071" lon="6.73337">
        <ele>1905.95</ele>
        <time>2019-08-03T17:22:34Z</time>
      </trkpt>
      <trkpt lat="45.79072" lon="6.73339">
        <ele>1905.95</ele>
        <time>2019-08-03T17:22:35Z</time>
      </trkpt>
      <trkpt lat="45.79072" lon="6.73342">
        <ele>1905.95</ele>
        <time>2019-08-03T17:22:36Z</time>
      </trkpt>
      <trkpt lat="45.79073" lon="6.73344">
        <ele>1905.95</ele>
        <time>2019-08-03T17:22:37Z</time>
      </trkpt>
      <trkpt lat="45.79078" lon="6.73355">
        <ele>1906.91</ele>
        <time>2019-08-03T17:22:42Z</time>
      </trkpt>
      <trkpt lat="45.79079" lon="6.73356">
        <ele>1907.39</ele>
        <time>2019-08-03T17:22:43Z</time>
      </trkpt>
      <trkpt lat="45.79079" lon="6.73357">
        <ele>1907.39</ele>
        <time>2019-08-03T17:22:44Z</time>
      </trkpt>
      <trkpt lat="45.79081" lon="6.73358">
        <ele>1907.39</ele>
        <time>2019-08-03T17:22:45Z</time>
      </trkpt>
      <trkpt lat="45.79082" lon="6.7336">
        <ele>1907.87</ele>
        <time>2019-08-03T17:22:46Z</time>
      </trkpt>
      <trkpt lat="45.79083" lon="6.73361">
        <ele>1908.35</ele>
        <time>2019-08-03T17:22:47Z</time>
      </trkpt>
      <trkpt lat="45.79087" lon="6.73375">
        <ele>1911.24</ele>
        <time>2019-08-03T17:22:57Z</time>
      </trkpt>
      <trkpt lat="45.79089" lon="6.7338">
        <ele>1912.2</ele>
        <time>2019-08-03T17:23:00Z</time>
      </trkpt>
      <trkpt lat="45.7909" lon="6.73382">
        <ele>1912.2</ele>
        <time>2019-08-03T17:23:01Z</time>
      </trkpt>
      <trkpt lat="45.79091" lon="6.73384">
        <ele>1912.2</ele>
        <time>2019-08-03T17:23:02Z</time>
      </trkpt>
      <trkpt lat="45.79092" lon="6.73386">
        <ele>1912.68</ele>
        <time>2019-08-03T17:23:03Z</time>
      </trkpt>
      <trkpt lat="45.79093" lon="6.73389">
        <ele>1912.68</ele>
        <time>2019-08-03T17:23:04Z</time>
      </trkpt>
      <trkpt lat="45.79094" lon="6.73391">
        <ele>1913.16</ele>
        <time>2019-08-03T17:23:05Z</time>
      </trkpt>
      <trkpt lat="45.79095" lon="6.73394">
        <ele>1913.16</ele>
        <time>2019-08-03T17:23:06Z</time>
      </trkpt>
      <trkpt lat="45.79095" lon="6.73396">
        <ele>1913.16</ele>
        <time>2019-08-03T17:23:07Z</time>
      </trkpt>
      <trkpt lat="45.79108" lon="6.73417">
        <ele>1916.04</ele>
        <time>2019-08-03T17:23:20Z</time>
      </trkpt>
      <trkpt lat="45.79118" lon="6.73422">
        <ele>1918.93</ele>
        <time>2019-08-03T17:23:28Z</time>
      </trkpt>
      <trkpt lat="45.79119" lon="6.73422">
        <ele>1919.41</ele>
        <time>2019-08-03T17:23:29Z</time>
      </trkpt>
      <trkpt lat="45.7912" lon="6.73422">
        <ele>1919.41</ele>
        <time>2019-08-03T17:23:30Z</time>
      </trkpt>
      <trkpt lat="45.79121" lon="6.73422">
        <ele>1919.89</ele>
        <time>2019-08-03T17:23:31Z</time>
      </trkpt>
      <trkpt lat="45.79122" lon="6.73422">
        <ele>1919.89</ele>
        <time>2019-08-03T17:23:32Z</time>
      </trkpt>
      <trkpt lat="45.79122" lon="6.73424">
        <ele>1920.37</ele>
        <time>2019-08-03T17:23:33Z</time>
      </trkpt>
      <trkpt lat="45.79123" lon="6.73424">
        <ele>1920.37</ele>
        <time>2019-08-03T17:23:34Z</time>
      </trkpt>
      <trkpt lat="45.79124" lon="6.73425">
        <ele>1920.37</ele>
        <time>2019-08-03T17:23:35Z</time>
      </trkpt>
      <trkpt lat="45.79126" lon="6.73426">
        <ele>1920.85</ele>
        <time>2019-08-03T17:23:36Z</time>
      </trkpt>
      <trkpt lat="45.79127" lon="6.73427">
        <ele>1921.33</ele>
        <time>2019-08-03T17:23:37Z</time>
      </trkpt>
      <trkpt lat="45.79131" lon="6.73431">
        <ele>1922.29</ele>
        <time>2019-08-03T17:23:41Z</time>
      </trkpt>
      <trkpt lat="45.79132" lon="6.7343">
        <ele>1922.77</ele>
        <time>2019-08-03T17:23:42Z</time>
      </trkpt>
      <trkpt lat="45.79133" lon="6.73431">
        <ele>1922.77</ele>
        <time>2019-08-03T17:23:43Z</time>
      </trkpt>
      <trkpt lat="45.79134" lon="6.73431">
        <ele>1922.77</ele>
        <time>2019-08-03T17:23:44Z</time>
      </trkpt>
      <trkpt lat="45.79135" lon="6.73432">
        <ele>1923.25</ele>
        <time>2019-08-03T17:23:45Z</time>
      </trkpt>
      <trkpt lat="45.79136" lon="6.73433">
        <ele>1923.74</ele>
        <time>2019-08-03T17:23:46Z</time>
      </trkpt>
      <trkpt lat="45.79136" lon="6.73434">
        <ele>1924.22</ele>
        <time>2019-08-03T17:23:47Z</time>
      </trkpt>
      <trkpt lat="45.79136" lon="6.73436">
        <ele>1924.22</ele>
        <time>2019-08-03T17:23:48Z</time>
      </trkpt>
      <trkpt lat="45.79136" lon="6.73446">
        <ele>1926.14</ele>
        <time>2019-08-03T17:23:56Z</time>
      </trkpt>
      <trkpt lat="45.79137" lon="6.73447">
        <ele>1926.62</ele>
        <time>2019-08-03T17:23:57Z</time>
      </trkpt>
      <trkpt lat="45.79137" lon="6.73449">
        <ele>1926.62</ele>
        <time>2019-08-03T17:23:58Z</time>
      </trkpt>
      <trkpt lat="45.79138" lon="6.7345">
        <ele>1927.1</ele>
        <time>2019-08-03T17:23:59Z</time>
      </trkpt>
      <trkpt lat="45.79139" lon="6.73451">
        <ele>1927.58</ele>
        <time>2019-08-03T17:24:00Z</time>
      </trkpt>
      <trkpt lat="45.7914" lon="6.73452">
        <ele>1927.58</ele>
        <time>2019-08-03T17:24:01Z</time>
      </trkpt>
      <trkpt lat="45.79141" lon="6.73453">
        <ele>1928.06</ele>
        <time>2019-08-03T17:24:02Z</time>
      </trkpt>
      <trkpt lat="45.79142" lon="6.73454">
        <ele>1928.54</ele>
        <time>2019-08-03T17:24:03Z</time>
      </trkpt>
      <trkpt lat="45.79142" lon="6.73455">
        <ele>1929.02</ele>
        <time>2019-08-03T17:24:04Z</time>
      </trkpt>
      <trkpt lat="45.79143" lon="6.73457">
        <ele>1929.5</ele>
        <time>2019-08-03T17:24:05Z</time>
      </trkpt>
      <trkpt lat="45.79144" lon="6.73458">
        <ele>1929.98</ele>
        <time>2019-08-03T17:24:06Z</time>
      </trkpt>
      <trkpt lat="45.79146" lon="6.7346">
        <ele>1930.46</ele>
        <time>2019-08-03T17:24:08Z</time>
      </trkpt>
      <trkpt lat="45.79149" lon="6.73461">
        <ele>1930.95</ele>
        <time>2019-08-03T17:24:10Z</time>
      </trkpt>
      <trkpt lat="45.7915" lon="6.73463">
        <ele>1931.43</ele>
        <time>2019-08-03T17:24:11Z</time>
      </trkpt>
      <trkpt lat="45.7915" lon="6.73465">
        <ele>1931.43</ele>
        <time>2019-08-03T17:24:12Z</time>
      </trkpt>
      <trkpt lat="45.79151" lon="6.73467">
        <ele>1931.43</ele>
        <time>2019-08-03T17:24:13Z</time>
      </trkpt>
      <trkpt lat="45.79152" lon="6.73469">
        <ele>1931.43</ele>
        <time>2019-08-03T17:24:14Z</time>
      </trkpt>
      <trkpt lat="45.79153" lon="6.73472">
        <ele>1931.43</ele>
        <time>2019-08-03T17:24:15Z</time>
      </trkpt>
      <trkpt lat="45.79168" lon="6.73489">
        <ele>1932.39</ele>
        <time>2019-08-03T17:24:25Z</time>
      </trkpt>
      <trkpt lat="45.79169" lon="6.7349">
        <ele>1932.87</ele>
        <time>2019-08-03T17:24:26Z</time>
      </trkpt>
      <trkpt lat="45.79164" lon="6.73498">
        <ele>1933.35</ele>
        <time>2019-08-03T17:26:42Z</time>
      </trkpt>
      <trkpt lat="45.79165" lon="6.73498">
        <ele>1933.35</ele>
        <time>2019-08-03T17:29:09Z</time>
      </trkpt>
      <trkpt lat="45.79167" lon="6.73498">
        <ele>1934.31</ele>
        <time>2019-08-03T17:30:19Z</time>
      </trkpt>
      <trkpt lat="45.79172" lon="6.735">
        <ele>1934.31</ele>
        <time>2019-08-03T17:30:24Z</time>
      </trkpt>
      <trkpt lat="45.79173" lon="6.73501">
        <ele>1933.83</ele>
        <time>2019-08-03T17:30:25Z</time>
      </trkpt>
      <trkpt lat="45.79174" lon="6.73502">
        <ele>1933.83</ele>
        <time>2019-08-03T17:30:26Z</time>
      </trkpt>
      <trkpt lat="45.79174" lon="6.73503">
        <ele>1933.35</ele>
        <time>2019-08-03T17:30:27Z</time>
      </trkpt>
      <trkpt lat="45.79175" lon="6.73504">
        <ele>1933.35</ele>
        <time>2019-08-03T17:30:28Z</time>
      </trkpt>
      <trkpt lat="45.79176" lon="6.73505">
        <ele>1932.87</ele>
        <time>2019-08-03T17:30:29Z</time>
      </trkpt>
      <trkpt lat="45.79179" lon="6.73507">
        <ele>1932.87</ele>
        <time>2019-08-03T17:30:53Z</time>
      </trkpt>
      <trkpt lat="45.7918" lon="6.73508">
        <ele>1932.87</ele>
        <time>2019-08-03T17:30:54Z</time>
      </trkpt>
      <trkpt lat="45.79181" lon="6.73508">
        <ele>1932.39</ele>
        <time>2019-08-03T17:30:55Z</time>
      </trkpt>
      <trkpt lat="45.79182" lon="6.73509">
        <ele>1932.39</ele>
        <time>2019-08-03T17:30:56Z</time>
      </trkpt>
      <trkpt lat="45.79183" lon="6.73509">
        <ele>1932.39</ele>
        <time>2019-08-03T17:30:57Z</time>
      </trkpt>
      <trkpt lat="45.79191" lon="6.7353">
        <ele>1930.46</ele>
        <time>2019-08-03T17:31:11Z</time>
      </trkpt>
      <trkpt lat="45.79192" lon="6.73531">
        <ele>1930.46</ele>
        <time>2019-08-03T17:31:12Z</time>
      </trkpt>
      <trkpt lat="45.79193" lon="6.73533">
        <ele>1929.98</ele>
        <time>2019-08-03T17:31:13Z</time>
      </trkpt>
      <trkpt lat="45.79202" lon="6.73542">
        <ele>1928.06</ele>
        <time>2019-08-03T17:31:23Z</time>
      </trkpt>
      <trkpt lat="45.79203" lon="6.73543">
        <ele>1927.58</ele>
        <time>2019-08-03T17:31:24Z</time>
      </trkpt>
      <trkpt lat="45.79212" lon="6.73551">
        <ele>1925.66</ele>
        <time>2019-08-03T17:31:32Z</time>
      </trkpt>
      <trkpt lat="45.79213" lon="6.73551">
        <ele>1926.14</ele>
        <time>2019-08-03T17:31:33Z</time>
      </trkpt>
      <trkpt lat="45.79215" lon="6.73551">
        <ele>1926.14</ele>
        <time>2019-08-03T17:31:34Z</time>
      </trkpt>
      <trkpt lat="45.79216" lon="6.73552">
        <ele>1926.14</ele>
        <time>2019-08-03T17:31:35Z</time>
      </trkpt>
      <trkpt lat="45.79217" lon="6.73552">
        <ele>1926.62</ele>
        <time>2019-08-03T17:31:36Z</time>
      </trkpt>
      <trkpt lat="45.79223" lon="6.73556">
        <ele>1924.22</ele>
        <time>2019-08-03T17:34:17Z</time>
      </trkpt>
      <trkpt lat="45.79222" lon="6.73555">
        <ele>1924.7</ele>
        <time>2019-08-03T17:34:54Z</time>
      </trkpt>
      <trkpt lat="45.79225" lon="6.7356">
        <ele>1926.14</ele>
        <time>2019-08-03T17:35:28Z</time>
      </trkpt>
      <trkpt lat="45.79226" lon="6.73562">
        <ele>1926.14</ele>
        <time>2019-08-03T17:35:30Z</time>
      </trkpt>
      <trkpt lat="45.79226" lon="6.73563">
        <ele>1926.14</ele>
        <time>2019-08-03T17:35:31Z</time>
      </trkpt>
      <trkpt lat="45.79227" lon="6.73565">
        <ele>1926.14</ele>
        <time>2019-08-03T17:35:32Z</time>
      </trkpt>
      <trkpt lat="45.79236" lon="6.73584">
        <ele>1925.18</ele>
        <time>2019-08-03T17:35:47Z</time>
      </trkpt>
      <trkpt lat="45.79237" lon="6.73585">
        <ele>1925.18</ele>
        <time>2019-08-03T17:35:48Z</time>
      </trkpt>
      <trkpt lat="45.79237" lon="6.73587">
        <ele>1925.18</ele>
        <time>2019-08-03T17:35:49Z</time>
      </trkpt>
      <trkpt lat="45.79238" lon="6.73588">
        <ele>1925.18</ele>
        <time>2019-08-03T17:35:50Z</time>
      </trkpt>
      <trkpt lat="45.79239" lon="6.73589">
        <ele>1925.18</ele>
        <time>2019-08-03T17:35:51Z</time>
      </trkpt>
      <trkpt lat="45.7924" lon="6.73591">
        <ele>1925.18</ele>
        <time>2019-08-03T17:35:52Z</time>
      </trkpt>
      <trkpt lat="45.79241" lon="6.73594">
        <ele>1925.18</ele>
        <time>2019-08-03T17:35:53Z</time>
      </trkpt>
      <trkpt lat="45.79242" lon="6.73597">
        <ele>1925.18</ele>
        <time>2019-08-03T17:35:54Z</time>
      </trkpt>
      <trkpt lat="45.79244" lon="6.73599">
        <ele>1925.18</ele>
        <time>2019-08-03T17:35:55Z</time>
      </trkpt>
      <trkpt lat="45.79247" lon="6.73601">
        <ele>1925.18</ele>
        <time>2019-08-03T17:35:56Z</time>
      </trkpt>
      <trkpt lat="45.79249" lon="6.73602">
        <ele>1925.18</ele>
        <time>2019-08-03T17:35:57Z</time>
      </trkpt>
      <trkpt lat="45.79252" lon="6.73604">
        <ele>1925.18</ele>
        <time>2019-08-03T17:35:58Z</time>
      </trkpt>
      <trkpt lat="45.79254" lon="6.73607">
        <ele>1925.18</ele>
        <time>2019-08-03T17:35:59Z</time>
      </trkpt>
      <trkpt lat="45.79256" lon="6.7361">
        <ele>1925.18</ele>
        <time>2019-08-03T17:36:00Z</time>
      </trkpt>
      <trkpt lat="45.79258" lon="6.73614">
        <ele>1925.18</ele>
        <time>2019-08-03T17:36:01Z</time>
      </trkpt>
      <trkpt lat="45.79271" lon="6.73637">
        <ele>1924.7</ele>
        <time>2019-08-03T17:36:09Z</time>
      </trkpt>
      <trkpt lat="45.7929" lon="6.7365">
        <ele>1924.22</ele>
        <time>2019-08-03T17:36:17Z</time>
      </trkpt>
      <trkpt lat="45.79309" lon="6.73659">
        <ele>1923.25</ele>
        <time>2019-08-03T17:36:24Z</time>
      </trkpt>
      <trkpt lat="45.79324" lon="6.7367">
        <ele>1922.29</ele>
        <time>2019-08-03T17:36:30Z</time>
      </trkpt>
      <trkpt lat="45.79342" lon="6.7368">
        <ele>1921.33</ele>
        <time>2019-08-03T17:36:37Z</time>
      </trkpt>
      <trkpt lat="45.79361" lon="6.73692">
        <ele>1919.89</ele>
        <time>2019-08-03T17:36:45Z</time>
      </trkpt>
      <trkpt lat="45.79379" lon="6.73701">
        <ele>1917.49</ele>
        <time>2019-08-03T17:36:52Z</time>
      </trkpt>
      <trkpt lat="45.79398" lon="6.73709">
        <ele>1915.56</ele>
        <time>2019-08-03T17:36:59Z</time>
      </trkpt>
      <trkpt lat="45.7941" lon="6.73715">
        <ele>1914.12</ele>
        <time>2019-08-03T17:37:04Z</time>
      </trkpt>
      <trkpt lat="45.79413" lon="6.73715">
        <ele>1914.12</ele>
        <time>2019-08-03T17:37:05Z</time>
      </trkpt>
      <trkpt lat="45.79415" lon="6.73714">
        <ele>1913.64</ele>
        <time>2019-08-03T17:37:06Z</time>
      </trkpt>
      <trkpt lat="45.79418" lon="6.73714">
        <ele>1913.64</ele>
        <time>2019-08-03T17:37:07Z</time>
      </trkpt>
      <trkpt lat="45.7942" lon="6.73713">
        <ele>1913.16</ele>
        <time>2019-08-03T17:37:08Z</time>
      </trkpt>
      <trkpt lat="45.79423" lon="6.73712">
        <ele>1912.68</ele>
        <time>2019-08-03T17:37:09Z</time>
      </trkpt>
      <trkpt lat="45.79425" lon="6.73712">
        <ele>1912.2</ele>
        <time>2019-08-03T17:37:10Z</time>
      </trkpt>
      <trkpt lat="45.79427" lon="6.73711">
        <ele>1912.2</ele>
        <time>2019-08-03T17:37:11Z</time>
      </trkpt>
      <trkpt lat="45.79429" lon="6.73711">
        <ele>1911.72</ele>
        <time>2019-08-03T17:37:12Z</time>
      </trkpt>
      <trkpt lat="45.79449" lon="6.73718">
        <ele>1909.8</ele>
        <time>2019-08-03T17:37:21Z</time>
      </trkpt>
      <trkpt lat="45.79451" lon="6.7372">
        <ele>1909.32</ele>
        <time>2019-08-03T17:37:22Z</time>
      </trkpt>
      <trkpt lat="45.79454" lon="6.7373">
        <ele>1907.87</ele>
        <time>2019-08-03T17:37:27Z</time>
      </trkpt>
      <trkpt lat="45.79456" lon="6.73731">
        <ele>1907.39</ele>
        <time>2019-08-03T17:37:28Z</time>
      </trkpt>
      <trkpt lat="45.79459" lon="6.73733">
        <ele>1906.91</ele>
        <time>2019-08-03T17:37:29Z</time>
      </trkpt>
      <trkpt lat="45.79461" lon="6.73734">
        <ele>1906.43</ele>
        <time>2019-08-03T17:37:30Z</time>
      </trkpt>
      <trkpt lat="45.79463" lon="6.73736">
        <ele>1906.43</ele>
        <time>2019-08-03T17:37:31Z</time>
      </trkpt>
      <trkpt lat="45.79466" lon="6.73737">
        <ele>1905.95</ele>
        <time>2019-08-03T17:37:32Z</time>
      </trkpt>
      <trkpt lat="45.79468" lon="6.73738">
        <ele>1905.47</ele>
        <time>2019-08-03T17:37:33Z</time>
      </trkpt>
      <trkpt lat="45.7947" lon="6.73739">
        <ele>1904.99</ele>
        <time>2019-08-03T17:37:34Z</time>
      </trkpt>
      <trkpt lat="45.7949" lon="6.73744">
        <ele>1903.55</ele>
        <time>2019-08-03T17:37:44Z</time>
      </trkpt>
      <trkpt lat="45.79508" lon="6.73752">
        <ele>1901.14</ele>
        <time>2019-08-03T17:37:53Z</time>
      </trkpt>
      <trkpt lat="45.79526" lon="6.73762">
        <ele>1897.78</ele>
        <time>2019-08-03T17:38:03Z</time>
      </trkpt>
      <trkpt lat="45.79539" lon="6.73771">
        <ele>1896.34</ele>
        <time>2019-08-03T17:38:09Z</time>
      </trkpt>
      <trkpt lat="45.79543" lon="6.73774">
        <ele>1895.38</ele>
        <time>2019-08-03T17:38:11Z</time>
      </trkpt>
      <trkpt lat="45.79545" lon="6.73776">
        <ele>1895.38</ele>
        <time>2019-08-03T17:38:12Z</time>
      </trkpt>
      <trkpt lat="45.79548" lon="6.73778">
        <ele>1894.9</ele>
        <time>2019-08-03T17:38:23Z</time>
      </trkpt>
      <trkpt lat="45.79549" lon="6.7378">
        <ele>1894.42</ele>
        <time>2019-08-03T17:38:24Z</time>
      </trkpt>
      <trkpt lat="45.7955" lon="6.73785">
        <ele>1893.93</ele>
        <time>2019-08-03T17:39:01Z</time>
      </trkpt>
      <trkpt lat="45.79552" lon="6.73787">
        <ele>1893.93</ele>
        <time>2019-08-03T17:39:02Z</time>
      </trkpt>
      <trkpt lat="45.79553" lon="6.73789">
        <ele>1893.45</ele>
        <time>2019-08-03T17:39:03Z</time>
      </trkpt>
      <trkpt lat="45.79555" lon="6.73791">
        <ele>1893.45</ele>
        <time>2019-08-03T17:39:04Z</time>
      </trkpt>
      <trkpt lat="45.79553" lon="6.73792">
        <ele>1892.49</ele>
        <time>2019-08-03T17:39:41Z</time>
      </trkpt>
      <trkpt lat="45.79553" lon="6.73793">
        <ele>1892.49</ele>
        <time>2019-08-03T17:40:15Z</time>
      </trkpt>
      <trkpt lat="45.79553" lon="6.73793">
        <ele>1892.49</ele>
        <time>2019-08-03T17:41:00Z</time>
      </trkpt>
      <trkpt lat="45.79553" lon="6.73792">
        <ele>1892.49</ele>
        <time>2019-08-03T17:41:40Z</time>
      </trkpt>
      <trkpt lat="45.79553" lon="6.73792">
        <ele>1892.97</ele>
        <time>2019-08-03T17:42:00Z</time>
      </trkpt>
      <trkpt lat="45.79558" lon="6.73793">
        <ele>1892.97</ele>
        <time>2019-08-03T17:42:12Z</time>
      </trkpt>
      <trkpt lat="45.79573" lon="6.73801">
        <ele>1890.09</ele>
        <time>2019-08-03T17:42:23Z</time>
      </trkpt>
      <trkpt lat="45.79592" lon="6.73815">
        <ele>1887.21</ele>
        <time>2019-08-03T17:42:31Z</time>
      </trkpt>
      <trkpt lat="45.79603" lon="6.73826">
        <ele>1885.76</ele>
        <time>2019-08-03T17:42:36Z</time>
      </trkpt>
      <trkpt lat="45.7962" lon="6.73845">
        <ele>1883.84</ele>
        <time>2019-08-03T17:42:43Z</time>
      </trkpt>
      <trkpt lat="45.79633" lon="6.73859">
        <ele>1880.48</ele>
        <time>2019-08-03T17:42:48Z</time>
      </trkpt>
      <trkpt lat="45.79638" lon="6.73869">
        <ele>1879.03</ele>
        <time>2019-08-03T17:42:51Z</time>
      </trkpt>
      <trkpt lat="45.79641" lon="6.7387">
        <ele>1878.55</ele>
        <time>2019-08-03T17:42:52Z</time>
      </trkpt>
      <trkpt lat="45.79655" lon="6.73883">
        <ele>1875.67</ele>
        <time>2019-08-03T17:42:58Z</time>
      </trkpt>
      <trkpt lat="45.7966" lon="6.73893">
        <ele>1874.71</ele>
        <time>2019-08-03T17:43:01Z</time>
      </trkpt>
      <trkpt lat="45.79662" lon="6.73897">
        <ele>1874.23</ele>
        <time>2019-08-03T17:43:03Z</time>
      </trkpt>
      <trkpt lat="45.79663" lon="6.73899">
        <ele>1874.71</ele>
        <time>2019-08-03T17:43:04Z</time>
      </trkpt>
      <trkpt lat="45.79665" lon="6.73901">
        <ele>1874.71</ele>
        <time>2019-08-03T17:43:05Z</time>
      </trkpt>
      <trkpt lat="45.79668" lon="6.73903">
        <ele>1874.71</ele>
        <time>2019-08-03T17:43:06Z</time>
      </trkpt>
      <trkpt lat="45.79671" lon="6.73904">
        <ele>1873.75</ele>
        <time>2019-08-03T17:43:07Z</time>
      </trkpt>
      <trkpt lat="45.79674" lon="6.73905">
        <ele>1873.27</ele>
        <time>2019-08-03T17:43:08Z</time>
      </trkpt>
      <trkpt lat="45.79676" lon="6.73907">
        <ele>1872.79</ele>
        <time>2019-08-03T17:43:09Z</time>
      </trkpt>
      <trkpt lat="45.79697" lon="6.73923">
        <ele>1869.9</ele>
        <time>2019-08-03T17:43:18Z</time>
      </trkpt>
      <trkpt lat="45.79713" lon="6.7394">
        <ele>1867.02</ele>
        <time>2019-08-03T17:43:25Z</time>
      </trkpt>
      <trkpt lat="45.79731" lon="6.73957">
        <ele>1864.61</ele>
        <time>2019-08-03T17:43:33Z</time>
      </trkpt>
      <trkpt lat="45.79754" lon="6.73958">
        <ele>1861.73</ele>
        <time>2019-08-03T17:43:41Z</time>
      </trkpt>
      <trkpt lat="45.7977" lon="6.73959">
        <ele>1858.37</ele>
        <time>2019-08-03T17:43:47Z</time>
      </trkpt>
      <trkpt lat="45.7979" lon="6.73967">
        <ele>1855.96</ele>
        <time>2019-08-03T17:43:55Z</time>
      </trkpt>
      <trkpt lat="45.79802" lon="6.73962">
        <ele>1854.52</ele>
        <time>2019-08-03T17:44:00Z</time>
      </trkpt>
      <trkpt lat="45.79804" lon="6.73958">
        <ele>1854.52</ele>
        <time>2019-08-03T17:44:01Z</time>
      </trkpt>
      <trkpt lat="45.79805" lon="6.73953">
        <ele>1854.04</ele>
        <time>2019-08-03T17:44:02Z</time>
      </trkpt>
      <trkpt lat="45.79805" lon="6.73949">
        <ele>1853.56</ele>
        <time>2019-08-03T17:44:03Z</time>
      </trkpt>
      <trkpt lat="45.79806" lon="6.73944">
        <ele>1853.08</ele>
        <time>2019-08-03T17:44:04Z</time>
      </trkpt>
      <trkpt lat="45.79807" lon="6.73939">
        <ele>1852.6</ele>
        <time>2019-08-03T17:44:05Z</time>
      </trkpt>
      <trkpt lat="45.79807" lon="6.73934">
        <ele>1852.12</ele>
        <time>2019-08-03T17:44:06Z</time>
      </trkpt>
      <trkpt lat="45.79806" lon="6.7393">
        <ele>1851.64</ele>
        <time>2019-08-03T17:44:07Z</time>
      </trkpt>
      <trkpt lat="45.79806" lon="6.73926">
        <ele>1851.64</ele>
        <time>2019-08-03T17:44:08Z</time>
      </trkpt>
      <trkpt lat="45.79805" lon="6.73923">
        <ele>1851.64</ele>
        <time>2019-08-03T17:44:09Z</time>
      </trkpt>
      <trkpt lat="45.79803" lon="6.73912">
        <ele>1850.19</ele>
        <time>2019-08-03T17:44:12Z</time>
      </trkpt>
      <trkpt lat="45.79804" lon="6.73907">
        <ele>1849.71</ele>
        <time>2019-08-03T17:44:13Z</time>
      </trkpt>
      <trkpt lat="45.79806" lon="6.73903">
        <ele>1849.23</ele>
        <time>2019-08-03T17:44:14Z</time>
      </trkpt>
      <trkpt lat="45.79809" lon="6.73901">
        <ele>1848.75</ele>
        <time>2019-08-03T17:44:15Z</time>
      </trkpt>
      <trkpt lat="45.79811" lon="6.73898">
        <ele>1848.27</ele>
        <time>2019-08-03T17:44:16Z</time>
      </trkpt>
      <trkpt lat="45.79813" lon="6.73896">
        <ele>1848.27</ele>
        <time>2019-08-03T17:44:17Z</time>
      </trkpt>
      <trkpt lat="45.79815" lon="6.73893">
        <ele>1847.79</ele>
        <time>2019-08-03T17:44:18Z</time>
      </trkpt>
      <trkpt lat="45.79816" lon="6.73889">
        <ele>1847.31</ele>
        <time>2019-08-03T17:44:19Z</time>
      </trkpt>
      <trkpt lat="45.79817" lon="6.73885">
        <ele>1846.83</ele>
        <time>2019-08-03T17:44:20Z</time>
      </trkpt>
      <trkpt lat="45.79819" lon="6.73882">
        <ele>1846.35</ele>
        <time>2019-08-03T17:44:21Z</time>
      </trkpt>
      <trkpt lat="45.79821" lon="6.7388">
        <ele>1845.87</ele>
        <time>2019-08-03T17:44:22Z</time>
      </trkpt>
      <trkpt lat="45.79823" lon="6.73879">
        <ele>1845.39</ele>
        <time>2019-08-03T17:44:23Z</time>
      </trkpt>
      <trkpt lat="45.79826" lon="6.73878">
        <ele>1845.39</ele>
        <time>2019-08-03T17:44:24Z</time>
      </trkpt>
      <trkpt lat="45.79843" lon="6.73872">
        <ele>1842.02</ele>
        <time>2019-08-03T17:44:32Z</time>
      </trkpt>
      <trkpt lat="45.79848" lon="6.7387">
        <ele>1841.06</ele>
        <time>2019-08-03T17:44:35Z</time>
      </trkpt>
      <trkpt lat="45.79847" lon="6.73869">
        <ele>1840.58</ele>
        <time>2019-08-03T17:44:37Z</time>
      </trkpt>
      <trkpt lat="45.79845" lon="6.73869">
        <ele>1840.58</ele>
        <time>2019-08-03T17:44:38Z</time>
      </trkpt>
      <trkpt lat="45.79841" lon="6.7387">
        <ele>1840.1</ele>
        <time>2019-08-03T17:44:43Z</time>
      </trkpt>
      <trkpt lat="45.79839" lon="6.7387">
        <ele>1840.1</ele>
        <time>2019-08-03T17:44:44Z</time>
      </trkpt>
      <trkpt lat="45.79838" lon="6.7387">
        <ele>1840.1</ele>
        <time>2019-08-03T17:44:45Z</time>
      </trkpt>
      <trkpt lat="45.79819" lon="6.73866">
        <ele>1838.18</ele>
        <time>2019-08-03T17:44:59Z</time>
      </trkpt>
      <trkpt lat="45.79816" lon="6.73866">
        <ele>1837.7</ele>
        <time>2019-08-03T17:45:01Z</time>
      </trkpt>
      <trkpt lat="45.79814" lon="6.73866">
        <ele>1837.7</ele>
        <time>2019-08-03T17:45:02Z</time>
      </trkpt>
      <trkpt lat="45.79812" lon="6.73867">
        <ele>1837.22</ele>
        <time>2019-08-03T17:45:03Z</time>
      </trkpt>
      <trkpt lat="45.79811" lon="6.73868">
        <ele>1837.22</ele>
        <time>2019-08-03T17:45:04Z</time>
      </trkpt>
      <trkpt lat="45.7981" lon="6.73868">
        <ele>1837.22</ele>
        <time>2019-08-03T17:45:05Z</time>
      </trkpt>
      <trkpt lat="45.79805" lon="6.73871">
        <ele>1836.74</ele>
        <time>2019-08-03T17:45:09Z</time>
      </trkpt>
      <trkpt lat="45.79801" lon="6.73874">
        <ele>1836.26</ele>
        <time>2019-08-03T17:45:13Z</time>
      </trkpt>
      <trkpt lat="45.79797" lon="6.73875">
        <ele>1835.77</ele>
        <time>2019-08-03T17:45:18Z</time>
      </trkpt>
      <trkpt lat="45.79797" lon="6.73876">
        <ele>1835.77</ele>
        <time>2019-08-03T17:45:19Z</time>
      </trkpt>
      <trkpt lat="45.79794" lon="6.73876">
        <ele>1835.77</ele>
        <time>2019-08-03T17:45:22Z</time>
      </trkpt>
      <trkpt lat="45.79793" lon="6.73875">
        <ele>1835.77</ele>
        <time>2019-08-03T17:45:23Z</time>
      </trkpt>
      <trkpt lat="45.79792" lon="6.73875">
        <ele>1835.29</ele>
        <time>2019-08-03T17:45:24Z</time>
      </trkpt>
      <trkpt lat="45.79791" lon="6.73874">
        <ele>1835.29</ele>
        <time>2019-08-03T17:45:25Z</time>
      </trkpt>
      <trkpt lat="45.7979" lon="6.73874">
        <ele>1835.29</ele>
        <time>2019-08-03T17:45:26Z</time>
      </trkpt>
      <trkpt lat="45.79789" lon="6.73874">
        <ele>1835.29</ele>
        <time>2019-08-03T17:45:27Z</time>
      </trkpt>
      <trkpt lat="45.79788" lon="6.73873">
        <ele>1834.81</ele>
        <time>2019-08-03T17:45:28Z</time>
      </trkpt>
      <trkpt lat="45.79787" lon="6.73874">
        <ele>1834.81</ele>
        <time>2019-08-03T17:45:29Z</time>
      </trkpt>
      <trkpt lat="45.79786" lon="6.73874">
        <ele>1834.81</ele>
        <time>2019-08-03T17:45:30Z</time>
      </trkpt>
      <trkpt lat="45.79784" lon="6.73874">
        <ele>1834.81</ele>
        <time>2019-08-03T17:45:31Z</time>
      </trkpt>
      <trkpt lat="45.79773" lon="6.73875">
        <ele>1832.89</ele>
        <time>2019-08-03T17:45:58Z</time>
      </trkpt>
      <trkpt lat="45.79772" lon="6.73873">
        <ele>1832.41</ele>
        <time>2019-08-03T17:46:22Z</time>
      </trkpt>
      <trkpt lat="45.79771" lon="6.73873">
        <ele>1832.41</ele>
        <time>2019-08-03T17:46:23Z</time>
      </trkpt>
      <trkpt lat="45.79749" lon="6.73865">
        <ele>1830.97</ele>
        <time>2019-08-03T17:46:31Z</time>
      </trkpt>
      <trkpt lat="45.79743" lon="6.7386">
        <ele>1830.01</ele>
        <time>2019-08-03T17:46:33Z</time>
      </trkpt>
      <trkpt lat="45.79742" lon="6.73857">
        <ele>1829.53</ele>
        <time>2019-08-03T17:46:34Z</time>
      </trkpt>
      <trkpt lat="45.79744" lon="6.73856">
        <ele>1829.05</ele>
        <time>2019-08-03T17:46:35Z</time>
      </trkpt>
      <trkpt lat="45.79747" lon="6.73856">
        <ele>1828.56</ele>
        <time>2019-08-03T17:46:36Z</time>
      </trkpt>
      <trkpt lat="45.7975" lon="6.73853">
        <ele>1827.6</ele>
        <time>2019-08-03T17:46:37Z</time>
      </trkpt>
      <trkpt lat="45.79754" lon="6.73851">
        <ele>1827.12</ele>
        <time>2019-08-03T17:46:38Z</time>
      </trkpt>
      <trkpt lat="45.7977" lon="6.73837">
        <ele>1825.2</ele>
        <time>2019-08-03T17:46:44Z</time>
      </trkpt>
      <trkpt lat="45.79776" lon="6.73828">
        <ele>1823.76</ele>
        <time>2019-08-03T17:46:47Z</time>
      </trkpt>
      <trkpt lat="45.79778" lon="6.73827">
        <ele>1823.28</ele>
        <time>2019-08-03T17:46:48Z</time>
      </trkpt>
      <trkpt lat="45.79781" lon="6.73829">
        <ele>1822.8</ele>
        <time>2019-08-03T17:46:49Z</time>
      </trkpt>
      <trkpt lat="45.79784" lon="6.73831">
        <ele>1822.8</ele>
        <time>2019-08-03T17:46:50Z</time>
      </trkpt>
      <trkpt lat="45.79788" lon="6.73834">
        <ele>1822.32</ele>
        <time>2019-08-03T17:46:52Z</time>
      </trkpt>
      <trkpt lat="45.7979" lon="6.73834">
        <ele>1821.84</ele>
        <time>2019-08-03T17:46:53Z</time>
      </trkpt>
      <trkpt lat="45.79809" lon="6.73821">
        <ele>1819.91</ele>
        <time>2019-08-03T17:47:01Z</time>
      </trkpt>
      <trkpt lat="45.7983" lon="6.73813">
        <ele>1817.99</ele>
        <time>2019-08-03T17:47:09Z</time>
      </trkpt>
      <trkpt lat="45.79851" lon="6.73809">
        <ele>1815.59</ele>
        <time>2019-08-03T17:47:17Z</time>
      </trkpt>
      <trkpt lat="45.7987" lon="6.73816">
        <ele>1813.66</ele>
        <time>2019-08-03T17:47:24Z</time>
      </trkpt>
      <trkpt lat="45.79892" lon="6.73818">
        <ele>1811.74</ele>
        <time>2019-08-03T17:47:32Z</time>
      </trkpt>
      <trkpt lat="45.79913" lon="6.73819">
        <ele>1809.34</ele>
        <time>2019-08-03T17:47:41Z</time>
      </trkpt>
      <trkpt lat="45.79935" lon="6.73817">
        <ele>1806.45</ele>
        <time>2019-08-03T17:47:50Z</time>
      </trkpt>
      <trkpt lat="45.79956" lon="6.73819">
        <ele>1804.53</ele>
        <time>2019-08-03T17:47:57Z</time>
      </trkpt>
      <trkpt lat="45.79979" lon="6.73811">
        <ele>1801.65</ele>
        <time>2019-08-03T17:48:05Z</time>
      </trkpt>
      <trkpt lat="45.80001" lon="6.73812">
        <ele>1800.21</ele>
        <time>2019-08-03T17:48:13Z</time>
      </trkpt>
      <trkpt lat="45.80016" lon="6.7383">
        <ele>1798.28</ele>
        <time>2019-08-03T17:48:20Z</time>
      </trkpt>
      <trkpt lat="45.80025" lon="6.73857">
        <ele>1795.88</ele>
        <time>2019-08-03T17:48:28Z</time>
      </trkpt>
      <trkpt lat="45.80029" lon="6.73886">
        <ele>1794.92</ele>
        <time>2019-08-03T17:48:37Z</time>
      </trkpt>
      <trkpt lat="45.80029" lon="6.73889">
        <ele>1795.4</ele>
        <time>2019-08-03T17:48:38Z</time>
      </trkpt>
      <trkpt lat="45.8003" lon="6.73891">
        <ele>1795.4</ele>
        <time>2019-08-03T17:48:39Z</time>
      </trkpt>
      <trkpt lat="45.80032" lon="6.73921">
        <ele>1794.44</ele>
        <time>2019-08-03T17:48:48Z</time>
      </trkpt>
      <trkpt lat="45.80033" lon="6.73924">
        <ele>1794.92</ele>
        <time>2019-08-03T17:48:49Z</time>
      </trkpt>
      <trkpt lat="45.80033" lon="6.73926">
        <ele>1794.92</ele>
        <time>2019-08-03T17:48:50Z</time>
      </trkpt>
      <trkpt lat="45.80035" lon="6.73929">
        <ele>1794.92</ele>
        <time>2019-08-03T17:48:51Z</time>
      </trkpt>
      <trkpt lat="45.80037" lon="6.73933">
        <ele>1794.44</ele>
        <time>2019-08-03T17:48:52Z</time>
      </trkpt>
      <trkpt lat="45.80038" lon="6.73936">
        <ele>1794.44</ele>
        <time>2019-08-03T17:48:53Z</time>
      </trkpt>
      <trkpt lat="45.80039" lon="6.73939">
        <ele>1794.44</ele>
        <time>2019-08-03T17:48:54Z</time>
      </trkpt>
      <trkpt lat="45.80041" lon="6.7396">
        <ele>1793.96</ele>
        <time>2019-08-03T17:48:59Z</time>
      </trkpt>
      <trkpt lat="45.80041" lon="6.73963">
        <ele>1793.96</ele>
        <time>2019-08-03T17:49:00Z</time>
      </trkpt>
      <trkpt lat="45.8004" lon="6.73966">
        <ele>1793.96</ele>
        <time>2019-08-03T17:49:01Z</time>
      </trkpt>
      <trkpt lat="45.8004" lon="6.73969">
        <ele>1793.96</ele>
        <time>2019-08-03T17:49:02Z</time>
      </trkpt>
      <trkpt lat="45.80041" lon="6.73972">
        <ele>1793.96</ele>
        <time>2019-08-03T17:49:03Z</time>
      </trkpt>
      <trkpt lat="45.80042" lon="6.73975">
        <ele>1793.96</ele>
        <time>2019-08-03T17:49:04Z</time>
      </trkpt>
      <trkpt lat="45.80043" lon="6.73977">
        <ele>1793.96</ele>
        <time>2019-08-03T17:49:05Z</time>
      </trkpt>
      <trkpt lat="45.80045" lon="6.73979">
        <ele>1793.48</ele>
        <time>2019-08-03T17:49:06Z</time>
      </trkpt>
      <trkpt lat="45.80046" lon="6.73981">
        <ele>1793.48</ele>
        <time>2019-08-03T17:49:07Z</time>
      </trkpt>
      <trkpt lat="45.80049" lon="6.73982">
        <ele>1793.48</ele>
        <time>2019-08-03T17:49:08Z</time>
      </trkpt>
      <trkpt lat="45.80069" lon="6.73995">
        <ele>1791.55</ele>
        <time>2019-08-03T17:49:18Z</time>
      </trkpt>
      <trkpt lat="45.80074" lon="6.73999">
        <ele>1790.59</ele>
        <time>2019-08-03T17:49:21Z</time>
      </trkpt>
      <trkpt lat="45.80095" lon="6.74003">
        <ele>1787.23</ele>
        <time>2019-08-03T17:49:30Z</time>
      </trkpt>
      <trkpt lat="45.80117" lon="6.74007">
        <ele>1784.34</ele>
        <time>2019-08-03T17:49:38Z</time>
      </trkpt>
      <trkpt lat="45.80134" lon="6.7402">
        <ele>1780.98</ele>
        <time>2019-08-03T17:49:45Z</time>
      </trkpt>
      <trkpt lat="45.80149" lon="6.74023">
        <ele>1778.58</ele>
        <time>2019-08-03T17:49:51Z</time>
      </trkpt>
      <trkpt lat="45.80156" lon="6.74026">
        <ele>1777.61</ele>
        <time>2019-08-03T17:49:55Z</time>
      </trkpt>
      <trkpt lat="45.80155" lon="6.74024">
        <ele>1777.13</ele>
        <time>2019-08-03T17:49:56Z</time>
      </trkpt>
      <trkpt lat="45.80154" lon="6.74022">
        <ele>1776.65</ele>
        <time>2019-08-03T17:49:57Z</time>
      </trkpt>
      <trkpt lat="45.80141" lon="6.73998">
        <ele>1773.77</ele>
        <time>2019-08-03T17:50:06Z</time>
      </trkpt>
      <trkpt lat="45.80129" lon="6.73972">
        <ele>1770.41</ele>
        <time>2019-08-03T17:50:14Z</time>
      </trkpt>
      <trkpt lat="45.80117" lon="6.73947">
        <ele>1768</ele>
        <time>2019-08-03T17:50:22Z</time>
      </trkpt>
      <trkpt lat="45.80108" lon="6.73929">
        <ele>1765.6</ele>
        <time>2019-08-03T17:50:28Z</time>
      </trkpt>
      <trkpt lat="45.80102" lon="6.73923">
        <ele>1764.64</ele>
        <time>2019-08-03T17:50:31Z</time>
      </trkpt>
      <trkpt lat="45.80101" lon="6.7392">
        <ele>1764.16</ele>
        <time>2019-08-03T17:50:32Z</time>
      </trkpt>
      <trkpt lat="45.801" lon="6.73918">
        <ele>1763.68</ele>
        <time>2019-08-03T17:50:33Z</time>
      </trkpt>
      <trkpt lat="45.80101" lon="6.73916">
        <ele>1763.2</ele>
        <time>2019-08-03T17:50:34Z</time>
      </trkpt>
      <trkpt lat="45.80103" lon="6.73915">
        <ele>1762.71</ele>
        <time>2019-08-03T17:50:35Z</time>
      </trkpt>
      <trkpt lat="45.80105" lon="6.73916">
        <ele>1762.23</ele>
        <time>2019-08-03T17:50:36Z</time>
      </trkpt>
      <trkpt lat="45.80106" lon="6.73918">
        <ele>1761.75</ele>
        <time>2019-08-03T17:50:37Z</time>
      </trkpt>
      <trkpt lat="45.80108" lon="6.73919">
        <ele>1761.75</ele>
        <time>2019-08-03T17:50:38Z</time>
      </trkpt>
      <trkpt lat="45.80111" lon="6.73918">
        <ele>1761.27</ele>
        <time>2019-08-03T17:50:39Z</time>
      </trkpt>
      <trkpt lat="45.80113" lon="6.73918">
        <ele>1760.79</ele>
        <time>2019-08-03T17:50:40Z</time>
      </trkpt>
      <trkpt lat="45.80115" lon="6.73918">
        <ele>1760.31</ele>
        <time>2019-08-03T17:50:41Z</time>
      </trkpt>
      <trkpt lat="45.80118" lon="6.73918">
        <ele>1760.31</ele>
        <time>2019-08-03T17:50:42Z</time>
      </trkpt>
      <trkpt lat="45.8012" lon="6.73919">
        <ele>1759.83</ele>
        <time>2019-08-03T17:50:43Z</time>
      </trkpt>
      <trkpt lat="45.80122" lon="6.7392">
        <ele>1759.35</ele>
        <time>2019-08-03T17:50:44Z</time>
      </trkpt>
      <trkpt lat="45.80125" lon="6.73922">
        <ele>1758.87</ele>
        <time>2019-08-03T17:50:45Z</time>
      </trkpt>
      <trkpt lat="45.80127" lon="6.73924">
        <ele>1758.87</ele>
        <time>2019-08-03T17:50:46Z</time>
      </trkpt>
      <trkpt lat="45.80141" lon="6.73933">
        <ele>1756.47</ele>
        <time>2019-08-03T17:50:54Z</time>
      </trkpt>
      <trkpt lat="45.80162" lon="6.7394">
        <ele>1753.58</ele>
        <time>2019-08-03T17:51:02Z</time>
      </trkpt>
      <trkpt lat="45.80169" lon="6.73943">
        <ele>1752.62</ele>
        <time>2019-08-03T17:51:05Z</time>
      </trkpt>
      <trkpt lat="45.80171" lon="6.7394">
        <ele>1752.14</ele>
        <time>2019-08-03T17:51:06Z</time>
      </trkpt>
      <trkpt lat="45.80174" lon="6.73939">
        <ele>1751.66</ele>
        <time>2019-08-03T17:51:07Z</time>
      </trkpt>
      <trkpt lat="45.80176" lon="6.7394">
        <ele>1751.18</ele>
        <time>2019-08-03T17:51:08Z</time>
      </trkpt>
      <trkpt lat="45.80178" lon="6.73942">
        <ele>1751.18</ele>
        <time>2019-08-03T17:51:09Z</time>
      </trkpt>
      <trkpt lat="45.802" lon="6.73952">
        <ele>1748.78</ele>
        <time>2019-08-03T17:51:17Z</time>
      </trkpt>
      <trkpt lat="45.80207" lon="6.73959">
        <ele>1746.85</ele>
        <time>2019-08-03T17:51:21Z</time>
      </trkpt>
      <trkpt lat="45.80209" lon="6.73959">
        <ele>1746.37</ele>
        <time>2019-08-03T17:51:22Z</time>
      </trkpt>
      <trkpt lat="45.80211" lon="6.7396">
        <ele>1746.37</ele>
        <time>2019-08-03T17:51:23Z</time>
      </trkpt>
      <trkpt lat="45.80212" lon="6.73962">
        <ele>1746.37</ele>
        <time>2019-08-03T17:51:24Z</time>
      </trkpt>
      <trkpt lat="45.80213" lon="6.73963">
        <ele>1745.89</ele>
        <time>2019-08-03T17:51:25Z</time>
      </trkpt>
      <trkpt lat="45.80215" lon="6.73966">
        <ele>1745.89</ele>
        <time>2019-08-03T17:51:26Z</time>
      </trkpt>
      <trkpt lat="45.80231" lon="6.73981">
        <ele>1743.01</ele>
        <time>2019-08-03T17:51:35Z</time>
      </trkpt>
      <trkpt lat="45.80244" lon="6.74002">
        <ele>1740.6</ele>
        <time>2019-08-03T17:51:46Z</time>
      </trkpt>
      <trkpt lat="45.80245" lon="6.74003">
        <ele>1740.6</ele>
        <time>2019-08-03T17:51:47Z</time>
      </trkpt>
      <trkpt lat="45.80245" lon="6.74004">
        <ele>1740.6</ele>
        <time>2019-08-03T17:51:48Z</time>
      </trkpt>
      <trkpt lat="45.80246" lon="6.74006">
        <ele>1740.6</ele>
        <time>2019-08-03T17:51:49Z</time>
      </trkpt>
      <trkpt lat="45.80246" lon="6.74007">
        <ele>1738.2</ele>
        <time>2019-08-03T17:52:27Z</time>
      </trkpt>
      <trkpt lat="45.80248" lon="6.74007">
        <ele>1738.68</ele>
        <time>2019-08-03T17:52:57Z</time>
      </trkpt>
      <trkpt lat="45.8025" lon="6.74007">
        <ele>1738.2</ele>
        <time>2019-08-03T17:53:20Z</time>
      </trkpt>
      <trkpt lat="45.80249" lon="6.74007">
        <ele>1738.68</ele>
        <time>2019-08-03T17:53:31Z</time>
      </trkpt>
      <trkpt lat="45.80249" lon="6.7401">
        <ele>1738.2</ele>
        <time>2019-08-03T17:54:34Z</time>
      </trkpt>
      <trkpt lat="45.80248" lon="6.74006">
        <ele>1738.68</ele>
        <time>2019-08-03T17:55:51Z</time>
      </trkpt>
      <trkpt lat="45.80249" lon="6.74004">
        <ele>1737.72</ele>
        <time>2019-08-03T17:57:30Z</time>
      </trkpt>
      <trkpt lat="45.80256" lon="6.74003">
        <ele>1737.72</ele>
        <time>2019-08-03T17:57:48Z</time>
      </trkpt>
      <trkpt lat="45.80254" lon="6.74011">
        <ele>1737.72</ele>
        <time>2019-08-03T17:58:15Z</time>
      </trkpt>
      <trkpt lat="45.80251" lon="6.74009">
        <ele>1738.2</ele>
        <time>2019-08-03T17:58:32Z</time>
      </trkpt>
      <trkpt lat="45.80248" lon="6.74005">
        <ele>1739.16</ele>
        <time>2019-08-03T17:59:21Z</time>
      </trkpt>
      <trkpt lat="45.80247" lon="6.74003">
        <ele>1738.68</ele>
        <time>2019-08-03T17:59:22Z</time>
      </trkpt>
      <trkpt lat="45.80246" lon="6.74">
        <ele>1738.68</ele>
        <time>2019-08-03T17:59:23Z</time>
      </trkpt>
      <trkpt lat="45.80246" lon="6.73998">
        <ele>1738.2</ele>
        <time>2019-08-03T17:59:24Z</time>
      </trkpt>
      <trkpt lat="45.80246" lon="6.73996">
        <ele>1737.72</ele>
        <time>2019-08-03T17:59:25Z</time>
      </trkpt>
      <trkpt lat="45.80246" lon="6.73994">
        <ele>1737.24</ele>
        <time>2019-08-03T17:59:26Z</time>
      </trkpt>
      <trkpt lat="45.80246" lon="6.73991">
        <ele>1737.24</ele>
        <time>2019-08-03T17:59:27Z</time>
      </trkpt>
      <trkpt lat="45.80246" lon="6.73988">
        <ele>1736.76</ele>
        <time>2019-08-03T17:59:28Z</time>
      </trkpt>
      <trkpt lat="45.80246" lon="6.73984">
        <ele>1736.76</ele>
        <time>2019-08-03T17:59:29Z</time>
      </trkpt>
      <trkpt lat="45.80243" lon="6.73953">
        <ele>1733.88</ele>
        <time>2019-08-03T17:59:37Z</time>
      </trkpt>
      <trkpt lat="45.80241" lon="6.7395">
        <ele>1733.39</ele>
        <time>2019-08-03T17:59:38Z</time>
      </trkpt>
      <trkpt lat="45.80242" lon="6.73947">
        <ele>1732.91</ele>
        <time>2019-08-03T17:59:39Z</time>
      </trkpt>
      <trkpt lat="45.80242" lon="6.73944">
        <ele>1732.43</ele>
        <time>2019-08-03T17:59:40Z</time>
      </trkpt>
      <trkpt lat="45.80241" lon="6.7394">
        <ele>1731.95</ele>
        <time>2019-08-03T17:59:41Z</time>
      </trkpt>
      <trkpt lat="45.8024" lon="6.73937">
        <ele>1731.47</ele>
        <time>2019-08-03T17:59:42Z</time>
      </trkpt>
      <trkpt lat="45.80239" lon="6.73933">
        <ele>1730.99</ele>
        <time>2019-08-03T17:59:43Z</time>
      </trkpt>
      <trkpt lat="45.80239" lon="6.73929">
        <ele>1730.03</ele>
        <time>2019-08-03T17:59:44Z</time>
      </trkpt>
      <trkpt lat="45.80239" lon="6.73926">
        <ele>1730.03</ele>
        <time>2019-08-03T17:59:45Z</time>
      </trkpt>
      <trkpt lat="45.80239" lon="6.73923">
        <ele>1729.55</ele>
        <time>2019-08-03T17:59:46Z</time>
      </trkpt>
      <trkpt lat="45.80239" lon="6.73919">
        <ele>1729.07</ele>
        <time>2019-08-03T17:59:47Z</time>
      </trkpt>
      <trkpt lat="45.80238" lon="6.73915">
        <ele>1728.59</ele>
        <time>2019-08-03T17:59:48Z</time>
      </trkpt>
      <trkpt lat="45.80237" lon="6.7391">
        <ele>1728.11</ele>
        <time>2019-08-03T17:59:49Z</time>
      </trkpt>
      <trkpt lat="45.80236" lon="6.73906">
        <ele>1728.11</ele>
        <time>2019-08-03T17:59:50Z</time>
      </trkpt>
      <trkpt lat="45.80234" lon="6.73902">
        <ele>1727.63</ele>
        <time>2019-08-03T17:59:51Z</time>
      </trkpt>
      <trkpt lat="45.80233" lon="6.73898">
        <ele>1727.15</ele>
        <time>2019-08-03T17:59:52Z</time>
      </trkpt>
      <trkpt lat="45.80233" lon="6.73895">
        <ele>1726.18</ele>
        <time>2019-08-03T17:59:53Z</time>
      </trkpt>
      <trkpt lat="45.80233" lon="6.73891">
        <ele>1725.7</ele>
        <time>2019-08-03T17:59:54Z</time>
      </trkpt>
      <trkpt lat="45.80233" lon="6.73886">
        <ele>1725.7</ele>
        <time>2019-08-03T17:59:55Z</time>
      </trkpt>
      <trkpt lat="45.80226" lon="6.73855">
        <ele>1723.3</ele>
        <time>2019-08-03T18:00:02Z</time>
      </trkpt>
      <trkpt lat="45.80221" lon="6.73844">
        <ele>1721.86</ele>
        <time>2019-08-03T18:00:05Z</time>
      </trkpt>
      <trkpt lat="45.80219" lon="6.7384">
        <ele>1721.38</ele>
        <time>2019-08-03T18:00:06Z</time>
      </trkpt>
      <trkpt lat="45.80218" lon="6.73836">
        <ele>1720.9</ele>
        <time>2019-08-03T18:00:07Z</time>
      </trkpt>
      <trkpt lat="45.80216" lon="6.73832">
        <ele>1720.42</ele>
        <time>2019-08-03T18:00:08Z</time>
      </trkpt>
      <trkpt lat="45.80215" lon="6.73827">
        <ele>1719.94</ele>
        <time>2019-08-03T18:00:09Z</time>
      </trkpt>
      <trkpt lat="45.80215" lon="6.73823">
        <ele>1719.46</ele>
        <time>2019-08-03T18:00:10Z</time>
      </trkpt>
      <trkpt lat="45.80214" lon="6.73818">
        <ele>1718.97</ele>
        <time>2019-08-03T18:00:11Z</time>
      </trkpt>
      <trkpt lat="45.80213" lon="6.73814">
        <ele>1718.97</ele>
        <time>2019-08-03T18:00:12Z</time>
      </trkpt>
      <trkpt lat="45.80212" lon="6.7381">
        <ele>1718.01</ele>
        <time>2019-08-03T18:00:13Z</time>
      </trkpt>
      <trkpt lat="45.80201" lon="6.73785">
        <ele>1715.61</ele>
        <time>2019-08-03T18:00:20Z</time>
      </trkpt>
      <trkpt lat="45.80197" lon="6.73774">
        <ele>1714.17</ele>
        <time>2019-08-03T18:00:23Z</time>
      </trkpt>
      <trkpt lat="45.80194" lon="6.73761">
        <ele>1712.73</ele>
        <time>2019-08-03T18:00:26Z</time>
      </trkpt>
      <trkpt lat="45.80195" lon="6.73758">
        <ele>1712.25</ele>
        <time>2019-08-03T18:00:27Z</time>
      </trkpt>
      <trkpt lat="45.80196" lon="6.73754">
        <ele>1711.76</ele>
        <time>2019-08-03T18:00:28Z</time>
      </trkpt>
      <trkpt lat="45.80196" lon="6.7375">
        <ele>1711.76</ele>
        <time>2019-08-03T18:00:29Z</time>
      </trkpt>
      <trkpt lat="45.80197" lon="6.73746">
        <ele>1711.76</ele>
        <time>2019-08-03T18:00:30Z</time>
      </trkpt>
      <trkpt lat="45.80196" lon="6.73742">
        <ele>1711.28</ele>
        <time>2019-08-03T18:00:31Z</time>
      </trkpt>
      <trkpt lat="45.80194" lon="6.73739">
        <ele>1710.8</ele>
        <time>2019-08-03T18:00:32Z</time>
      </trkpt>
      <trkpt lat="45.80192" lon="6.73736">
        <ele>1710.32</ele>
        <time>2019-08-03T18:00:33Z</time>
      </trkpt>
      <trkpt lat="45.8019" lon="6.73733">
        <ele>1709.36</ele>
        <time>2019-08-03T18:00:34Z</time>
      </trkpt>
      <trkpt lat="45.80189" lon="6.73729">
        <ele>1709.36</ele>
        <time>2019-08-03T18:00:35Z</time>
      </trkpt>
      <trkpt lat="45.80189" lon="6.73725">
        <ele>1708.88</ele>
        <time>2019-08-03T18:00:36Z</time>
      </trkpt>
      <trkpt lat="45.80188" lon="6.73722">
        <ele>1708.4</ele>
        <time>2019-08-03T18:00:37Z</time>
      </trkpt>
      <trkpt lat="45.80188" lon="6.73719">
        <ele>1707.92</ele>
        <time>2019-08-03T18:00:38Z</time>
      </trkpt>
      <trkpt lat="45.80188" lon="6.73716">
        <ele>1707.44</ele>
        <time>2019-08-03T18:00:39Z</time>
      </trkpt>
      <trkpt lat="45.80189" lon="6.73714">
        <ele>1707.44</ele>
        <time>2019-08-03T18:00:40Z</time>
      </trkpt>
      <trkpt lat="45.80192" lon="6.73715">
        <ele>1706.96</ele>
        <time>2019-08-03T18:00:41Z</time>
      </trkpt>
      <trkpt lat="45.80194" lon="6.73717">
        <ele>1706</ele>
        <time>2019-08-03T18:00:42Z</time>
      </trkpt>
      <trkpt lat="45.80196" lon="6.73718">
        <ele>1705.52</ele>
        <time>2019-08-03T18:00:43Z</time>
      </trkpt>
      <trkpt lat="45.80198" lon="6.7372">
        <ele>1705.04</ele>
        <time>2019-08-03T18:00:44Z</time>
      </trkpt>
      <trkpt lat="45.80204" lon="6.7372">
        <ele>1704.07</ele>
        <time>2019-08-03T18:00:47Z</time>
      </trkpt>
      <trkpt lat="45.80206" lon="6.73721">
        <ele>1703.59</ele>
        <time>2019-08-03T18:00:48Z</time>
      </trkpt>
      <trkpt lat="45.80219" lon="6.73728">
        <ele>1701.67</ele>
        <time>2019-08-03T18:00:53Z</time>
      </trkpt>
      <trkpt lat="45.80237" lon="6.73738">
        <ele>1698.31</ele>
        <time>2019-08-03T18:01:01Z</time>
      </trkpt>
      <trkpt lat="45.80243" lon="6.73741">
        <ele>1697.83</ele>
        <time>2019-08-03T18:01:05Z</time>
      </trkpt>
      <trkpt lat="45.80245" lon="6.73742">
        <ele>1697.34</ele>
        <time>2019-08-03T18:01:07Z</time>
      </trkpt>
      <trkpt lat="45.80246" lon="6.73742">
        <ele>1697.34</ele>
        <time>2019-08-03T18:01:08Z</time>
      </trkpt>
      <trkpt lat="45.80249" lon="6.73744">
        <ele>1696.38</ele>
        <time>2019-08-03T18:01:11Z</time>
      </trkpt>
      <trkpt lat="45.8025" lon="6.73745">
        <ele>1696.38</ele>
        <time>2019-08-03T18:01:12Z</time>
      </trkpt>
      <trkpt lat="45.80264" lon="6.73757">
        <ele>1692.54</ele>
        <time>2019-08-03T18:01:21Z</time>
      </trkpt>
      <trkpt lat="45.80268" lon="6.73759">
        <ele>1691.58</ele>
        <time>2019-08-03T18:01:22Z</time>
      </trkpt>
      <trkpt lat="45.80271" lon="6.73759">
        <ele>1691.58</ele>
        <time>2019-08-03T18:01:23Z</time>
      </trkpt>
      <trkpt lat="45.80274" lon="6.73759">
        <ele>1691.1</ele>
        <time>2019-08-03T18:01:24Z</time>
      </trkpt>
      <trkpt lat="45.80278" lon="6.73761">
        <ele>1690.62</ele>
        <time>2019-08-03T18:01:25Z</time>
      </trkpt>
      <trkpt lat="45.8028" lon="6.73764">
        <ele>1690.62</ele>
        <time>2019-08-03T18:01:26Z</time>
      </trkpt>
      <trkpt lat="45.80281" lon="6.73767">
        <ele>1689.65</ele>
        <time>2019-08-03T18:01:27Z</time>
      </trkpt>
      <trkpt lat="45.80283" lon="6.73769">
        <ele>1689.65</ele>
        <time>2019-08-03T18:01:28Z</time>
      </trkpt>
      <trkpt lat="45.80286" lon="6.7377">
        <ele>1689.65</ele>
        <time>2019-08-03T18:01:29Z</time>
      </trkpt>
      <trkpt lat="45.80289" lon="6.7377">
        <ele>1689.17</ele>
        <time>2019-08-03T18:01:30Z</time>
      </trkpt>
      <trkpt lat="45.80292" lon="6.73772">
        <ele>1688.69</ele>
        <time>2019-08-03T18:01:31Z</time>
      </trkpt>
      <trkpt lat="45.80294" lon="6.73775">
        <ele>1688.21</ele>
        <time>2019-08-03T18:01:32Z</time>
      </trkpt>
      <trkpt lat="45.80297" lon="6.73777">
        <ele>1687.25</ele>
        <time>2019-08-03T18:01:33Z</time>
      </trkpt>
      <trkpt lat="45.803" lon="6.73778">
        <ele>1686.77</ele>
        <time>2019-08-03T18:01:34Z</time>
      </trkpt>
      <trkpt lat="45.80302" lon="6.7378">
        <ele>1685.81</ele>
        <time>2019-08-03T18:01:35Z</time>
      </trkpt>
      <trkpt lat="45.80305" lon="6.73782">
        <ele>1684.85</ele>
        <time>2019-08-03T18:01:36Z</time>
      </trkpt>
      <trkpt lat="45.80307" lon="6.73783">
        <ele>1684.37</ele>
        <time>2019-08-03T18:01:37Z</time>
      </trkpt>
      <trkpt lat="45.8031" lon="6.73785">
        <ele>1683.89</ele>
        <time>2019-08-03T18:01:38Z</time>
      </trkpt>
      <trkpt lat="45.80313" lon="6.73786">
        <ele>1683.41</ele>
        <time>2019-08-03T18:01:39Z</time>
      </trkpt>
      <trkpt lat="45.80316" lon="6.73788">
        <ele>1682.44</ele>
        <time>2019-08-03T18:01:40Z</time>
      </trkpt>
      <trkpt lat="45.80319" lon="6.73789">
        <ele>1681.96</ele>
        <time>2019-08-03T18:01:41Z</time>
      </trkpt>
      <trkpt lat="45.80334" lon="6.73792">
        <ele>1679.56</ele>
        <time>2019-08-03T18:01:46Z</time>
      </trkpt>
      <trkpt lat="45.80344" lon="6.73789">
        <ele>1677.16</ele>
        <time>2019-08-03T18:01:51Z</time>
      </trkpt>
      <trkpt lat="45.80344" lon="6.73786">
        <ele>1676.2</ele>
        <time>2019-08-03T18:01:52Z</time>
      </trkpt>
      <trkpt lat="45.80343" lon="6.73782">
        <ele>1675.72</ele>
        <time>2019-08-03T18:01:53Z</time>
      </trkpt>
      <trkpt lat="45.8034" lon="6.73777">
        <ele>1675.23</ele>
        <time>2019-08-03T18:01:55Z</time>
      </trkpt>
      <trkpt lat="45.80336" lon="6.73769">
        <ele>1673.79</ele>
        <time>2019-08-03T18:01:58Z</time>
      </trkpt>
      <trkpt lat="45.80329" lon="6.7375">
        <ele>1670.43</ele>
        <time>2019-08-03T18:02:04Z</time>
      </trkpt>
      <trkpt lat="45.80327" lon="6.73748">
        <ele>1670.43</ele>
        <time>2019-08-03T18:02:05Z</time>
      </trkpt>
      <trkpt lat="45.80325" lon="6.73747">
        <ele>1669.95</ele>
        <time>2019-08-03T18:02:06Z</time>
      </trkpt>
      <trkpt lat="45.80325" lon="6.73745">
        <ele>1668.99</ele>
        <time>2019-08-03T18:02:07Z</time>
      </trkpt>
      <trkpt lat="45.80325" lon="6.73745">
        <ele>1668.02</ele>
        <time>2019-08-03T18:02:08Z</time>
      </trkpt>
      <trkpt lat="45.80326" lon="6.73745">
        <ele>1667.54</ele>
        <time>2019-08-03T18:02:09Z</time>
      </trkpt>
      <trkpt lat="45.80328" lon="6.73744">
        <ele>1667.06</ele>
        <time>2019-08-03T18:02:10Z</time>
      </trkpt>
      <trkpt lat="45.8033" lon="6.73744">
        <ele>1666.58</ele>
        <time>2019-08-03T18:02:11Z</time>
      </trkpt>
      <trkpt lat="45.80332" lon="6.73743">
        <ele>1665.62</ele>
        <time>2019-08-03T18:02:12Z</time>
      </trkpt>
      <trkpt lat="45.80334" lon="6.73742">
        <ele>1665.62</ele>
        <time>2019-08-03T18:02:13Z</time>
      </trkpt>
      <trkpt lat="45.80336" lon="6.73741">
        <ele>1664.66</ele>
        <time>2019-08-03T18:02:14Z</time>
      </trkpt>
      <trkpt lat="45.80338" lon="6.73739">
        <ele>1664.18</ele>
        <time>2019-08-03T18:02:15Z</time>
      </trkpt>
      <trkpt lat="45.8034" lon="6.73738">
        <ele>1663.7</ele>
        <time>2019-08-03T18:02:16Z</time>
      </trkpt>
      <trkpt lat="45.80342" lon="6.73738">
        <ele>1663.22</ele>
        <time>2019-08-03T18:02:17Z</time>
      </trkpt>
      <trkpt lat="45.80345" lon="6.73738">
        <ele>1662.74</ele>
        <time>2019-08-03T18:02:18Z</time>
      </trkpt>
      <trkpt lat="45.80349" lon="6.73741">
        <ele>1662.26</ele>
        <time>2019-08-03T18:02:20Z</time>
      </trkpt>
      <trkpt lat="45.80351" lon="6.73742">
        <ele>1661.3</ele>
        <time>2019-08-03T18:02:21Z</time>
      </trkpt>
      <trkpt lat="45.80353" lon="6.73741">
        <ele>1660.81</ele>
        <time>2019-08-03T18:02:22Z</time>
      </trkpt>
      <trkpt lat="45.80356" lon="6.73742">
        <ele>1659.85</ele>
        <time>2019-08-03T18:02:23Z</time>
      </trkpt>
      <trkpt lat="45.80359" lon="6.73742">
        <ele>1659.37</ele>
        <time>2019-08-03T18:02:24Z</time>
      </trkpt>
      <trkpt lat="45.80362" lon="6.73741">
        <ele>1659.37</ele>
        <time>2019-08-03T18:02:25Z</time>
      </trkpt>
      <trkpt lat="45.80374" lon="6.7375">
        <ele>1656.01</ele>
        <time>2019-08-03T18:02:30Z</time>
      </trkpt>
      <trkpt lat="45.80382" lon="6.73753">
        <ele>1653.6</ele>
        <time>2019-08-03T18:02:33Z</time>
      </trkpt>
      <trkpt lat="45.80382" lon="6.7375">
        <ele>1653.6</ele>
        <time>2019-08-03T18:02:34Z</time>
      </trkpt>
      <trkpt lat="45.80382" lon="6.73746">
        <ele>1652.16</ele>
        <time>2019-08-03T18:02:35Z</time>
      </trkpt>
      <trkpt lat="45.8038" lon="6.73743">
        <ele>1651.68</ele>
        <time>2019-08-03T18:02:36Z</time>
      </trkpt>
      <trkpt lat="45.80377" lon="6.7374">
        <ele>1651.2</ele>
        <time>2019-08-03T18:02:37Z</time>
      </trkpt>
      <trkpt lat="45.80376" lon="6.73737">
        <ele>1650.72</ele>
        <time>2019-08-03T18:02:38Z</time>
      </trkpt>
      <trkpt lat="45.80376" lon="6.73734">
        <ele>1650.24</ele>
        <time>2019-08-03T18:02:39Z</time>
      </trkpt>
      <trkpt lat="45.80378" lon="6.73733">
        <ele>1649.76</ele>
        <time>2019-08-03T18:02:40Z</time>
      </trkpt>
      <trkpt lat="45.8038" lon="6.73735">
        <ele>1648.8</ele>
        <time>2019-08-03T18:02:41Z</time>
      </trkpt>
      <trkpt lat="45.80383" lon="6.73735">
        <ele>1648.32</ele>
        <time>2019-08-03T18:02:42Z</time>
      </trkpt>
      <trkpt lat="45.80386" lon="6.73736">
        <ele>1647.84</ele>
        <time>2019-08-03T18:02:43Z</time>
      </trkpt>
      <trkpt lat="45.80389" lon="6.73739">
        <ele>1646.88</ele>
        <time>2019-08-03T18:02:44Z</time>
      </trkpt>
      <trkpt lat="45.80391" lon="6.7374">
        <ele>1646.4</ele>
        <time>2019-08-03T18:02:45Z</time>
      </trkpt>
      <trkpt lat="45.80393" lon="6.73741">
        <ele>1645.91</ele>
        <time>2019-08-03T18:02:46Z</time>
      </trkpt>
      <trkpt lat="45.80406" lon="6.73751">
        <ele>1642.07</ele>
        <time>2019-08-03T18:02:51Z</time>
      </trkpt>
      <trkpt lat="45.80416" lon="6.73762">
        <ele>1639.19</ele>
        <time>2019-08-03T18:02:55Z</time>
      </trkpt>
      <trkpt lat="45.80423" lon="6.73769">
        <ele>1637.74</ele>
        <time>2019-08-03T18:02:58Z</time>
      </trkpt>
      <trkpt lat="45.80426" lon="6.7377">
        <ele>1636.3</ele>
        <time>2019-08-03T18:03:00Z</time>
      </trkpt>
      <trkpt lat="45.80428" lon="6.73768">
        <ele>1635.82</ele>
        <time>2019-08-03T18:03:01Z</time>
      </trkpt>
      <trkpt lat="45.80427" lon="6.73765">
        <ele>1635.34</ele>
        <time>2019-08-03T18:03:02Z</time>
      </trkpt>
      <trkpt lat="45.80426" lon="6.73761">
        <ele>1634.38</ele>
        <time>2019-08-03T18:03:03Z</time>
      </trkpt>
      <trkpt lat="45.80426" lon="6.73759">
        <ele>1633.9</ele>
        <time>2019-08-03T18:03:04Z</time>
      </trkpt>
      <trkpt lat="45.80425" lon="6.73756">
        <ele>1633.42</ele>
        <time>2019-08-03T18:03:05Z</time>
      </trkpt>
      <trkpt lat="45.80425" lon="6.73754">
        <ele>1632.94</ele>
        <time>2019-08-03T18:03:06Z</time>
      </trkpt>
      <trkpt lat="45.80426" lon="6.73752">
        <ele>1631.98</ele>
        <time>2019-08-03T18:03:07Z</time>
      </trkpt>
      <trkpt lat="45.80427" lon="6.73752">
        <ele>1631.49</ele>
        <time>2019-08-03T18:03:08Z</time>
      </trkpt>
      <trkpt lat="45.80429" lon="6.73752">
        <ele>1631.01</ele>
        <time>2019-08-03T18:03:09Z</time>
      </trkpt>
      <trkpt lat="45.8043" lon="6.73752">
        <ele>1630.53</ele>
        <time>2019-08-03T18:03:10Z</time>
      </trkpt>
      <trkpt lat="45.80433" lon="6.73749">
        <ele>1629.57</ele>
        <time>2019-08-03T18:03:12Z</time>
      </trkpt>
      <trkpt lat="45.80434" lon="6.73746">
        <ele>1628.13</ele>
        <time>2019-08-03T18:03:13Z</time>
      </trkpt>
      <trkpt lat="45.80434" lon="6.73742">
        <ele>1627.17</ele>
        <time>2019-08-03T18:03:14Z</time>
      </trkpt>
      <trkpt lat="45.80435" lon="6.7374">
        <ele>1626.21</ele>
        <time>2019-08-03T18:03:15Z</time>
      </trkpt>
      <trkpt lat="45.80437" lon="6.73738">
        <ele>1625.73</ele>
        <time>2019-08-03T18:03:16Z</time>
      </trkpt>
      <trkpt lat="45.80439" lon="6.73737">
        <ele>1625.25</ele>
        <time>2019-08-03T18:03:17Z</time>
      </trkpt>
      <trkpt lat="45.80441" lon="6.73738">
        <ele>1624.77</ele>
        <time>2019-08-03T18:03:18Z</time>
      </trkpt>
      <trkpt lat="45.80442" lon="6.7374">
        <ele>1624.77</ele>
        <time>2019-08-03T18:03:19Z</time>
      </trkpt>
      <trkpt lat="45.80444" lon="6.7374">
        <ele>1623.8</ele>
        <time>2019-08-03T18:03:20Z</time>
      </trkpt>
      <trkpt lat="45.80447" lon="6.73741">
        <ele>1622.84</ele>
        <time>2019-08-03T18:03:21Z</time>
      </trkpt>
      <trkpt lat="45.80448" lon="6.73743">
        <ele>1622.36</ele>
        <time>2019-08-03T18:03:22Z</time>
      </trkpt>
      <trkpt lat="45.80449" lon="6.73742">
        <ele>1621.88</ele>
        <time>2019-08-03T18:03:23Z</time>
      </trkpt>
      <trkpt lat="45.80451" lon="6.73741">
        <ele>1620.92</ele>
        <time>2019-08-03T18:03:24Z</time>
      </trkpt>
      <trkpt lat="45.80452" lon="6.73739">
        <ele>1620.44</ele>
        <time>2019-08-03T18:03:25Z</time>
      </trkpt>
      <trkpt lat="45.80454" lon="6.73737">
        <ele>1619.48</ele>
        <time>2019-08-03T18:03:26Z</time>
      </trkpt>
      <trkpt lat="45.80455" lon="6.73734">
        <ele>1619</ele>
        <time>2019-08-03T18:03:27Z</time>
      </trkpt>
      <trkpt lat="45.80457" lon="6.73732">
        <ele>1618.04</ele>
        <time>2019-08-03T18:03:28Z</time>
      </trkpt>
      <trkpt lat="45.80458" lon="6.73729">
        <ele>1617.07</ele>
        <time>2019-08-03T18:03:29Z</time>
      </trkpt>
      <trkpt lat="45.8046" lon="6.73726">
        <ele>1616.11</ele>
        <time>2019-08-03T18:03:30Z</time>
      </trkpt>
      <trkpt lat="45.80462" lon="6.73725">
        <ele>1615.63</ele>
        <time>2019-08-03T18:03:31Z</time>
      </trkpt>
      <trkpt lat="45.80464" lon="6.73725">
        <ele>1615.15</ele>
        <time>2019-08-03T18:03:32Z</time>
      </trkpt>
      <trkpt lat="45.80466" lon="6.73726">
        <ele>1615.15</ele>
        <time>2019-08-03T18:03:33Z</time>
      </trkpt>
      <trkpt lat="45.80468" lon="6.73728">
        <ele>1615.15</ele>
        <time>2019-08-03T18:03:34Z</time>
      </trkpt>
      <trkpt lat="45.8047" lon="6.73729">
        <ele>1613.71</ele>
        <time>2019-08-03T18:03:35Z</time>
      </trkpt>
      <trkpt lat="45.80473" lon="6.73729">
        <ele>1613.23</ele>
        <time>2019-08-03T18:03:36Z</time>
      </trkpt>
      <trkpt lat="45.80475" lon="6.73728">
        <ele>1612.75</ele>
        <time>2019-08-03T18:03:37Z</time>
      </trkpt>
      <trkpt lat="45.80477" lon="6.73727">
        <ele>1611.79</ele>
        <time>2019-08-03T18:03:38Z</time>
      </trkpt>
      <trkpt lat="45.80482" lon="6.73728">
        <ele>1610.35</ele>
        <time>2019-08-03T18:03:40Z</time>
      </trkpt>
      <trkpt lat="45.80486" lon="6.73728">
        <ele>1609.86</ele>
        <time>2019-08-03T18:03:41Z</time>
      </trkpt>
      <trkpt lat="45.80489" lon="6.73728">
        <ele>1608.9</ele>
        <time>2019-08-03T18:03:58Z</time>
      </trkpt>
      <trkpt lat="45.8049" lon="6.73728">
        <ele>1608.9</ele>
        <time>2019-08-03T18:03:59Z</time>
      </trkpt>
      <trkpt lat="45.80491" lon="6.73735">
        <ele>1608.9</ele>
        <time>2019-08-03T18:05:07Z</time>
      </trkpt>
      <trkpt lat="45.80494" lon="6.73737">
        <ele>1608.42</ele>
        <time>2019-08-03T18:05:10Z</time>
      </trkpt>
      <trkpt lat="45.80495" lon="6.73739">
        <ele>1608.42</ele>
        <time>2019-08-03T18:05:11Z</time>
      </trkpt>
      <trkpt lat="45.80496" lon="6.73742">
        <ele>1608.42</ele>
        <time>2019-08-03T18:05:12Z</time>
      </trkpt>
      <trkpt lat="45.80497" lon="6.73745">
        <ele>1608.42</ele>
        <time>2019-08-03T18:05:13Z</time>
      </trkpt>
      <trkpt lat="45.80498" lon="6.73747">
        <ele>1608.42</ele>
        <time>2019-08-03T18:05:14Z</time>
      </trkpt>
      <trkpt lat="45.805" lon="6.73748">
        <ele>1608.42</ele>
        <time>2019-08-03T18:05:15Z</time>
      </trkpt>
      <trkpt lat="45.80503" lon="6.73748">
        <ele>1608.42</ele>
        <time>2019-08-03T18:05:16Z</time>
      </trkpt>
      <trkpt lat="45.80506" lon="6.73748">
        <ele>1608.42</ele>
        <time>2019-08-03T18:05:17Z</time>
      </trkpt>
      <trkpt lat="45.80508" lon="6.73747">
        <ele>1608.42</ele>
        <time>2019-08-03T18:05:18Z</time>
      </trkpt>
      <trkpt lat="45.8051" lon="6.73747">
        <ele>1607.94</ele>
        <time>2019-08-03T18:05:19Z</time>
      </trkpt>
      <trkpt lat="45.80513" lon="6.73748">
        <ele>1607.46</ele>
        <time>2019-08-03T18:05:20Z</time>
      </trkpt>
      <trkpt lat="45.80514" lon="6.73748">
        <ele>1606.98</ele>
        <time>2019-08-03T18:05:21Z</time>
      </trkpt>
      <trkpt lat="45.80516" lon="6.73748">
        <ele>1606.02</ele>
        <time>2019-08-03T18:05:22Z</time>
      </trkpt>
      <trkpt lat="45.80517" lon="6.73747">
        <ele>1606.02</ele>
        <time>2019-08-03T18:05:23Z</time>
      </trkpt>
      <trkpt lat="45.80519" lon="6.73745">
        <ele>1605.06</ele>
        <time>2019-08-03T18:05:24Z</time>
      </trkpt>
      <trkpt lat="45.8052" lon="6.73743">
        <ele>1604.1</ele>
        <time>2019-08-03T18:05:25Z</time>
      </trkpt>
      <trkpt lat="45.80523" lon="6.73741">
        <ele>1603.62</ele>
        <time>2019-08-03T18:05:26Z</time>
      </trkpt>
      <trkpt lat="45.80525" lon="6.73739">
        <ele>1602.17</ele>
        <time>2019-08-03T18:05:27Z</time>
      </trkpt>
      <trkpt lat="45.80528" lon="6.73737">
        <ele>1601.69</ele>
        <time>2019-08-03T18:05:28Z</time>
      </trkpt>
      <trkpt lat="45.8053" lon="6.73735">
        <ele>1600.73</ele>
        <time>2019-08-03T18:05:29Z</time>
      </trkpt>
      <trkpt lat="45.80533" lon="6.73733">
        <ele>1600.25</ele>
        <time>2019-08-03T18:05:30Z</time>
      </trkpt>
      <trkpt lat="45.80542" lon="6.73728">
        <ele>1597.37</ele>
        <time>2019-08-03T18:05:34Z</time>
      </trkpt>
      <trkpt lat="45.80542" lon="6.73726">
        <ele>1596.41</ele>
        <time>2019-08-03T18:05:35Z</time>
      </trkpt>
      <trkpt lat="45.80543" lon="6.73724">
        <ele>1594.96</ele>
        <time>2019-08-03T18:05:36Z</time>
      </trkpt>
      <trkpt lat="45.80545" lon="6.73721">
        <ele>1594.48</ele>
        <time>2019-08-03T18:05:37Z</time>
      </trkpt>
      <trkpt lat="45.80546" lon="6.73719">
        <ele>1593.52</ele>
        <time>2019-08-03T18:05:38Z</time>
      </trkpt>
      <trkpt lat="45.80548" lon="6.73716">
        <ele>1592.56</ele>
        <time>2019-08-03T18:05:39Z</time>
      </trkpt>
      <trkpt lat="45.80551" lon="6.73713">
        <ele>1591.6</ele>
        <time>2019-08-03T18:05:40Z</time>
      </trkpt>
      <trkpt lat="45.80557" lon="6.73702">
        <ele>1590.64</ele>
        <time>2019-08-03T18:05:43Z</time>
      </trkpt>
      <trkpt lat="45.80567" lon="6.73677">
        <ele>1586.79</ele>
        <time>2019-08-03T18:05:50Z</time>
      </trkpt>
      <trkpt lat="45.80573" lon="6.73663">
        <ele>1585.35</ele>
        <time>2019-08-03T18:05:54Z</time>
      </trkpt>
      <trkpt lat="45.80577" lon="6.73654">
        <ele>1584.87</ele>
        <time>2019-08-03T18:05:56Z</time>
      </trkpt>
      <trkpt lat="45.80585" lon="6.73641">
        <ele>1581.03</ele>
        <time>2019-08-03T18:06:01Z</time>
      </trkpt>
      <trkpt lat="45.80591" lon="6.73626">
        <ele>1577.66</ele>
        <time>2019-08-03T18:06:06Z</time>
      </trkpt>
      <trkpt lat="45.80592" lon="6.73624">
        <ele>1577.18</ele>
        <time>2019-08-03T18:06:07Z</time>
      </trkpt>
      <trkpt lat="45.80594" lon="6.7362">
        <ele>1577.18</ele>
        <time>2019-08-03T18:06:08Z</time>
      </trkpt>
      <trkpt lat="45.80596" lon="6.73616">
        <ele>1576.22</ele>
        <time>2019-08-03T18:06:09Z</time>
      </trkpt>
      <trkpt lat="45.80604" lon="6.73609">
        <ele>1575.26</ele>
        <time>2019-08-03T18:06:13Z</time>
      </trkpt>
      <trkpt lat="45.80607" lon="6.73607">
        <ele>1575.26</ele>
        <time>2019-08-03T18:06:14Z</time>
      </trkpt>
      <trkpt lat="45.8061" lon="6.73605">
        <ele>1573.82</ele>
        <time>2019-08-03T18:06:15Z</time>
      </trkpt>
      <trkpt lat="45.80613" lon="6.73603">
        <ele>1571.89</ele>
        <time>2019-08-03T18:06:17Z</time>
      </trkpt>
      <trkpt lat="45.80612" lon="6.736">
        <ele>1570.93</ele>
        <time>2019-08-03T18:06:18Z</time>
      </trkpt>
      <trkpt lat="45.80612" lon="6.73598">
        <ele>1569.97</ele>
        <time>2019-08-03T18:06:19Z</time>
      </trkpt>
      <trkpt lat="45.80612" lon="6.73595">
        <ele>1569.01</ele>
        <time>2019-08-03T18:06:20Z</time>
      </trkpt>
      <trkpt lat="45.80613" lon="6.73593">
        <ele>1569.01</ele>
        <time>2019-08-03T18:06:21Z</time>
      </trkpt>
      <trkpt lat="45.80614" lon="6.73592">
        <ele>1568.05</ele>
        <time>2019-08-03T18:06:22Z</time>
      </trkpt>
      <trkpt lat="45.80617" lon="6.73592">
        <ele>1567.57</ele>
        <time>2019-08-03T18:06:23Z</time>
      </trkpt>
      <trkpt lat="45.80618" lon="6.73592">
        <ele>1567.09</ele>
        <time>2019-08-03T18:06:24Z</time>
      </trkpt>
      <trkpt lat="45.8062" lon="6.73592">
        <ele>1566.61</ele>
        <time>2019-08-03T18:06:25Z</time>
      </trkpt>
      <trkpt lat="45.80622" lon="6.73593">
        <ele>1566.61</ele>
        <time>2019-08-03T18:06:26Z</time>
      </trkpt>
      <trkpt lat="45.80631" lon="6.73598">
        <ele>1563.24</ele>
        <time>2019-08-03T18:06:32Z</time>
      </trkpt>
      <trkpt lat="45.80635" lon="6.73598">
        <ele>1560.84</ele>
        <time>2019-08-03T18:06:36Z</time>
      </trkpt>
      <trkpt lat="45.80637" lon="6.73597">
        <ele>1560.36</ele>
        <time>2019-08-03T18:06:37Z</time>
      </trkpt>
      <trkpt lat="45.80639" lon="6.73596">
        <ele>1560.36</ele>
        <time>2019-08-03T18:06:38Z</time>
      </trkpt>
      <trkpt lat="45.8064" lon="6.73597">
        <ele>1559.88</ele>
        <time>2019-08-03T18:06:39Z</time>
      </trkpt>
      <trkpt lat="45.80641" lon="6.73597">
        <ele>1559.4</ele>
        <time>2019-08-03T18:06:40Z</time>
      </trkpt>
      <trkpt lat="45.80642" lon="6.73596">
        <ele>1558.92</ele>
        <time>2019-08-03T18:06:41Z</time>
      </trkpt>
      <trkpt lat="45.80645" lon="6.73595">
        <ele>1556.51</ele>
        <time>2019-08-03T18:06:44Z</time>
      </trkpt>
      <trkpt lat="45.80649" lon="6.73593">
        <ele>1556.03</ele>
        <time>2019-08-03T18:06:51Z</time>
      </trkpt>
      <trkpt lat="45.80654" lon="6.73592">
        <ele>1555.55</ele>
        <time>2019-08-03T18:06:54Z</time>
      </trkpt>
      <trkpt lat="45.80657" lon="6.73592">
        <ele>1555.07</ele>
        <time>2019-08-03T18:06:55Z</time>
      </trkpt>
      <trkpt lat="45.8066" lon="6.73591">
        <ele>1554.59</ele>
        <time>2019-08-03T18:06:56Z</time>
      </trkpt>
      <trkpt lat="45.80663" lon="6.73591">
        <ele>1553.63</ele>
        <time>2019-08-03T18:06:57Z</time>
      </trkpt>
      <trkpt lat="45.80666" lon="6.7359">
        <ele>1552.67</ele>
        <time>2019-08-03T18:06:58Z</time>
      </trkpt>
      <trkpt lat="45.80678" lon="6.73587">
        <ele>1549.3</ele>
        <time>2019-08-03T18:07:02Z</time>
      </trkpt>
      <trkpt lat="45.80697" lon="6.73586">
        <ele>1545.46</ele>
        <time>2019-08-03T18:07:08Z</time>
      </trkpt>
      <trkpt lat="45.80706" lon="6.73583">
        <ele>1542.57</ele>
        <time>2019-08-03T18:07:11Z</time>
      </trkpt>
      <trkpt lat="45.8072" lon="6.73581">
        <ele>1538.73</ele>
        <time>2019-08-03T18:07:16Z</time>
      </trkpt>
      <trkpt lat="45.80729" lon="6.7358">
        <ele>1536.8</ele>
        <time>2019-08-03T18:07:20Z</time>
      </trkpt>
      <trkpt lat="45.80742" lon="6.73579">
        <ele>1533.44</ele>
        <time>2019-08-03T18:07:26Z</time>
      </trkpt>
      <trkpt lat="45.80746" lon="6.7358">
        <ele>1532.48</ele>
        <time>2019-08-03T18:07:27Z</time>
      </trkpt>
      <trkpt lat="45.8075" lon="6.7358">
        <ele>1532</ele>
        <time>2019-08-03T18:07:28Z</time>
      </trkpt>
      <trkpt lat="45.80761" lon="6.73578">
        <ele>1528.63</ele>
        <time>2019-08-03T18:07:32Z</time>
      </trkpt>
      <trkpt lat="45.80772" lon="6.73576">
        <ele>1525.75</ele>
        <time>2019-08-03T18:07:37Z</time>
      </trkpt>
      <trkpt lat="45.80795" lon="6.73577">
        <ele>1522.39</ele>
        <time>2019-08-03T18:07:45Z</time>
      </trkpt>
      <trkpt lat="45.80804" lon="6.73576">
        <ele>1522.39</ele>
        <time>2019-08-03T18:07:50Z</time>
      </trkpt>
      <trkpt lat="45.80809" lon="6.73577">
        <ele>1521.9</ele>
        <time>2019-08-03T18:07:54Z</time>
      </trkpt>
      <trkpt lat="45.80811" lon="6.73577">
        <ele>1521.42</ele>
        <time>2019-08-03T18:07:56Z</time>
      </trkpt>
      <trkpt lat="45.80815" lon="6.7358">
        <ele>1520.94</ele>
        <time>2019-08-03T18:08:09Z</time>
      </trkpt>
      <trkpt lat="45.80816" lon="6.73579">
        <ele>1520.94</ele>
        <time>2019-08-03T18:08:10Z</time>
      </trkpt>
      <trkpt lat="45.80821" lon="6.73573">
        <ele>1519.98</ele>
        <time>2019-08-03T18:08:19Z</time>
      </trkpt>
      <trkpt lat="45.80827" lon="6.73569">
        <ele>1520.46</ele>
        <time>2019-08-03T18:08:26Z</time>
      </trkpt>
      <trkpt lat="45.8084" lon="6.73567">
        <ele>1520.46</ele>
        <time>2019-08-03T18:09:01Z</time>
      </trkpt>
      <trkpt lat="45.80837" lon="6.73566">
        <ele>1520.46</ele>
        <time>2019-08-03T18:09:05Z</time>
      </trkpt>
      <trkpt lat="45.80822" lon="6.73572">
        <ele>1520.46</ele>
        <time>2019-08-03T18:09:17Z</time>
      </trkpt>
      <trkpt lat="45.80823" lon="6.73574">
        <ele>1520.46</ele>
        <time>2019-08-03T18:09:22Z</time>
      </trkpt>
      <trkpt lat="45.80831" lon="6.73562">
        <ele>1520.46</ele>
        <time>2019-08-03T18:10:05Z</time>
      </trkpt>
      <trkpt lat="45.80833" lon="6.73566">
        <ele>1520.46</ele>
        <time>2019-08-03T18:10:54Z</time>
      </trkpt>
      <trkpt lat="45.80829" lon="6.73564">
        <ele>1520.46</ele>
        <time>2019-08-03T18:11:17Z</time>
      </trkpt>
      <trkpt lat="45.8083" lon="6.73563">
        <ele>1520.46</ele>
        <time>2019-08-03T18:11:18Z</time>
      </trkpt>
      <trkpt lat="45.80832" lon="6.73565">
        <ele>1520.46</ele>
        <time>2019-08-03T18:11:22Z</time>
      </trkpt>
      <trkpt lat="45.80836" lon="6.73567">
        <ele>1520.46</ele>
        <time>2019-08-03T18:11:25Z</time>
      </trkpt>
      <trkpt lat="45.8084" lon="6.73576">
        <ele>1520.46</ele>
        <time>2019-08-03T18:11:36Z</time>
      </trkpt>
      <trkpt lat="45.80865" lon="6.73571">
        <ele>1520.46</ele>
        <time>2019-08-03T18:11:49Z</time>
      </trkpt>
      <trkpt lat="45.80865" lon="6.73566">
        <ele>1520.46</ele>
        <time>2019-08-03T18:12:10Z</time>
      </trkpt>
      <trkpt lat="45.80861" lon="6.73565">
        <ele>1519.98</ele>
        <time>2019-08-03T18:12:18Z</time>
      </trkpt>
      <trkpt lat="45.80844" lon="6.73571">
        <ele>1521.42</ele>
        <time>2019-08-03T18:12:29Z</time>
      </trkpt>
      <trkpt lat="45.80844" lon="6.7357">
        <ele>1521.42</ele>
        <time>2019-08-03T18:12:30Z</time>
      </trkpt>
      <trkpt lat="45.80844" lon="6.73569">
        <ele>1520.94</ele>
        <time>2019-08-03T18:12:31Z</time>
      </trkpt>
      <trkpt lat="45.80844" lon="6.73569">
        <ele>1520.46</ele>
        <time>2019-08-03T18:12:32Z</time>
      </trkpt>
      <trkpt lat="45.80846" lon="6.73568">
        <ele>1519.98</ele>
        <time>2019-08-03T18:12:36Z</time>
      </trkpt>
      <trkpt lat="45.80847" lon="6.73568">
        <ele>1519.98</ele>
        <time>2019-08-03T18:12:37Z</time>
      </trkpt>
      <trkpt lat="45.80848" lon="6.73567">
        <ele>1519.98</ele>
        <time>2019-08-03T18:12:38Z</time>
      </trkpt>
      <trkpt lat="45.80849" lon="6.73566">
        <ele>1519.98</ele>
        <time>2019-08-03T18:12:39Z</time>
      </trkpt>
      <trkpt lat="45.80849" lon="6.73566">
        <ele>1519.98</ele>
        <time>2019-08-03T18:12:40Z</time>
      </trkpt>
      <trkpt lat="45.80874" lon="6.73573">
        <ele>1517.1</ele>
        <time>2019-08-03T18:12:58Z</time>
      </trkpt>
      <trkpt lat="45.80897" lon="6.7358">
        <ele>1514.21</ele>
        <time>2019-08-03T18:13:06Z</time>
      </trkpt>
      <trkpt lat="45.80918" lon="6.73581">
        <ele>1510.37</ele>
        <time>2019-08-03T18:13:12Z</time>
      </trkpt>
      <trkpt lat="45.80927" lon="6.73585">
        <ele>1507.48</ele>
        <time>2019-08-03T18:13:15Z</time>
      </trkpt>
      <trkpt lat="45.80942" lon="6.73583">
        <ele>1504.6</ele>
        <time>2019-08-03T18:13:20Z</time>
      </trkpt>
      <trkpt lat="45.80958" lon="6.73581">
        <ele>1501.24</ele>
        <time>2019-08-03T18:13:26Z</time>
      </trkpt>
      <trkpt lat="45.80971" lon="6.7358">
        <ele>1497.87</ele>
        <time>2019-08-03T18:13:31Z</time>
      </trkpt>
      <trkpt lat="45.80987" lon="6.73582">
        <ele>1494.99</ele>
        <time>2019-08-03T18:13:36Z</time>
      </trkpt>
      <trkpt lat="45.81011" lon="6.7358">
        <ele>1492.1</ele>
        <time>2019-08-03T18:13:44Z</time>
      </trkpt>
      <trkpt lat="45.81021" lon="6.73578">
        <ele>1488.74</ele>
        <time>2019-08-03T18:13:49Z</time>
      </trkpt>
      <trkpt lat="45.81035" lon="6.73571">
        <ele>1485.37</ele>
        <time>2019-08-03T18:13:54Z</time>
      </trkpt>
      <trkpt lat="45.81041" lon="6.73571">
        <ele>1484.41</ele>
        <time>2019-08-03T18:13:56Z</time>
      </trkpt>
      <trkpt lat="45.81058" lon="6.73566">
        <ele>1481.05</ele>
        <time>2019-08-03T18:14:01Z</time>
      </trkpt>
      <trkpt lat="45.81062" lon="6.73568">
        <ele>1481.05</ele>
        <time>2019-08-03T18:14:02Z</time>
      </trkpt>
      <trkpt lat="45.81064" lon="6.7357">
        <ele>1480.57</ele>
        <time>2019-08-03T18:14:03Z</time>
      </trkpt>
      <trkpt lat="45.8108" lon="6.73575">
        <ele>1478.16</ele>
        <time>2019-08-03T18:14:19Z</time>
      </trkpt>
      <trkpt lat="45.81085" lon="6.73572">
        <ele>1477.2</ele>
        <time>2019-08-03T18:14:23Z</time>
      </trkpt>
      <trkpt lat="45.81086" lon="6.7357">
        <ele>1477.2</ele>
        <time>2019-08-03T18:14:24Z</time>
      </trkpt>
      <trkpt lat="45.81088" lon="6.73567">
        <ele>1476.24</ele>
        <time>2019-08-03T18:14:25Z</time>
      </trkpt>
      <trkpt lat="45.8109" lon="6.73566">
        <ele>1475.76</ele>
        <time>2019-08-03T18:14:26Z</time>
      </trkpt>
      <trkpt lat="45.81092" lon="6.73565">
        <ele>1474.8</ele>
        <time>2019-08-03T18:14:27Z</time>
      </trkpt>
      <trkpt lat="45.81095" lon="6.73565">
        <ele>1474.32</ele>
        <time>2019-08-03T18:14:28Z</time>
      </trkpt>
      <trkpt lat="45.81098" lon="6.73564">
        <ele>1473.84</ele>
        <time>2019-08-03T18:14:29Z</time>
      </trkpt>
      <trkpt lat="45.81102" lon="6.73564">
        <ele>1473.36</ele>
        <time>2019-08-03T18:14:30Z</time>
      </trkpt>
      <trkpt lat="45.81105" lon="6.73563">
        <ele>1472.4</ele>
        <time>2019-08-03T18:14:31Z</time>
      </trkpt>
      <trkpt lat="45.81109" lon="6.73561">
        <ele>1472.4</ele>
        <time>2019-08-03T18:14:32Z</time>
      </trkpt>
      <trkpt lat="45.81111" lon="6.7356">
        <ele>1471.44</ele>
        <time>2019-08-03T18:14:33Z</time>
      </trkpt>
      <trkpt lat="45.81114" lon="6.73559">
        <ele>1470.95</ele>
        <time>2019-08-03T18:14:34Z</time>
      </trkpt>
      <trkpt lat="45.81117" lon="6.73558">
        <ele>1469.99</ele>
        <time>2019-08-03T18:14:35Z</time>
      </trkpt>
      <trkpt lat="45.8112" lon="6.73558">
        <ele>1469.03</ele>
        <time>2019-08-03T18:14:36Z</time>
      </trkpt>
      <trkpt lat="45.81123" lon="6.73559">
        <ele>1468.07</ele>
        <time>2019-08-03T18:14:37Z</time>
      </trkpt>
      <trkpt lat="45.81125" lon="6.73559">
        <ele>1467.11</ele>
        <time>2019-08-03T18:14:38Z</time>
      </trkpt>
      <trkpt lat="45.81128" lon="6.73559">
        <ele>1466.63</ele>
        <time>2019-08-03T18:14:39Z</time>
      </trkpt>
      <trkpt lat="45.81134" lon="6.7356">
        <ele>1465.67</ele>
        <time>2019-08-03T18:14:41Z</time>
      </trkpt>
      <trkpt lat="45.81137" lon="6.73561">
        <ele>1464.71</ele>
        <time>2019-08-03T18:14:42Z</time>
      </trkpt>
      <trkpt lat="45.8114" lon="6.73561">
        <ele>1463.74</ele>
        <time>2019-08-03T18:14:43Z</time>
      </trkpt>
      <trkpt lat="45.81154" lon="6.73562">
        <ele>1460.38</ele>
        <time>2019-08-03T18:14:47Z</time>
      </trkpt>
      <trkpt lat="45.81166" lon="6.73569">
        <ele>1457.98</ele>
        <time>2019-08-03T18:14:51Z</time>
      </trkpt>
      <trkpt lat="45.81179" lon="6.73577">
        <ele>1454.13</ele>
        <time>2019-08-03T18:14:56Z</time>
      </trkpt>
      <trkpt lat="45.8119" lon="6.73585">
        <ele>1450.77</ele>
        <time>2019-08-03T18:15:00Z</time>
      </trkpt>
      <trkpt lat="45.81197" lon="6.7359">
        <ele>1450.29</ele>
        <time>2019-08-03T18:15:02Z</time>
      </trkpt>
      <trkpt lat="45.81203" lon="6.736">
        <ele>1447.88</ele>
        <time>2019-08-03T18:15:05Z</time>
      </trkpt>
      <trkpt lat="45.81204" lon="6.73602">
        <ele>1447.4</ele>
        <time>2019-08-03T18:15:06Z</time>
      </trkpt>
      <trkpt lat="45.81206" lon="6.73605">
        <ele>1446.92</ele>
        <time>2019-08-03T18:15:07Z</time>
      </trkpt>
      <trkpt lat="45.81209" lon="6.73608">
        <ele>1445.96</ele>
        <time>2019-08-03T18:15:08Z</time>
      </trkpt>
      <trkpt lat="45.81211" lon="6.73611">
        <ele>1445.96</ele>
        <time>2019-08-03T18:15:09Z</time>
      </trkpt>
      <trkpt lat="45.81212" lon="6.73613">
        <ele>1445.48</ele>
        <time>2019-08-03T18:15:10Z</time>
      </trkpt>
      <trkpt lat="45.81213" lon="6.73616">
        <ele>1444.52</ele>
        <time>2019-08-03T18:15:11Z</time>
      </trkpt>
      <trkpt lat="45.81214" lon="6.7362">
        <ele>1444.04</ele>
        <time>2019-08-03T18:15:12Z</time>
      </trkpt>
      <trkpt lat="45.81215" lon="6.73623">
        <ele>1443.56</ele>
        <time>2019-08-03T18:15:13Z</time>
      </trkpt>
      <trkpt lat="45.81215" lon="6.73627">
        <ele>1443.56</ele>
        <time>2019-08-03T18:15:14Z</time>
      </trkpt>
      <trkpt lat="45.81215" lon="6.73631">
        <ele>1443.08</ele>
        <time>2019-08-03T18:15:15Z</time>
      </trkpt>
      <trkpt lat="45.81215" lon="6.73634">
        <ele>1441.63</ele>
        <time>2019-08-03T18:15:16Z</time>
      </trkpt>
      <trkpt lat="45.81214" lon="6.73637">
        <ele>1441.15</ele>
        <time>2019-08-03T18:15:17Z</time>
      </trkpt>
      <trkpt lat="45.81215" lon="6.73641">
        <ele>1440.67</ele>
        <time>2019-08-03T18:15:18Z</time>
      </trkpt>
      <trkpt lat="45.81216" lon="6.73644">
        <ele>1439.71</ele>
        <time>2019-08-03T18:15:19Z</time>
      </trkpt>
      <trkpt lat="45.81216" lon="6.73648">
        <ele>1439.23</ele>
        <time>2019-08-03T18:15:20Z</time>
      </trkpt>
      <trkpt lat="45.81216" lon="6.73651">
        <ele>1438.27</ele>
        <time>2019-08-03T18:15:21Z</time>
      </trkpt>
      <trkpt lat="45.81216" lon="6.73654">
        <ele>1437.79</ele>
        <time>2019-08-03T18:15:22Z</time>
      </trkpt>
      <trkpt lat="45.81218" lon="6.73656">
        <ele>1437.79</ele>
        <time>2019-08-03T18:15:23Z</time>
      </trkpt>
      <trkpt lat="45.8122" lon="6.73659">
        <ele>1437.31</ele>
        <time>2019-08-03T18:15:24Z</time>
      </trkpt>
      <trkpt lat="45.81222" lon="6.73663">
        <ele>1436.83</ele>
        <time>2019-08-03T18:15:25Z</time>
      </trkpt>
      <trkpt lat="45.81225" lon="6.73666">
        <ele>1435.87</ele>
        <time>2019-08-03T18:15:26Z</time>
      </trkpt>
      <trkpt lat="45.81228" lon="6.73668">
        <ele>1435.39</ele>
        <time>2019-08-03T18:15:27Z</time>
      </trkpt>
      <trkpt lat="45.8123" lon="6.73671">
        <ele>1434.42</ele>
        <time>2019-08-03T18:15:28Z</time>
      </trkpt>
      <trkpt lat="45.81233" lon="6.73674">
        <ele>1433.94</ele>
        <time>2019-08-03T18:15:29Z</time>
      </trkpt>
      <trkpt lat="45.81244" lon="6.7369">
        <ele>1430.58</ele>
        <time>2019-08-03T18:15:35Z</time>
      </trkpt>
      <trkpt lat="45.81256" lon="6.73709">
        <ele>1427.21</ele>
        <time>2019-08-03T18:15:42Z</time>
      </trkpt>
      <trkpt lat="45.81265" lon="6.73724">
        <ele>1423.85</ele>
        <time>2019-08-03T18:15:47Z</time>
      </trkpt>
      <trkpt lat="45.81272" lon="6.73736">
        <ele>1421.93</ele>
        <time>2019-08-03T18:15:51Z</time>
      </trkpt>
      <trkpt lat="45.81274" lon="6.73738">
        <ele>1421.45</ele>
        <time>2019-08-03T18:15:52Z</time>
      </trkpt>
      <trkpt lat="45.81276" lon="6.73739">
        <ele>1420.97</ele>
        <time>2019-08-03T18:15:53Z</time>
      </trkpt>
      <trkpt lat="45.81278" lon="6.7374">
        <ele>1420</ele>
        <time>2019-08-03T18:15:54Z</time>
      </trkpt>
      <trkpt lat="45.8128" lon="6.7374">
        <ele>1419.52</ele>
        <time>2019-08-03T18:15:55Z</time>
      </trkpt>
      <trkpt lat="45.81282" lon="6.7374">
        <ele>1418.56</ele>
        <time>2019-08-03T18:15:56Z</time>
      </trkpt>
      <trkpt lat="45.81283" lon="6.7374">
        <ele>1418.56</ele>
        <time>2019-08-03T18:15:57Z</time>
      </trkpt>
      <trkpt lat="45.81287" lon="6.73739">
        <ele>1418.08</ele>
        <time>2019-08-03T18:16:01Z</time>
      </trkpt>
      <trkpt lat="45.81289" lon="6.73743">
        <ele>1417.6</ele>
        <time>2019-08-03T18:16:27Z</time>
      </trkpt>
      <trkpt lat="45.81288" lon="6.73741">
        <ele>1417.6</ele>
        <time>2019-08-03T18:16:28Z</time>
      </trkpt>
      <trkpt lat="45.81282" lon="6.7373">
        <ele>1415.2</ele>
        <time>2019-08-03T18:16:32Z</time>
      </trkpt>
      <trkpt lat="45.81276" lon="6.73706">
        <ele>1411.83</ele>
        <time>2019-08-03T18:16:37Z</time>
      </trkpt>
      <trkpt lat="45.81274" lon="6.73688">
        <ele>1409.43</ele>
        <time>2019-08-03T18:16:41Z</time>
      </trkpt>
      <trkpt lat="45.81274" lon="6.73664">
        <ele>1405.58</ele>
        <time>2019-08-03T18:16:46Z</time>
      </trkpt>
      <trkpt lat="45.81271" lon="6.73643">
        <ele>1401.74</ele>
        <time>2019-08-03T18:16:51Z</time>
      </trkpt>
      <trkpt lat="45.8127" lon="6.73628">
        <ele>1398.86</ele>
        <time>2019-08-03T18:16:55Z</time>
      </trkpt>
      <trkpt lat="45.81272" lon="6.73629">
        <ele>1397.89</ele>
        <time>2019-08-03T18:16:56Z</time>
      </trkpt>
      <trkpt lat="45.81274" lon="6.73632">
        <ele>1397.41</ele>
        <time>2019-08-03T18:16:57Z</time>
      </trkpt>
      <trkpt lat="45.81275" lon="6.73635">
        <ele>1396.45</ele>
        <time>2019-08-03T18:16:58Z</time>
      </trkpt>
      <trkpt lat="45.81277" lon="6.73637">
        <ele>1395.97</ele>
        <time>2019-08-03T18:16:59Z</time>
      </trkpt>
      <trkpt lat="45.8128" lon="6.73639">
        <ele>1395.01</ele>
        <time>2019-08-03T18:17:00Z</time>
      </trkpt>
      <trkpt lat="45.8129" lon="6.73649">
        <ele>1391.65</ele>
        <time>2019-08-03T18:17:05Z</time>
      </trkpt>
      <trkpt lat="45.81296" lon="6.73654">
        <ele>1388.76</ele>
        <time>2019-08-03T18:17:09Z</time>
      </trkpt>
      <trkpt lat="45.81296" lon="6.73651">
        <ele>1388.28</ele>
        <time>2019-08-03T18:17:10Z</time>
      </trkpt>
      <trkpt lat="45.81297" lon="6.73647">
        <ele>1387.8</ele>
        <time>2019-08-03T18:17:11Z</time>
      </trkpt>
      <trkpt lat="45.81297" lon="6.73644">
        <ele>1386.84</ele>
        <time>2019-08-03T18:17:12Z</time>
      </trkpt>
      <trkpt lat="45.81296" lon="6.7364">
        <ele>1386.84</ele>
        <time>2019-08-03T18:17:13Z</time>
      </trkpt>
      <trkpt lat="45.81296" lon="6.73636">
        <ele>1386.36</ele>
        <time>2019-08-03T18:17:14Z</time>
      </trkpt>
      <trkpt lat="45.81295" lon="6.73633">
        <ele>1385.4</ele>
        <time>2019-08-03T18:17:15Z</time>
      </trkpt>
      <trkpt lat="45.81294" lon="6.73629">
        <ele>1384.44</ele>
        <time>2019-08-03T18:17:16Z</time>
      </trkpt>
      <trkpt lat="45.81293" lon="6.73625">
        <ele>1383.47</ele>
        <time>2019-08-03T18:17:17Z</time>
      </trkpt>
      <trkpt lat="45.81292" lon="6.7362">
        <ele>1382.99</ele>
        <time>2019-08-03T18:17:18Z</time>
      </trkpt>
      <trkpt lat="45.81288" lon="6.73604">
        <ele>1379.63</ele>
        <time>2019-08-03T18:17:22Z</time>
      </trkpt>
      <trkpt lat="45.81285" lon="6.73581">
        <ele>1375.78</ele>
        <time>2019-08-03T18:17:28Z</time>
      </trkpt>
      <trkpt lat="45.81284" lon="6.73573">
        <ele>1374.34</ele>
        <time>2019-08-03T18:17:30Z</time>
      </trkpt>
      <trkpt lat="45.81284" lon="6.73568">
        <ele>1373.86</ele>
        <time>2019-08-03T18:17:31Z</time>
      </trkpt>
      <trkpt lat="45.81283" lon="6.73563">
        <ele>1372.9</ele>
        <time>2019-08-03T18:17:32Z</time>
      </trkpt>
      <trkpt lat="45.81283" lon="6.73545">
        <ele>1369.54</ele>
        <time>2019-08-03T18:17:36Z</time>
      </trkpt>
      <trkpt lat="45.81286" lon="6.73531">
        <ele>1367.61</ele>
        <time>2019-08-03T18:17:39Z</time>
      </trkpt>
      <trkpt lat="45.81287" lon="6.73527">
        <ele>1367.13</ele>
        <time>2019-08-03T18:17:40Z</time>
      </trkpt>
      <trkpt lat="45.81289" lon="6.73522">
        <ele>1366.17</ele>
        <time>2019-08-03T18:17:41Z</time>
      </trkpt>
      <trkpt lat="45.8129" lon="6.73517">
        <ele>1365.21</ele>
        <time>2019-08-03T18:17:42Z</time>
      </trkpt>
      <trkpt lat="45.8129" lon="6.73513">
        <ele>1363.77</ele>
        <time>2019-08-03T18:17:43Z</time>
      </trkpt>
      <trkpt lat="45.8129" lon="6.73508">
        <ele>1362.81</ele>
        <time>2019-08-03T18:17:44Z</time>
      </trkpt>
      <trkpt lat="45.81291" lon="6.73503">
        <ele>1362.33</ele>
        <time>2019-08-03T18:17:45Z</time>
      </trkpt>
      <trkpt lat="45.81291" lon="6.73499">
        <ele>1361.36</ele>
        <time>2019-08-03T18:17:46Z</time>
      </trkpt>
      <trkpt lat="45.81291" lon="6.73496">
        <ele>1361.36</ele>
        <time>2019-08-03T18:17:47Z</time>
      </trkpt>
      <trkpt lat="45.81291" lon="6.73492">
        <ele>1360.4</ele>
        <time>2019-08-03T18:17:48Z</time>
      </trkpt>
      <trkpt lat="45.81292" lon="6.73489">
        <ele>1359.44</ele>
        <time>2019-08-03T18:17:49Z</time>
      </trkpt>
      <trkpt lat="45.81292" lon="6.7347">
        <ele>1356.08</ele>
        <time>2019-08-03T18:17:54Z</time>
      </trkpt>
      <trkpt lat="45.81286" lon="6.73449">
        <ele>1352.23</ele>
        <time>2019-08-03T18:17:59Z</time>
      </trkpt>
      <trkpt lat="45.81276" lon="6.73429">
        <ele>1348.87</ele>
        <time>2019-08-03T18:18:04Z</time>
      </trkpt>
      <trkpt lat="45.81267" lon="6.73415">
        <ele>1345.5</ele>
        <time>2019-08-03T18:18:10Z</time>
      </trkpt>
      <trkpt lat="45.81261" lon="6.73406">
        <ele>1342.14</ele>
        <time>2019-08-03T18:18:14Z</time>
      </trkpt>
      <trkpt lat="45.81262" lon="6.73404">
        <ele>1341.66</ele>
        <time>2019-08-03T18:18:15Z</time>
      </trkpt>
      <trkpt lat="45.81264" lon="6.73404">
        <ele>1340.7</ele>
        <time>2019-08-03T18:18:16Z</time>
      </trkpt>
      <trkpt lat="45.81266" lon="6.73405">
        <ele>1340.22</ele>
        <time>2019-08-03T18:18:17Z</time>
      </trkpt>
      <trkpt lat="45.81268" lon="6.73405">
        <ele>1339.73</ele>
        <time>2019-08-03T18:18:18Z</time>
      </trkpt>
      <trkpt lat="45.8127" lon="6.73406">
        <ele>1339.73</ele>
        <time>2019-08-03T18:18:19Z</time>
      </trkpt>
      <trkpt lat="45.81272" lon="6.73407">
        <ele>1339.25</ele>
        <time>2019-08-03T18:18:20Z</time>
      </trkpt>
      <trkpt lat="45.81278" lon="6.73406">
        <ele>1337.81</ele>
        <time>2019-08-03T18:18:23Z</time>
      </trkpt>
      <trkpt lat="45.81279" lon="6.73406">
        <ele>1337.33</ele>
        <time>2019-08-03T18:18:24Z</time>
      </trkpt>
      <trkpt lat="45.8128" lon="6.73406">
        <ele>1336.85</ele>
        <time>2019-08-03T18:18:25Z</time>
      </trkpt>
      <trkpt lat="45.81282" lon="6.73407">
        <ele>1336.37</ele>
        <time>2019-08-03T18:18:26Z</time>
      </trkpt>
      <trkpt lat="45.81283" lon="6.73405">
        <ele>1334.45</ele>
        <time>2019-08-03T18:18:28Z</time>
      </trkpt>
      <trkpt lat="45.81282" lon="6.73403">
        <ele>1333.49</ele>
        <time>2019-08-03T18:18:29Z</time>
      </trkpt>
      <trkpt lat="45.81281" lon="6.734">
        <ele>1333.01</ele>
        <time>2019-08-03T18:18:30Z</time>
      </trkpt>
      <trkpt lat="45.81279" lon="6.73399">
        <ele>1332.52</ele>
        <time>2019-08-03T18:18:31Z</time>
      </trkpt>
      <trkpt lat="45.81278" lon="6.73398">
        <ele>1331.56</ele>
        <time>2019-08-03T18:18:32Z</time>
      </trkpt>
      <trkpt lat="45.81276" lon="6.73396">
        <ele>1331.08</ele>
        <time>2019-08-03T18:18:33Z</time>
      </trkpt>
      <trkpt lat="45.81273" lon="6.73394">
        <ele>1330.12</ele>
        <time>2019-08-03T18:18:35Z</time>
      </trkpt>
      <trkpt lat="45.81271" lon="6.73393">
        <ele>1329.64</ele>
        <time>2019-08-03T18:18:36Z</time>
      </trkpt>
      <trkpt lat="45.8127" lon="6.73392">
        <ele>1329.16</ele>
        <time>2019-08-03T18:18:37Z</time>
      </trkpt>
      <trkpt lat="45.8127" lon="6.73389">
        <ele>1328.2</ele>
        <time>2019-08-03T18:18:38Z</time>
      </trkpt>
      <trkpt lat="45.81271" lon="6.73388">
        <ele>1328.2</ele>
        <time>2019-08-03T18:18:39Z</time>
      </trkpt>
      <trkpt lat="45.81272" lon="6.73388">
        <ele>1327.24</ele>
        <time>2019-08-03T18:18:40Z</time>
      </trkpt>
      <trkpt lat="45.81274" lon="6.73388">
        <ele>1326.76</ele>
        <time>2019-08-03T18:18:41Z</time>
      </trkpt>
      <trkpt lat="45.81275" lon="6.73389">
        <ele>1326.28</ele>
        <time>2019-08-03T18:18:42Z</time>
      </trkpt>
      <trkpt lat="45.81277" lon="6.73388">
        <ele>1325.8</ele>
        <time>2019-08-03T18:18:43Z</time>
      </trkpt>
      <trkpt lat="45.8128" lon="6.73386">
        <ele>1325.31</ele>
        <time>2019-08-03T18:18:44Z</time>
      </trkpt>
      <trkpt lat="45.81283" lon="6.73384">
        <ele>1324.83</ele>
        <time>2019-08-03T18:18:45Z</time>
      </trkpt>
      <trkpt lat="45.81285" lon="6.73382">
        <ele>1323.87</ele>
        <time>2019-08-03T18:18:46Z</time>
      </trkpt>
      <trkpt lat="45.81286" lon="6.73381">
        <ele>1323.39</ele>
        <time>2019-08-03T18:18:47Z</time>
      </trkpt>
      <trkpt lat="45.81288" lon="6.7338">
        <ele>1323.39</ele>
        <time>2019-08-03T18:18:48Z</time>
      </trkpt>
      <trkpt lat="45.81291" lon="6.7338">
        <ele>1322.91</ele>
        <time>2019-08-03T18:18:49Z</time>
      </trkpt>
      <trkpt lat="45.81293" lon="6.7338">
        <ele>1322.43</ele>
        <time>2019-08-03T18:18:50Z</time>
      </trkpt>
      <trkpt lat="45.81295" lon="6.73381">
        <ele>1321.47</ele>
        <time>2019-08-03T18:18:51Z</time>
      </trkpt>
      <trkpt lat="45.81298" lon="6.73382">
        <ele>1320.99</ele>
        <time>2019-08-03T18:18:52Z</time>
      </trkpt>
      <trkpt lat="45.81302" lon="6.73386">
        <ele>1319.55</ele>
        <time>2019-08-03T18:18:54Z</time>
      </trkpt>
      <trkpt lat="45.81313" lon="6.73401">
        <ele>1316.18</ele>
        <time>2019-08-03T18:19:00Z</time>
      </trkpt>
      <trkpt lat="45.81324" lon="6.73418">
        <ele>1313.3</ele>
        <time>2019-08-03T18:19:06Z</time>
      </trkpt>
      <trkpt lat="45.81331" lon="6.73433">
        <ele>1309.93</ele>
        <time>2019-08-03T18:19:11Z</time>
      </trkpt>
      <trkpt lat="45.81335" lon="6.7344">
        <ele>1308.97</ele>
        <time>2019-08-03T18:19:14Z</time>
      </trkpt>
      <trkpt lat="45.81337" lon="6.73441">
        <ele>1308.49</ele>
        <time>2019-08-03T18:19:15Z</time>
      </trkpt>
      <trkpt lat="45.81343" lon="6.73444">
        <ele>1306.57</ele>
        <time>2019-08-03T18:19:17Z</time>
      </trkpt>
      <trkpt lat="45.81346" lon="6.73443">
        <ele>1305.61</ele>
        <time>2019-08-03T18:19:18Z</time>
      </trkpt>
      <trkpt lat="45.81348" lon="6.73442">
        <ele>1305.61</ele>
        <time>2019-08-03T18:19:19Z</time>
      </trkpt>
      <trkpt lat="45.8135" lon="6.73441">
        <ele>1304.65</ele>
        <time>2019-08-03T18:19:20Z</time>
      </trkpt>
      <trkpt lat="45.81352" lon="6.73439">
        <ele>1304.17</ele>
        <time>2019-08-03T18:19:21Z</time>
      </trkpt>
      <trkpt lat="45.81363" lon="6.7343">
        <ele>1300.8</ele>
        <time>2019-08-03T18:19:26Z</time>
      </trkpt>
      <trkpt lat="45.81373" lon="6.73424">
        <ele>1297.92</ele>
        <time>2019-08-03T18:19:30Z</time>
      </trkpt>
      <trkpt lat="45.81378" lon="6.73417">
        <ele>1295.99</ele>
        <time>2019-08-03T18:19:34Z</time>
      </trkpt>
      <trkpt lat="45.81378" lon="6.73414">
        <ele>1295.03</ele>
        <time>2019-08-03T18:19:35Z</time>
      </trkpt>
      <trkpt lat="45.81376" lon="6.73411">
        <ele>1294.55</ele>
        <time>2019-08-03T18:19:36Z</time>
      </trkpt>
      <trkpt lat="45.81373" lon="6.73403">
        <ele>1290.71</ele>
        <time>2019-08-03T18:19:41Z</time>
      </trkpt>
      <trkpt lat="45.8136" lon="6.73387">
        <ele>1287.34</ele>
        <time>2019-08-03T18:19:49Z</time>
      </trkpt>
      <trkpt lat="45.81356" lon="6.73381">
        <ele>1286.38</ele>
        <time>2019-08-03T18:19:51Z</time>
      </trkpt>
      <trkpt lat="45.81353" lon="6.73379">
        <ele>1285.9</ele>
        <time>2019-08-03T18:19:52Z</time>
      </trkpt>
      <trkpt lat="45.81352" lon="6.73377">
        <ele>1285.42</ele>
        <time>2019-08-03T18:19:53Z</time>
      </trkpt>
      <trkpt lat="45.81345" lon="6.73362">
        <ele>1282.06</ele>
        <time>2019-08-03T18:19:58Z</time>
      </trkpt>
      <trkpt lat="45.81345" lon="6.73358">
        <ele>1282.06</ele>
        <time>2019-08-03T18:19:59Z</time>
      </trkpt>
      <trkpt lat="45.81335" lon="6.73338">
        <ele>1278.69</ele>
        <time>2019-08-03T18:20:05Z</time>
      </trkpt>
      <trkpt lat="45.81334" lon="6.73332">
        <ele>1277.73</ele>
        <time>2019-08-03T18:20:07Z</time>
      </trkpt>
      <trkpt lat="45.81329" lon="6.7332">
        <ele>1274.36</ele>
        <time>2019-08-03T18:20:12Z</time>
      </trkpt>
      <trkpt lat="45.8132" lon="6.73304">
        <ele>1271</ele>
        <time>2019-08-03T18:20:18Z</time>
      </trkpt>
      <trkpt lat="45.81312" lon="6.73295">
        <ele>1268.12</ele>
        <time>2019-08-03T18:20:22Z</time>
      </trkpt>
      <trkpt lat="45.81301" lon="6.73287">
        <ele>1264.27</ele>
        <time>2019-08-03T18:20:26Z</time>
      </trkpt>
      <trkpt lat="45.81293" lon="6.73278">
        <ele>1260.91</ele>
        <time>2019-08-03T18:20:30Z</time>
      </trkpt>
      <trkpt lat="45.81284" lon="6.73268">
        <ele>1257.06</ele>
        <time>2019-08-03T18:20:35Z</time>
      </trkpt>
      <trkpt lat="45.81276" lon="6.73259">
        <ele>1254.18</ele>
        <time>2019-08-03T18:20:39Z</time>
      </trkpt>
      <trkpt lat="45.8126" lon="6.73241">
        <ele>1250.81</ele>
        <time>2019-08-03T18:20:46Z</time>
      </trkpt>
      <trkpt lat="45.81251" lon="6.73228">
        <ele>1246.97</ele>
        <time>2019-08-03T18:20:50Z</time>
      </trkpt>
      <trkpt lat="45.81239" lon="6.73208">
        <ele>1243.6</ele>
        <time>2019-08-03T18:20:57Z</time>
      </trkpt>
      <trkpt lat="45.81234" lon="6.73202">
        <ele>1242.16</ele>
        <time>2019-08-03T18:21:00Z</time>
      </trkpt>
      <trkpt lat="45.81225" lon="6.7319">
        <ele>1238.8</ele>
        <time>2019-08-03T18:21:05Z</time>
      </trkpt>
      <trkpt lat="45.81215" lon="6.73177">
        <ele>1235.43</ele>
        <time>2019-08-03T18:21:10Z</time>
      </trkpt>
      <trkpt lat="45.81205" lon="6.73164">
        <ele>1232.55</ele>
        <time>2019-08-03T18:21:16Z</time>
      </trkpt>
      <trkpt lat="45.81192" lon="6.73159">
        <ele>1229.18</ele>
        <time>2019-08-03T18:21:21Z</time>
      </trkpt>
      <trkpt lat="45.81175" lon="6.73149">
        <ele>1226.3</ele>
        <time>2019-08-03T18:21:27Z</time>
      </trkpt>
      <trkpt lat="45.81161" lon="6.73137">
        <ele>1223.42</ele>
        <time>2019-08-03T18:21:33Z</time>
      </trkpt>
      <trkpt lat="45.81159" lon="6.73133">
        <ele>1222.45</ele>
        <time>2019-08-03T18:21:34Z</time>
      </trkpt>
      <trkpt lat="45.81157" lon="6.73129">
        <ele>1221.97</ele>
        <time>2019-08-03T18:21:35Z</time>
      </trkpt>
      <trkpt lat="45.81154" lon="6.73126">
        <ele>1221.49</ele>
        <time>2019-08-03T18:21:36Z</time>
      </trkpt>
      <trkpt lat="45.81152" lon="6.7312">
        <ele>1221.01</ele>
        <time>2019-08-03T18:21:37Z</time>
      </trkpt>
      <trkpt lat="45.81151" lon="6.73116">
        <ele>1220.53</ele>
        <time>2019-08-03T18:21:38Z</time>
      </trkpt>
      <trkpt lat="45.81139" lon="6.73092">
        <ele>1217.17</ele>
        <time>2019-08-03T18:21:46Z</time>
      </trkpt>
      <trkpt lat="45.81136" lon="6.73088">
        <ele>1216.69</ele>
        <time>2019-08-03T18:21:49Z</time>
      </trkpt>
      <trkpt lat="45.81135" lon="6.73086">
        <ele>1216.21</ele>
        <time>2019-08-03T18:21:50Z</time>
      </trkpt>
      <trkpt lat="45.8113" lon="6.73078">
        <ele>1214.76</ele>
        <time>2019-08-03T18:22:02Z</time>
      </trkpt>
      <trkpt lat="45.8113" lon="6.73076">
        <ele>1214.28</ele>
        <time>2019-08-03T18:22:03Z</time>
      </trkpt>
      <trkpt lat="45.81127" lon="6.73069">
        <ele>1214.28</ele>
        <time>2019-08-03T18:22:39Z</time>
      </trkpt>
      <trkpt lat="45.81127" lon="6.73075">
        <ele>1214.28</ele>
        <time>2019-08-03T18:23:25Z</time>
      </trkpt>
      <trkpt lat="45.81127" lon="6.73073">
        <ele>1214.28</ele>
        <time>2019-08-03T18:23:26Z</time>
      </trkpt>
      <trkpt lat="45.81128" lon="6.73071">
        <ele>1214.28</ele>
        <time>2019-08-03T18:23:54Z</time>
      </trkpt>
      <trkpt lat="45.81127" lon="6.73066">
        <ele>1213.8</ele>
        <time>2019-08-03T18:24:17Z</time>
      </trkpt>
      <trkpt lat="45.81127" lon="6.73068">
        <ele>1214.28</ele>
        <time>2019-08-03T18:24:18Z</time>
      </trkpt>
      <trkpt lat="45.81124" lon="6.73064">
        <ele>1214.28</ele>
        <time>2019-08-03T18:24:48Z</time>
      </trkpt>
      <trkpt lat="45.8112" lon="6.73066">
        <ele>1214.28</ele>
        <time>2019-08-03T18:25:24Z</time>
      </trkpt>
      <trkpt lat="45.81125" lon="6.73064">
        <ele>1214.28</ele>
        <time>2019-08-03T18:25:35Z</time>
      </trkpt>
      <trkpt lat="45.81127" lon="6.73066">
        <ele>1214.28</ele>
        <time>2019-08-03T18:27:01Z</time>
      </trkpt>
      <trkpt lat="45.8113" lon="6.73064">
        <ele>1213.8</ele>
        <time>2019-08-03T18:28:15Z</time>
      </trkpt>
      <trkpt lat="45.81129" lon="6.73059">
        <ele>1214.28</ele>
        <time>2019-08-03T18:28:57Z</time>
      </trkpt>
      <trkpt lat="45.81131" lon="6.73062">
        <ele>1214.28</ele>
        <time>2019-08-03T18:30:03Z</time>
      </trkpt>
      <trkpt lat="45.81132" lon="6.73056">
        <ele>1213.8</ele>
        <time>2019-08-03T18:31:23Z</time>
      </trkpt>
      <trkpt lat="45.8113" lon="6.73062">
        <ele>1213.8</ele>
        <time>2019-08-03T18:33:03Z</time>
      </trkpt>
      <trkpt lat="45.8113" lon="6.73063">
        <ele>1213.8</ele>
        <time>2019-08-03T18:33:19Z</time>
      </trkpt>
      <trkpt lat="45.81128" lon="6.73063">
        <ele>1213.8</ele>
        <time>2019-08-03T18:33:26Z</time>
      </trkpt>
      <trkpt lat="45.81131" lon="6.73058">
        <ele>1213.32</ele>
        <time>2019-08-03T18:33:32Z</time>
      </trkpt>
      <trkpt lat="45.81139" lon="6.73059">
        <ele>1210.44</ele>
        <time>2019-08-03T18:33:42Z</time>
      </trkpt>
      <trkpt lat="45.81154" lon="6.7306">
        <ele>1207.07</ele>
        <time>2019-08-03T18:33:50Z</time>
      </trkpt>
      <trkpt lat="45.81166" lon="6.7306">
        <ele>1203.23</ele>
        <time>2019-08-03T18:33:54Z</time>
      </trkpt>
      <trkpt lat="45.81179" lon="6.73061">
        <ele>1199.86</ele>
        <time>2019-08-03T18:33:58Z</time>
      </trkpt>
      <trkpt lat="45.81193" lon="6.73063">
        <ele>1196.5</ele>
        <time>2019-08-03T18:34:02Z</time>
      </trkpt>
      <trkpt lat="45.81211" lon="6.73065">
        <ele>1193.61</ele>
        <time>2019-08-03T18:34:07Z</time>
      </trkpt>
      <trkpt lat="45.81225" lon="6.73065">
        <ele>1190.25</ele>
        <time>2019-08-03T18:34:12Z</time>
      </trkpt>
      <trkpt lat="45.81235" lon="6.73066">
        <ele>1188.81</ele>
        <time>2019-08-03T18:34:16Z</time>
      </trkpt>
      <trkpt lat="45.81236" lon="6.73067">
        <ele>1188.33</ele>
        <time>2019-08-03T18:34:17Z</time>
      </trkpt>
      <trkpt lat="45.81231" lon="6.73064">
        <ele>1187.37</ele>
        <time>2019-08-03T18:34:29Z</time>
      </trkpt>
      <trkpt lat="45.8123" lon="6.73063">
        <ele>1187.37</ele>
        <time>2019-08-03T18:34:30Z</time>
      </trkpt>
      <trkpt lat="45.81227" lon="6.73063">
        <ele>1186.88</ele>
        <time>2019-08-03T18:34:32Z</time>
      </trkpt>
      <trkpt lat="45.81208" lon="6.73052">
        <ele>1185.92</ele>
        <time>2019-08-03T18:34:44Z</time>
      </trkpt>
      <trkpt lat="45.8119" lon="6.73038">
        <ele>1184.48</ele>
        <time>2019-08-03T18:34:52Z</time>
      </trkpt>
      <trkpt lat="45.81171" lon="6.7302">
        <ele>1181.6</ele>
        <time>2019-08-03T18:34:59Z</time>
      </trkpt>
      <trkpt lat="45.81155" lon="6.73004">
        <ele>1178.71</ele>
        <time>2019-08-03T18:35:05Z</time>
      </trkpt>
      <trkpt lat="45.81136" lon="6.72985">
        <ele>1175.83</ele>
        <time>2019-08-03T18:35:12Z</time>
      </trkpt>
      <trkpt lat="45.81127" lon="6.7298">
        <ele>1174.39</ele>
        <time>2019-08-03T18:35:15Z</time>
      </trkpt>
      <trkpt lat="45.81105" lon="6.72968">
        <ele>1171.98</ele>
        <time>2019-08-03T18:35:22Z</time>
      </trkpt>
      <trkpt lat="45.81083" lon="6.72954">
        <ele>1169.58</ele>
        <time>2019-08-03T18:35:30Z</time>
      </trkpt>
      <trkpt lat="45.81065" lon="6.72936">
        <ele>1166.7</ele>
        <time>2019-08-03T18:35:37Z</time>
      </trkpt>
      <trkpt lat="45.81043" lon="6.72922">
        <ele>1164.29</ele>
        <time>2019-08-03T18:35:44Z</time>
      </trkpt>
      <trkpt lat="45.81019" lon="6.72912">
        <ele>1161.89</ele>
        <time>2019-08-03T18:35:51Z</time>
      </trkpt>
      <trkpt lat="45.80998" lon="6.72901">
        <ele>1160.45</ele>
        <time>2019-08-03T18:36:08Z</time>
      </trkpt>
      <trkpt lat="45.80996" lon="6.729">
        <ele>1159.97</ele>
        <time>2019-08-03T18:36:18Z</time>
      </trkpt>
    </trkseg>
  </trk>
</gpx>